[[{"header":{"parameterUnit":"m.s-1","parameterCategory":1,"la1":30.6,"la2":29.2853,"lo1":-89.7004,"lo2":-87.6739,"dx":0.0162,"dy":0.0183,"nx":112,"ny":82,"refTime":"2022-11-04T12:00:00:Z","depth":0,"parameterNumber":2,"parameterNumberName":"U-component_of_WINDS"},"data":[0.0,0.0,0.0,0.0,0.0,0.0,0.0,0.0,0.0,0.0,0.0,0.0,0.0,0.0,0.0,0.0,0.0,0.0,0.0,0.0,0.0,0.0,0.0,0.0,0.0,0.0,0.0,0.0,0.0,0.0,0.0,0.0,0.0,0.0,0.0,0.0,0.0,0.0,0.0,0.0,0.0,0.0,0.0,0.0,0.0,0.0,0.0,0.0,0.0,0.0,0.0,0.0,0.0,0.0,0.0,0.0,0.0,0.0,0.0,0.0,0.0,0.0,0.0,0.0,0.0,0.0,0.0,0.0,0.0,0.0,0.0,0.0,0.0,0.0,0.0,0.0,0.0,0.0,0.0,0.0,0.0,0.0,0.0,0.0,0.0,0.0,0.0,0.0,0.0,0.0,1.0995,1.0697,1.0984,1.1187,1.1118,1.2154,1.2835,1.2893,0.0,0.0,0.0,0.0,0.0,0.0,0.0,0.0,0.0,0.0,0.0,0.0,0.0,0.0,0.0,0.0,0.0,0.0,0.0,0.0,0.0,0.0,0.0,0.0,0.0,0.0,0.0,0.0,0.0,0.0,0.0,0.0,0.0,0.0,0.0,0.0,0.0,0.0,0.0,0.0,0.0,0.0,0.0,0.0,0.0,0.0,0.0,0.0,0.0,0.0,0.0,0.0,0.0,0.0,0.0,0.0,0.0,0.0,0.0,0.0,0.0,0.0,0.0,0.0,0.0,0.0,0.0,0.0,0.0,0.0,0.0,0.0,0.0,0.0,0.0,0.0,0.0,0.0,0.0,0.0,0.0,0.0,0.0,0.0,0.0,0.0,0.0,0.0,0.0,0.0,0.0,0.0,0.0,0.0,0.0,0.0,0.0,0.0,0.0,0.0,0.0,0.0,0.0,0.0,1.0097,0.9606,0.9466,0.9638,1.0228,1.102,1.1738,1.2369,0.0,0.0,0.0,0.0,0.0,0.0,0.0,0.0,0.0,0.0,0.0,0.0,0.0,0.0,0.0,0.0,0.0,0.0,0.0,0.0,0.0,0.0,0.0,0.0,0.0,0.0,0.0,0.0,0.0,0.0,0.0,0.0,0.0,0.0,0.0,0.0,0.0,0.0,0.0,0.0,0.0,0.0,0.0,0.0,0.0,0.0,0.0,0.0,0.0,0.0,0.0,0.0,0.0,0.0,0.0,0.0,0.0,0.0,0.0,0.0,0.0,0.0,0.0,0.0,0.0,0.0,0.0,0.0,0.0,0.0,0.0,0.0,0.0,0.0,0.0,0.0,0.0,0.0,0.0,0.0,0.0,0.0,0.0,0.0,0.0,0.0,0.0,0.0,0.0,0.0,0.0,0.0,0.0,0.0,0.0,0.0,0.0,0.0,0.0,0.0,0.0,0.0,0.0,0.9077,0.8839,0.8618,0.8653,0.8836,0.9187,1.0294,1.1038,1.1301,1.2927,0.0,0.0,0.0,0.0,0.0,0.0,0.0,0.0,0.0,0.0,0.0,0.0,0.0,0.0,0.0,0.0,0.0,0.0,0.0,0.0,0.0,0.0,0.0,0.0,0.0,0.0,0.0,0.0,0.0,0.0,0.0,0.0,0.0,0.0,0.0,0.0,0.0,0.0,0.0,0.0,0.0,0.0,0.0,0.0,0.0,0.0,0.0,0.0,0.0,0.0,0.0,0.0,0.0,0.0,0.0,0.0,0.0,0.0,0.0,0.0,0.0,0.0,0.0,0.0,0.0,0.0,0.0,0.0,0.0,0.0,0.0,0.0,0.0,0.0,0.0,0.0,0.0,0.0,0.0,0.0,0.0,0.0,0.0,0.0,0.0,0.0,0.0,0.0,0.0,0.0,0.0,0.0,0.0,0.0,0.0,0.0,0.0,0.0,0.0,0.0,0.0,0.0,0.7801,0.7616,0.7666,0.7827,0.7979,0.8143,0.9422,1.0265,1.0324,1.1716,0.0,0.0,0.0,0.0,0.0,0.0,0.0,0.0,0.0,0.0,0.0,0.0,0.0,0.0,0.0,0.0,0.0,0.0,0.0,0.0,0.0,0.0,0.0,0.0,0.0,0.0,0.0,0.0,0.0,0.0,0.0,0.0,0.0,0.0,0.0,0.0,0.0,0.0,0.0,0.0,0.0,0.0,0.0,0.0,0.0,0.0,0.0,0.0,0.0,0.0,0.0,0.0,0.0,0.0,0.0,0.0,0.0,0.0,0.0,0.0,0.0,0.0,0.0,0.0,0.0,0.0,0.0,0.0,0.0,0.0,0.0,0.0,0.0,0.0,0.0,0.0,0.0,0.0,0.0,0.0,0.0,0.0,0.0,0.0,0.0,0.0,0.0,0.0,0.0,0.0,0.0,0.0,0.0,0.0,0.0,0.0,0.0,0.0,0.0,0.0,0.0,0.0,0.7017,0.6691,0.6708,0.6608,0.6706,0.7063,0.8158,0.9133,0.9821,1.0898,0.0,0.0,0.0,0.0,0.0,0.0,0.0,0.0,0.0,0.0,0.0,0.0,0.0,0.0,0.0,0.0,0.0,0.0,0.0,0.0,0.0,0.0,0.0,0.0,0.0,0.0,0.0,0.0,0.0,0.0,0.0,0.0,0.0,0.0,0.0,0.0,0.0,0.0,0.0,0.0,0.0,0.0,0.0,0.0,0.0,0.0,0.0,0.0,0.0,0.0,0.0,0.0,0.0,0.0,0.0,0.0,0.0,0.0,0.0,0.0,0.0,0.0,0.0,0.0,0.0,0.0,0.0,0.0,0.0,0.0,0.0,0.0,0.0,0.0,0.0,0.0,0.0,0.0,0.0,0.0,0.0,0.0,0.0,0.0,0.0,0.0,0.0,0.0,0.0,0.0,0.0,0.0,0.0,0.0,0.0,0.0,0.0,0.0,0.0,0.0,0.0,0.0,0.4493,0.4268,0.4014,0.4092,0.4562,0.5558,0.6434,0.7422,0.8542,0.0,0.0,0.0,0.0,0.0,0.0,0.0,0.0,0.0,0.0,0.0,0.0,0.0,0.0,0.0,0.0,0.0,0.0,0.0,0.0,0.0,0.0,0.0,0.0,0.0,0.0,0.0,0.0,0.0,0.0,0.0,0.0,0.0,0.0,0.0,0.0,0.0,0.0,0.0,0.0,0.0,0.0,0.0,0.0,0.0,0.0,0.0,0.0,0.0,0.0,0.0,0.0,0.0,0.0,0.0,0.0,0.0,0.0,0.0,0.0,0.0,0.0,0.0,0.0,0.0,0.0,0.0,0.0,0.0,0.0,0.0,0.0,0.0,0.0,0.0,0.0,0.0,0.0,0.0,0.0,0.0,0.0,0.0,0.0,0.0,0.0,0.0,0.0,0.0,0.0,0.0,0.0,0.0,0.0,0.0,0.0,0.0,0.0,0.0,0.0,0.0,0.0,0.3023,0.2817,0.2604,0.2236,0.2324,0.2849,0.3878,0.4642,0.5566,0.678,0.0,0.0,0.0,0.0,0.0,0.0,0.0,0.0,0.0,0.0,0.0,0.0,0.0,0.0,0.0,0.0,0.0,0.0,0.0,0.0,0.0,0.0,0.0,0.0,0.0,0.0,0.0,0.0,0.0,0.0,0.0,0.0,0.0,0.0,0.0,0.0,0.0,0.0,0.0,0.0,0.0,0.0,0.0,0.0,0.0,0.0,0.0,0.0,0.0,0.0,0.0,0.0,0.0,0.0,0.0,0.0,0.0,0.0,0.0,0.0,0.0,0.0,0.0,0.0,0.0,0.0,0.0,0.0,0.0,0.0,0.0,0.0,0.0,0.0,0.0,0.0,0.0,0.0,0.0,0.0,0.0,0.0,0.0,0.0,0.0,0.0,0.0,0.0,0.0,0.0,0.0,0.0,0.0,0.0,0.0,0.0,0.0,0.0,0.0,0.0,0.0,0.0,0.2818,0.2416,0.2058,0.1787,0.1653,0.1724,0.2142,0.2797,0.3591,0.0,0.0,0.0,0.0,0.0,0.0,0.0,0.0,0.0,0.0,0.0,0.0,0.0,0.0,0.0,0.0,0.0,0.0,0.0,0.0,0.0,0.0,0.0,0.0,0.0,0.0,0.0,0.0,0.0,0.0,0.0,0.0,0.0,0.0,0.0,0.0,0.0,0.0,0.0,0.0,0.0,0.0,0.0,0.0,0.0,0.0,0.0,0.0,0.0,0.0,0.0,0.0,0.0,0.0,0.0,0.0,0.0,0.0,0.0,0.0,0.0,0.0,0.0,0.0,0.0,0.0,0.0,0.0,0.0,0.0,0.0,0.0,0.0,0.0,0.0,0.0,0.0,0.0,0.0,0.0,0.0,0.0,0.0,0.0,0.0,0.0,0.0,0.0,0.0,0.0,0.0,0.0,0.0,0.0,0.0,0.0,0.0,0.0,0.0,0.0,0.0,0.0,0.0,0.0362,0.0153,-0.0079,-0.0536,-0.0456,0.0051,0.1117,0.1566,0.244,0.3947,0.0,0.0,0.0,0.0,0.0,0.0,0.0,0.0,0.0,0.0,0.0,0.0,0.0,0.0,0.0,0.0,0.0,0.0,0.0,0.0,0.0,0.0,0.0,0.0,0.0,0.0,0.0,0.0,0.0,0.0,0.0,0.0,0.0,0.0,0.0,0.0,0.0,0.0,0.0,0.0,0.0,0.0,0.0,0.0,0.0,0.0,0.0,0.0,0.0,0.0,0.0,0.0,0.0,0.0,0.0,0.0,0.0,0.0,0.0,0.0,0.0,0.0,0.0,0.0,0.0,0.0,0.0,0.0,0.0,0.0,0.0,0.0,0.0,0.0,0.0,0.0,0.0,0.0,0.0,0.0,0.0,0.0,0.0,0.0,0.0,0.0,0.0,0.0,0.0,0.0,0.0,0.0,0.0,0.0,0.0,0.0,0.0,0.0,0.0,0.0,0.0,0.0,-0.0862,-0.0963,-0.1122,-0.1546,-0.1465,-0.0934,0.0076,0.0303,0.0995,0.2364,0.0,0.0,0.0,0.0,0.0,0.0,0.0,0.0,0.0,0.0,0.0,0.0,0.0,0.0,0.0,0.0,0.0,0.0,0.0,0.0,0.0,0.0,0.0,0.0,0.0,0.0,0.0,0.0,0.0,0.0,0.0,0.0,0.0,0.0,0.0,0.0,0.0,0.0,0.0,0.0,0.0,0.0,0.0,0.0,0.0,0.0,0.0,0.0,0.0,0.0,0.0,0.0,0.0,0.0,0.0,0.0,0.0,0.0,0.0,0.0,0.0,0.0,0.0,0.0,0.0,0.0,0.0,0.0,0.0,0.0,0.0,0.0,0.0,0.0,0.0,0.0,0.0,0.0,0.0,0.0,0.0,0.0,0.0,0.0,0.0,0.0,0.0,0.0,0.0,0.0,0.0,0.0,0.0,0.0,0.0,0.0,0.0,0.0,0.0,0.0,0.0,0.0,-0.1243,-0.1255,-0.1316,-0.1569,-0.1592,-0.139,-0.0884,-0.0808,-0.0476,0.032,0.0,0.0,0.0,0.0,0.0,0.0,0.0,0.0,0.0,0.0,0.0,0.0,0.0,0.0,0.0,0.0,0.0,0.0,0.0,0.0,0.0,0.0,0.0,0.0,0.0,0.0,0.0,0.0,0.0,0.0,0.0,0.0,0.0,0.0,0.0,0.0,0.0,0.0,0.0,0.0,0.0,0.0,0.0,0.0,0.0,0.0,0.0,0.0,0.0,0.0,0.0,0.0,0.0,0.0,0.0,0.0,0.0,0.0,0.0,0.0,-0.3334,-0.3869,0.0,0.0,0.0,0.0,0.0,0.0,0.0,0.0,0.0,0.0,0.0,0.0,0.0,0.0,0.0,0.0,0.0,0.0,0.0,0.0,0.0,0.0,0.0,0.0,0.0,0.0,0.0,0.0,0.0,0.0,0.0,0.0,0.0,0.0,0.0,0.0,0.0,0.0,0.0,0.0,-0.2149,-0.1655,-0.1316,-0.1569,-0.1592,-0.1465,-0.1137,-0.091,-0.0551,0.0049,0.0587,0.0,0.0,0.0,0.0,0.0,0.0,0.0,0.0,0.0,0.0,0.0,0.0,0.0,0.0,0.0,0.0,0.0,0.0,0.0,0.0,0.0,0.0,0.0,0.0,0.0,0.0,0.0,0.0,0.0,0.0,0.0,0.0,0.0,0.0,0.0,0.0,0.0,0.0,0.0,0.0,0.0,0.0,0.0,0.0,0.0,0.0,0.0,0.0,0.0,0.0,0.0,0.0,0.0,0.0,0.0,0.0,0.0,0.0,0.0,-0.3213,-0.3004,0.0,0.0,0.0,0.0,0.0,0.0,0.0,0.0,0.0,0.0,0.0,0.0,0.0,0.0,0.0,0.0,0.0,0.0,0.0,0.0,0.0,0.0,0.0,0.0,0.0,0.0,0.0,0.0,0.0,0.0,0.0,0.0,0.0,0.0,0.0,0.0,0.0,0.0,0.0,0.0,-0.2671,-0.1965,-0.1456,-0.1593,-0.1491,-0.1289,-0.1036,-0.0757,-0.0427,-0.0025,0.0493,0.0,0.0,0.0,0.0,0.0,0.0,0.0,0.0,0.0,0.0,0.0,0.0,0.0,0.0,0.0,0.0,0.0,0.0,0.0,0.0,0.0,0.0,0.0,0.0,0.0,0.0,0.0,0.0,0.0,0.0,0.0,0.0,0.0,0.0,0.0,0.0,0.0,0.0,0.0,0.0,0.0,0.0,0.0,0.0,0.0,0.0,0.0,0.0,0.0,0.0,0.0,0.0,0.0,-0.5852,-0.5982,-0.6005,-0.5599,-0.4969,-0.4177,-0.2948,-0.1745,-0.0811,-0.268,0.0,0.0,0.0,0.0,0.0,0.0,0.0,0.0,0.0,0.0,0.0,0.0,0.0,0.0,0.0,0.0,0.0,0.0,0.0,0.0,0.0,0.0,0.1511,0.151,0.1524,0.1511,0.151,0.0,0.0,0.0,0.0,0.0,0.0,0.0,0.0,0.0,0.0,0.0,-0.28,-0.2199,-0.1768,-0.1792,-0.1742,-0.1615,-0.1439,-0.0959,-0.0581,-0.0353,0.0149,0.0566,0.0,0.0,0.0,0.0,0.0,0.0,0.0,0.0,0.0,0.0,0.0,0.0,0.0,0.0,0.0,0.0,0.0,0.0,0.0,0.0,0.0,0.0,0.0,0.0,0.0,0.0,0.0,0.0,0.0,0.0,0.0,0.0,-0.4411,-0.448,0.0,0.0,0.0,0.0,0.0,0.0,0.0,0.0,0.0,0.0,0.0,0.0,0.0,-0.5322,-0.5327,-0.5234,-0.5295,-0.5518,-0.5387,-0.5449,-0.5643,-0.4677,-0.4161,-0.3967,-0.2629,0.0,-0.2056,-0.1225,0.0,0.0,0.0,0.0,0.0,0.0,0.0,0.0,0.0,0.0,0.0,0.0,0.0,0.0,0.0,0.0,0.0,0.0,0.0,0.0,0.0,0.0,0.1579,0.1574,0.1577,0.1579,0.1574,0.1368,0.114,0.114,0.0761,0.0427,0.0,0.0,0.0,0.0,0.0,0.0,-0.2272,-0.229,-0.2395,-0.262,-0.3226,-0.3704,-0.3902,-0.262,-0.1765,-0.174,-0.1233,-0.0424,0.0761,0.0368,0.0,0.0,0.0,0.0,0.0,0.0,0.0,0.0,0.0,0.0,0.0,0.0,0.0,0.0,0.0,0.0,0.0,0.0,0.0,0.0,0.0,0.0,0.0,0.0,0.0,0.0,0.0,0.0,0.0,-0.4606,-0.4716,-0.4795,-0.4691,-0.4751,0.0,0.0,0.0,0.0,0.0,0.0,0.0,0.0,0.0,-0.5254,-0.5234,-0.5161,-0.5014,-0.5184,-0.5338,-0.5438,-0.5539,-0.5662,-0.5735,-0.5119,-0.4838,-0.4756,-0.3431,-0.2912,-0.2982,-0.2414,-0.267,-0.3422,0.0,0.0,0.0,0.0,-0.2134,-0.1471,0.0098,0.1051,0.1551,0.1551,0.0,0.0,0.0,0.0,0.0,0.0,0.0,0.155,0.1591,0.1606,0.1595,0.1588,0.1592,0.1592,0.1592,0.1486,0.1341,0.123,0.0879,0.0388,-0.0363,-0.1055,0.0,0.0,0.0,-0.1961,-0.2182,-0.2317,-0.2446,-0.2572,-0.3302,-0.383,-0.3927,-0.3173,-0.267,-0.267,-0.2318,-0.1756,-0.102,-0.1155,-0.0801,0.0,0.0,0.0,0.0,0.0,0.0,0.0,0.0,0.0,0.0,0.0,0.0,0.0,0.0,0.0,0.0,0.0,0.0,0.0,0.0,0.0,0.0,0.0,0.0,0.0,0.0,0.0,0.0,-0.4766,-0.4892,-0.4992,-0.4929,-0.4938,0.0,0.0,0.0,0.0,0.0,0.0,-0.5528,-0.5438,-0.5313,-0.5184,-0.5163,-0.5086,-0.4878,-0.518,-0.5322,-0.5322,-0.5575,-0.5691,-0.5691,-0.5483,-0.5404,-0.5351,-0.4335,-0.3911,-0.3878,-0.336,-0.3227,-0.3394,-0.4376,-0.483,-0.4789,-0.3357,-0.2363,-0.1515,-0.0076,0.0963,0.1631,0.1631,0.162,0.1602,0.1547,0.0,0.0,0.0,0.0,0.153,0.1577,0.1607,0.159,0.1611,0.1592,0.1592,0.1592,0.1592,0.1541,0.1339,0.1074,0.0568,-0.0494,-0.1049,0.0,-0.2415,-0.2078,-0.1827,-0.2024,-0.2375,-0.2748,-0.3075,-0.3827,-0.4354,-0.4408,-0.3944,-0.365,-0.365,-0.3411,-0.3038,-0.2502,-0.2534,-0.2044,-0.092,0.0,0.0,0.0,0.0,0.0,0.0,0.0,0.0,0.0,0.0,0.0,0.0,0.0,0.0,0.0,0.0,0.0,0.0,0.0,0.0,0.0,0.0,0.0,0.0,0.0,0.0,0.0,0.0,0.0,-0.4716,-0.4773,0.0,0.0,0.0,0.0,-0.5206,-0.5436,-0.5507,-0.5326,-0.53,-0.5235,-0.5118,-0.5096,-0.5096,-0.5096,-0.51,-0.5126,-0.5104,-0.5135,-0.5135,-0.5135,-0.5135,-0.5108,-0.5108,-0.5055,-0.5028,-0.4865,-0.2812,-0.2623,-0.358,-0.3577,-0.4307,-0.5083,-0.2656,-0.1794,-0.1462,0.0828,0.1646,0.1697,0.1697,0.166,0.1609,0.1603,0.1594,0.0,0.0,0.159,0.1588,0.1589,0.1589,0.159,0.1592,0.1592,0.1592,0.1592,0.1592,0.1592,0.1592,0.1363,0.1085,0.0757,0.0,-0.098,-0.0277,-0.0982,-0.1611,-0.1637,-0.2517,-0.3651,-0.4931,-0.5782,-0.6362,-0.6617,-0.557,-0.4901,-0.4901,-0.4725,-0.403,-0.2731,-0.3422,-0.366,-0.3342,-0.226,0.0,0.0,0.0,0.0,0.0,0.0,0.0,0.0,0.0,0.0,0.0,0.0,0.0,0.0,0.0,0.0,0.0,0.0,0.0,0.0,0.0,0.0,0.0,0.0,0.0,0.0,0.0,0.0,-0.491,-0.4968,0.0,-0.4969,-0.5099,-0.5206,-0.5206,-0.5285,-0.5354,-0.5366,-0.5289,-0.5219,-0.5167,-0.5171,-0.5142,-0.5108,-0.5138,-0.5171,-0.5171,-0.5255,-0.5312,-0.5365,-0.5365,-0.537,-0.5423,-0.5423,-0.497,-0.4145,-0.3377,-0.3667,-0.448,-0.368,-0.3648,-0.3766,-0.1407,-0.0543,-0.0355,0.1209,0.1763,0.1763,0.1763,0.1749,0.1729,0.1719,0.1742,0.1742,0.1742,0.1723,0.1727,0.1733,0.1729,0.172,0.1681,0.166,0.1669,0.1675,0.166,0.1673,0.1673,0.1412,0.0959,0.0151,-0.0076,-0.053,-0.1638,-0.1688,-0.1789,-0.2318,-0.3299,-0.4196,-0.4759,-0.5685,-0.641,-0.6774,-0.6396,-0.6077,-0.5924,-0.5831,-0.5399,-0.4547,-0.4809,-0.4491,-0.3406,-0.3088,-0.2797,0.0,0.0,0.0,0.0,0.0,0.0,0.0,0.0,0.0,0.0,0.0,0.0,0.0,0.0,0.0,0.0,0.0,0.0,0.0,0.0,0.0,0.0,0.0,0.0,0.0,-0.4382,-0.4439,-0.5024,-0.5161,-0.5105,-0.4859,-0.5099,-0.5182,-0.4986,-0.515,-0.5328,-0.5418,-0.5337,-0.5321,-0.5322,-0.5322,-0.5321,-0.526,-0.5321,-0.5322,-0.5326,-0.5415,-0.5268,-0.4915,-0.5351,-0.5093,-0.432,-0.476,-0.4232,-0.3027,-0.3027,-0.3382,-0.3883,-0.3086,-0.2753,-0.2537,-0.0614,0.0112,0.0253,0.142,0.1825,0.1824,0.1813,0.1804,0.1793,0.1811,0.1772,0.1764,0.1764,0.1764,0.176,0.1767,0.1761,0.1751,0.1711,0.169,0.1699,0.1707,0.169,0.1704,0.1704,0.1516,0.1106,0.0308,0.0462,0.0077,-0.1792,-0.1656,-0.1815,-0.3053,-0.3894,-0.4534,-0.4984,-0.5669,-0.6219,-0.6479,-0.6553,-0.6516,-0.6301,-0.6245,-0.6061,-0.5678,-0.5623,-0.5091,-0.4037,-0.331,-0.2788,-0.2466,0.0,0.0,0.0,0.0,0.0,0.0,0.0,0.0,0.0,0.0,0.0,0.0,0.0,0.0,0.0,0.0,0.0,0.0,0.0,0.0,0.0,0.0,0.0,-0.3811,-0.4186,-0.4422,-0.4991,-0.5221,-0.5071,-0.4354,-0.4917,-0.5106,-0.4515,-0.5022,-0.5398,-0.548,-0.5484,-0.5524,-0.561,-0.5614,-0.5614,-0.5614,-0.5555,-0.5555,-0.5526,-0.5496,-0.4822,-0.3678,-0.491,-0.4089,-0.1796,-0.309,-0.2884,-0.165,-0.165,-0.162,-0.159,-0.1618,-0.1646,-0.1499,-0.0294,0.0147,0.0324,0.1503,0.1915,0.1911,0.1822,0.1821,0.1821,0.1818,0.176,0.171,0.171,0.171,0.171,0.1708,0.1708,0.1708,0.1705,0.1707,0.1707,0.1705,0.1707,0.1707,0.1707,0.1707,0.1627,0.1358,0.1305,0.0868,-0.0406,-0.0755,0.0,-0.3679,-0.4138,-0.4676,-0.5708,-0.5871,-0.5902,-0.5907,-0.6078,-0.617,-0.6117,-0.5978,-0.5922,-0.5932,-0.5678,-0.5452,-0.5294,-0.2923,-0.1609,-0.1401,0.0,0.0,0.0,0.0,0.0,0.0,0.0,0.0,0.0,0.0,0.0,0.0,0.0,0.0,0.0,0.0,0.0,0.0,0.0,0.0,0.0,-0.0397,-0.0894,-0.3336,-0.2776,-0.26,-0.3865,-0.4058,-0.4015,-0.3799,-0.4029,-0.4096,-0.3922,-0.4531,-0.4886,-0.4907,-0.5344,-0.5589,-0.5614,-0.5614,-0.5614,-0.5614,-0.4672,-0.4232,-0.4203,-0.3232,-0.2601,-0.2331,-0.2689,-0.2496,-0.1945,-0.231,-0.1702,-0.0456,-0.0456,0.0091,0.0882,-0.003,-0.0382,-0.0236,0.0954,0.1408,0.1466,0.1775,0.2033,0.218,0.2169,0.2159,0.215,0.2169,0.2016,0.1836,0.1836,0.1836,0.1831,0.1781,0.1775,0.1763,0.1775,0.1782,0.1764,0.1769,0.1782,0.177,0.177,0.177,0.1728,0.1605,0.1438,0.0928,-0.021,-0.0608,-0.1165,-0.2335,-0.3302,-0.3965,-0.42,-0.5116,-0.5771,-0.6038,-0.6199,-0.6232,-0.6102,-0.6055,-0.5529,-0.4377,-0.4265,-0.3777,-0.28,-0.1975,-0.1538,0.0,0.0,0.0,0.0,0.0,0.0,0.0,0.0,0.0,0.0,0.0,0.0,0.0,0.0,0.0,0.0,0.0,0.0,0.0,0.0,0.0,0.0,0.0653,0.0359,-0.1364,-0.1087,-0.1147,-0.2288,-0.241,-0.229,-0.2029,-0.2281,-0.2351,-0.2088,-0.2674,-0.3036,-0.3055,-0.3411,-0.3628,-0.3684,-0.3684,-0.3744,-0.3894,-0.2996,-0.2697,-0.2966,-0.2068,-0.1416,-0.1063,-0.164,-0.1317,-0.0342,-0.0932,-0.0375,0.0879,0.0879,0.1351,0.1975,0.0,0.0,0.0,0.0,0.193,0.1948,0.208,0.2222,0.2401,0.2505,0.2559,0.2555,0.2509,0.2403,0.2242,0.2083,0.2137,0.219,0.2026,0.2077,0.2153,0.2,0.1977,0.1934,0.1817,0.1802,0.1817,0.1831,0.1834,0.0,0.1786,0.1621,0.1164,0.0107,-0.0242,-0.0732,-0.1614,-0.2395,-0.2852,-0.2816,-0.3501,-0.404,-0.4248,-0.4347,0.0,0.0,0.0,-0.3899,-0.3023,-0.2912,0.0,0.0,0.0,-0.0594,-0.0109,-0.0109,0.0,0.0,-0.0405,-0.0676,0.0,0.0,0.0,0.0,0.0,0.0,0.0,0.0,0.0,0.0,0.0,0.0,0.0,0.0,0.0,0.0,0.1857,0.2123,0.1407,0.0865,0.0259,-0.0516,-0.0553,-0.0294,0.0236,-0.0206,-0.0295,0.0236,-0.0266,-0.0653,-0.0692,-0.0784,0.0,0.0,0.0,-0.1138,-0.1446,-0.0984,-0.1077,-0.1635,-0.1203,-0.0525,0.031,-0.0897,-0.0125,0.2055,0.0854,0.1051,0.2225,0.2225,0.2225,0.2187,0.2069,0.2048,0.2113,0.2074,0.2096,0.2166,0.2407,0.0,0.0,0.2877,0.2953,0.2945,0.2867,0.2826,0.2727,0.2379,0.2483,0.2652,0.2369,0.2511,0.2652,0.234,0.2284,0.221,0.1983,0.1932,0.1939,0.1997,0.2003,0.2003,0.2003,0.1927,0.1564,0.0622,0.036,-0.0056,-0.0993,-0.1328,-0.1474,-0.1461,-0.1611,0.0,-0.1701,-0.1745,-0.177,-0.1741,-0.164,-0.1708,-0.1987,-0.1558,-0.0888,0.0028,0.0194,0.0803,0.18,0.1797,0.1795,0.1738,-0.0331,-0.0739,0.0,0.0,0.0,0.0,0.0,0.0,0.0,0.0,0.0,0.0,0.0,0.0,0.0,0.0,0.0,0.2166,0.2921,0.3444,0.3279,0.3199,0.2542,0.0863,0.0677,0.0719,0.0839,0.0728,0.0733,0.0825,0.0244,-0.0153,-0.0153,-0.0674,-0.0982,-0.0984,-0.1015,-0.1046,-0.1107,0.0031,0.0588,0.0501,0.1663,0.0,0.2495,0.2238,0.2401,0.2858,0.2602,0.2669,0.2904,0.2904,0.2904,0.2837,0.2308,0.2399,0.2845,0.2595,0.2646,0.2886,0.2944,0.3116,0.3292,0.3303,0.3317,0.3277,0.3224,0.3054,0.0,0.2772,0.2799,0.2857,0.277,0.2799,0.2857,0.277,0.277,0.2742,0.2694,0.2696,0.2698,0.2706,0.2708,0.2708,0.2708,0.2462,0.2127,0.165,0.1803,0.1779,0.1308,0.0379,-0.0174,-0.0028,-0.0973,-0.1615,-0.1615,-0.1683,-0.1771,-0.1919,-0.0941,-0.0843,-0.1967,0.006,0.1305,0.1488,0.1493,0.1569,0.1804,0.1806,0.1795,0.1795,0.1341,0.1256,0.0,0.0,0.0,0.0,0.0,0.0,0.0,0.0,0.0,0.0,0.0,0.1085,0.1572,0.0,0.2485,0.307,0.349,0.3773,0.3836,0.3872,0.3537,0.2564,0.2464,0.2438,0.2438,0.2455,0.2436,0.2436,0.2127,0.194,0.194,0.1633,0.1483,0.1494,0.1494,0.1437,0.129,0.2141,0.2404,0.2103,0.2965,0.3267,0.3097,0.3097,0.3109,0.3165,0.3165,0.3144,0.3163,0.3163,0.3249,0.3358,0.2804,0.2813,0.3094,0.2903,0.2939,0.3055,0.3218,0.3363,0.351,0.3605,0.3638,0.3651,0.3622,0.3515,0.3361,0.3156,0.3207,0.3325,0.3149,0.3237,0.3296,0.3149,0.309,0.3067,0.2943,0.2888,0.2896,0.2949,0.2953,0.2953,0.2953,0.2955,0.2821,0.245,0.2533,0.2599,0.2412,0.1876,0.1543,0.1679,0.1096,0.0625,0.0476,0.027,0.0182,0.0246,0.0893,0.0952,0.0274,0.1633,0.2394,0.2356,0.2317,0.229,0.2245,0.2253,0.2244,0.2244,0.2076,0.1936,0.0,0.0,0.0,0.0,0.0,0.0,0.0,0.0134,0.0376,0.1231,0.1428,0.1656,0.2356,0.2504,0.2786,0.3662,0.3768,0.3781,0.3891,0.3919,0.393,0.3941,0.3904,0.3889,0.3889,0.3889,0.3892,0.3903,0.3905,0.3911,0.3953,0.3953,0.3974,0.402,0.402,0.3917,0.3705,0.3965,0.3841,0.3304,0.3592,0.3567,0.3319,0.3319,0.3373,0.3411,0.3411,0.343,0.343,0.343,0.357,0.3755,0.3428,0.3304,0.3255,0.3209,0.3209,0.3235,0.3455,0.358,0.3663,0.3852,0.3927,0.3926,0.3897,0.3908,0.3836,0.352,0.3626,0.3745,0.3477,0.3626,0.3747,0.349,0.3433,0.3388,0.3167,0.3108,0.3143,0.3182,0.3191,0.3191,0.3191,0.3408,0.3436,0.2983,0.2971,0.2983,0.2931,0.2905,0.295,0.2987,0.2991,0.2899,0.2621,0.2346,0.2191,0.2219,0.2467,0.2467,0.2219,0.2682,0.2889,0.2852,0.2844,0.2805,0.2733,0.2762,0.2756,0.2719,0.2464,0.2201,-0.1695,-0.1071,-0.0466,-0.0527,0.008,0.0934,0.0,0.199,0.2246,0.3119,0.3299,0.3342,0.3514,0.3525,0.3603,0.3758,0.3839,0.3894,0.3901,0.3953,0.4004,0.4058,0.398,0.3889,0.3889,0.3889,0.3911,0.3991,0.3993,0.4018,0.4072,0.4074,0.4077,0.4082,0.4082,0.4085,0.4029,0.4093,0.4088,0.4076,0.4109,0.4135,0.4152,0.4152,0.4158,0.4163,0.4163,0.4168,0.4174,0.4174,0.4173,0.415,0.4084,0.4013,0.3886,0.3621,0.3732,0.3978,0.401,0.4042,0.4032,0.4004,0.3988,0.3982,0.3926,0.3909,0.3876,0.384,0.3868,0.3868,0.3837,0.3868,0.3881,0.393,0.3912,0.3928,0.3954,0.3925,0.3891,0.3899,0.3899,0.3899,0.3899,0.393,0.3722,0.3077,0.3252,0.3316,0.3014,0.2985,0.2987,0.2991,0.2991,0.2991,0.296,0.2901,0.2404,0.1231,0.2281,0.2404,0.123,0.2337,0.2983,0.2977,0.297,0.2946,0.287,0.293,0.2939,0.287,0.284,0.2739,-0.1088,-0.0667,-0.0241,0.0243,0.0654,0.1183,0.2047,0.2246,0.2499,0.3413,0.3644,0.3677,0.3702,0.3735,0.3781,0.3842,0.3872,0.3924,0.3955,0.3988,0.4026,0.4085,0.405,0.402,0.402,0.402,0.4031,0.4053,0.4055,0.4066,0.4093,0.4093,0.4109,0.4145,0.4147,0.4164,0.4232,0.4232,0.4245,0.427,0.427,0.4283,0.4308,0.4308,0.4308,0.4308,0.4308,0.4308,0.4308,0.4308,0.4273,0.4182,0.4182,0.4109,0.3975,0.3873,0.3894,0.3993,0.3993,0.3993,0.3988,0.3963,0.3955,0.395,0.3895,0.3889,0.3889,0.3889,0.3889,0.3889,0.3889,0.3889,0.3895,0.395,0.3955,0.3961,0.3988,0.3972,0.3955,0.3955,0.3955,0.3966,0.3999,0.4004,0.3912,0.367,0.368,0.3671,0.3548,0.3517,0.3517,0.3517,0.3394,0.3363,0.3517,0.3209,0.2847,0.2465,0.2968,0.3043,0.2527,0.3228,0.3626,0.3592,0.3592,0.3536,0.3483,0.3512,0.3515,0.3463,0.3251,0.3216,-0.024,0.0108,0.0465,0.1099,0.1444,0.1822,0.2437,0.2614,0.2819,0.35,0.3688,0.3732,0.3732,0.3768,0.3814,0.3858,0.388,0.3932,0.3988,0.4018,0.4055,0.4134,0.4145,0.4145,0.4145,0.4112,0.4101,0.4118,0.4118,0.4126,0.4142,0.4145,0.4164,0.424,0.4243,0.4262,0.4308,0.4308,0.4308,0.4308,0.4308,0.4308,0.4308,0.4308,0.4308,0.4308,0.4308,0.4308,0.4308,0.4308,0.4273,0.4182,0.4182,0.412,0.4028,0.4028,0.3982,0.3892,0.3905,0.3903,0.3889,0.3889,0.3889,0.3889,0.3889,0.3889,0.3892,0.3908,0.3942,0.3947,0.3963,0.3969,0.3972,0.3988,0.3993,0.3996,0.4015,0.4004,0.3993,0.3993,0.4007,0.4031,0.4072,0.4093,0.4118,0.4161,0.4082,0.3999,0.395,0.3958,0.3974,0.3991,0.3805,0.3771,0.3962,0.3568,0.3421,0.3648,0.3651,0.37,0.3737,0.3965,0.4072,0.4028,0.4045,0.4026,0.3969,0.3973,0.3979,0.3963,0.3628,0.3632,0.0737,0.1421,0.2114,0.2147,0.2856,0.353,0.3558,0.3604,0.3676,0.3705,0.3754,0.3795,0.3795,0.3798,0.3801,0.3801,0.3853,0.3932,0.3988,0.4053,0.4134,0.4289,0.4303,0.4303,0.4303,0.4161,0.4118,0.4177,0.418,0.424,0.43,0.4303,0.4303,0.4305,0.4305,0.4305,0.4308,0.4308,0.4308,0.4308,0.4308,0.4308,0.4308,0.4308,0.4308,0.4308,0.4308,0.4308,0.4308,0.4308,0.4273,0.4182,0.4182,0.4145,0.4091,0.4091,0.4018,0.3897,0.3982,0.3966,0.3889,0.3889,0.3889,0.3889,0.3889,0.3889,0.39,0.3985,0.4001,0.4015,0.4072,0.4088,0.4104,0.4161,0.4174,0.4226,0.4283,0.4251,0.4174,0.4174,0.4256,0.4297,0.43,0.4349,0.4387,0.439,0.4338,0.4232,0.4023,0.4053,0.4109,0.4169,0.4174,0.4174,0.4174,0.4123,0.4056,0.4091,0.4091,0.4091,0.4093,0.4093,0.4093,0.4091,0.4147,0.4147,0.4088,0.4145,0.4142,0.4082,0.4023,0.3996,0.2093,0.2276,0.2416,0.2985,0.339,0.3677,0.3677,0.3724,0.3768,0.3768,0.4142,0.4336,0.3948,0.4219,0.437,0.3949,0.3877,0.4268,0.5375,0.5738,0.63,0.7346,0.7664,0.7826,0.7826,0.5657,0.4618,0.5601,0.5667,0.6111,0.7107,0.714,0.714,0.714,0.7374,0.7374,0.714,0.7374,0.7474,0.7474,0.7474,0.7474,0.7474,0.724,0.7403,0.7797,0.7336,0.7403,0.7797,0.7569,0.7612,0.7771,0.7549,0.7552,0.7654,0.7472,0.7458,0.7214,0.4881,0.405,0.4034,0.4034,0.4034,0.4028,0.3988,0.4599,0.5102,0.425,0.463,0.515,0.4301,0.4123,0.4158,0.418,0.4248,0.427,0.4251,0.4232,0.4172,0.4131,0.4139,0.4166,0.424,0.4264,0.4278,0.4278,0.4294,0.4286,0.4224,0.4234,0.4253,0.4275,0.424,0.4182,0.4182,0.4128,0.4109,0.415,0.4153,0.4172,0.4245,0.4245,0.4245,0.4245,0.4267,0.4267,0.4245,0.4226,0.4174,0.4153,0.4131,0.4123,0.3663,0.3642,0.357,0.4164,0.4379,0.4402,0.4402,0.4461,0.4453,0.4216,0.4717,0.501,0.4373,0.5106,0.5448,0.4438,0.4561,0.5198,0.6305,0.6682,0.7426,0.9065,0.9453,0.9612,0.9612,0.7531,0.6569,0.7469,0.7536,0.7969,0.89,0.8967,0.8967,0.8967,0.916,0.916,0.8967,0.916,0.9293,0.9293,0.9293,0.9293,0.926,0.9061,0.9193,0.9579,0.916,0.9193,0.9579,0.9359,0.9449,0.9685,0.9464,0.954,0.9715,0.9567,0.9588,0.9294,0.648,0.5501,0.5454,0.5092,0.5004,0.4995,0.4949,0.5544,0.6033,0.5192,0.5587,0.6061,0.5261,0.5082,0.5117,0.5117,0.5153,0.5166,0.5061,0.5045,0.5026,0.4955,0.4926,0.4958,0.5005,0.4833,0.4613,0.4344,0.4362,0.4371,0.4286,0.4294,0.4316,0.4338,0.4305,0.4281,0.4281,0.4226,0.4182,0.4278,0.4281,0.4308,0.4368,0.4371,0.4371,0.4371,0.4371,0.4371,0.4371,0.433,0.4311,0.4311,0.4292,0.4281,0.5306,0.5422,0.5518,0.5577,0.5644,0.571,0.571,0.575,0.5636,0.4975,0.5426,0.5755,0.5141,0.6364,0.6945,0.5352,0.5908,0.6651,0.7001,0.7065,0.7753,0.9615,0.9844,0.9877,0.9877,0.9877,0.9877,0.9877,0.9778,0.9745,0.9811,0.9811,0.9811,0.9811,0.9844,0.9844,0.9811,0.9844,0.9844,0.9811,0.9844,0.9844,0.9844,0.9811,0.985,0.9889,0.9856,0.9863,0.9902,0.9902,1.0017,1.0204,1.0171,1.028,1.0464,1.0464,1.0464,1.0288,0.8901,0.8287,0.7951,0.706,0.679,0.679,0.6786,0.6819,0.687,0.6893,0.6919,0.6979,0.697,0.6965,0.6965,0.6899,0.6899,0.6844,0.6649,0.6628,0.657,0.645,0.6465,0.6526,0.653,0.6045,0.5432,0.4736,0.4681,0.4596,0.4264,0.4289,0.4349,0.4406,0.4409,0.4409,0.4409,0.4352,0.4341,0.4398,0.4403,0.4425,0.448,0.4517,0.4517,0.4517,0.4517,0.4517,0.4517,0.4517,0.4552,0.4619,0.4569,0.4578,0.6042,0.5851,0.564,0.566,0.5739,0.5775,0.5775,0.5814,0.5815,0.5662,0.6167,0.6674,0.6761,0.7464,0.8014,0.782,0.8136,0.8839,1.0057,1.0554,1.1411,1.298,1.3399,1.3563,1.3563,1.3563,1.3563,1.3563,1.2109,1.1706,1.2742,1.2808,1.2808,1.2808,1.3038,1.307,1.2808,1.3038,1.3038,1.2808,1.307,1.3169,1.3169,1.2906,1.3178,1.3736,1.3244,1.3419,1.406,1.3747,1.3849,1.4129,1.3823,1.3917,1.4198,1.3891,1.3959,1.407,1.3014,1.133,0.9603,0.9359,0.9268,0.9285,0.9267,0.9945,1.0497,0.9583,1.0001,1.0507,0.9578,0.9364,0.9192,0.8323,0.8175,0.7955,0.7014,0.6817,0.6793,0.6702,0.6791,0.6913,0.7019,0.6812,0.663,0.6514,0.6452,0.5934,0.4666,0.4572,0.4613,0.463,0.4591,0.4564,0.4564,0.4471,0.4444,0.4461,0.4461,0.4469,0.4482,0.4517,0.4517,0.4517,0.4517,0.4517,0.4517,0.4517,0.5073,0.6221,0.6231,0.6884,0.6875,0.6735,0.6591,0.6591,0.6642,0.6717,0.6717,0.7058,0.7317,0.7006,0.7831,0.8593,0.8471,0.9323,0.9839,0.931,0.971,1.0424,1.1477,1.1877,1.2708,1.4437,1.48,1.4898,1.4898,1.4898,1.4898,1.4898,1.3833,1.3506,1.431,1.4342,1.4342,1.4342,1.4506,1.4539,1.4342,1.4539,1.4539,1.4342,1.4622,1.4767,1.4734,1.4693,1.4894,1.5342,1.4981,1.5113,1.5589,1.5351,1.5441,1.5721,1.5481,1.5572,1.5829,1.5621,1.5656,1.5778,1.5262,1.4089,1.2657,1.1643,1.1293,1.1314,1.1309,1.1802,1.2224,1.149,1.1802,1.2204,1.1482,1.1325,1.1173,1.054,1.006,0.9521,0.8852,0.8305,0.7933,0.7908,0.7945,0.7935,0.7666,0.7594,0.7419,0.7145,0.7134,0.6777,0.5803,0.5699,0.5692,0.5623,0.5583,0.5556,0.5556,0.5519,0.5509,0.5542,0.5542,0.5559,0.5593,0.5593,0.5593,0.5593,0.5237,0.5059,0.5059,0.5059,0.5767,0.711,0.7518,0.8433,0.7665,0.7725,0.7725,0.7725,0.7917,0.8086,0.8086,0.8818,0.9335,0.8751,0.9785,1.0664,1.0203,1.1261,1.1782,1.0528,1.1065,1.1798,1.216,1.2233,1.2912,1.4688,1.4898,1.4898,1.4898,1.4898,1.4898,1.4898,1.4898,1.4898,1.4898,1.4898,1.4898,1.4898,1.4898,1.4898,1.4898,1.4898,1.4908,1.4946,1.5115,1.521,1.5247,1.547,1.5608,1.5636,1.5636,1.5646,1.5674,1.5674,1.5778,1.5939,1.5939,1.6053,1.6178,1.6178,1.6178,1.6178,1.6178,1.6178,1.586,1.3825,1.3146,1.3146,1.3146,1.3146,1.3146,1.3146,1.3146,1.3182,1.3205,1.3213,1.3177,1.3056,1.2273,1.1516,1.1335,1.054,0.9858,0.9839,0.9736,0.9414,0.8805,0.854,0.8174,0.7477,0.7518,0.7588,0.7473,0.721,0.6983,0.6869,0.6861,0.6852,0.684,0.684,0.6869,0.6903,0.6908,0.6945,0.6986,0.699,0.699,0.699,0.6478,0.6188,0.6188,0.633,0.7014,0.8198,0.892,0.9898,0.7859,0.787,0.787,0.787,0.8465,0.9062,0.9062,0.9822,1.052,1.0391,1.0604,1.0997,1.1661,1.2023,1.2384,1.2925,1.332,1.3603,1.3863,1.4047,1.4304,1.4838,1.4898,1.4898,1.4898,1.4898,1.4898,1.4898,1.4898,1.4898,1.4898,1.4898,1.4898,1.4898,1.4898,1.4898,1.4898,1.4898,1.4983,1.5144,1.5181,1.5328,1.5541,1.5579,1.5684,1.5845,1.5845,1.5939,1.611,1.611,1.6129,1.6157,1.6157,1.6185,1.6178,1.6178,1.6178,1.6178,1.6178,1.6178,1.6143,1.5718,1.5576,1.5576,1.5576,1.5576,1.5576,1.5576,1.5576,1.5648,1.5803,1.5849,1.5632,1.488,1.4547,1.4143,1.3192,1.2823,1.2711,1.2758,1.1961,1.129,1.1256,1.0302,0.9472,0.9338,0.9296,0.9292,0.9233,0.809,0.7253,0.7199,0.7199,0.7203,0.7125,0.7121,0.7096,0.7006,0.6966,0.6974,0.699,0.699,0.699,0.699,0.7774,0.8198,0.8198,0.9131,1.0353,1.1794,1.1937,1.2913,0.8984,0.9274,0.9439,0.8884,0.9418,1.0095,1.0095,1.0815,1.1541,1.1541,1.1933,1.2453,1.2904,1.2994,1.3144,1.3633,1.3778,1.3948,1.427,1.437,1.455,1.4861,1.4898,1.4898,1.4898,1.4898,1.4898,1.4898,1.4898,1.4898,1.4898,1.4898,1.4898,1.4898,1.4898,1.4946,1.5059,1.5059,1.5162,1.5404,1.5508,1.5611,1.575,1.5863,1.5968,1.6062,1.6062,1.6119,1.6178,1.6178,1.6178,1.6178,1.6178,1.6178,1.6178,1.6178,1.6178,1.6197,1.6301,1.6375,1.6358,1.6471,1.6424,1.6375,1.6375,1.6415,1.6509,1.6509,1.6509,1.6528,1.6623,1.6651,1.6524,1.6103,1.5574,1.4898,1.3701,1.3402,1.3244,1.2667,1.2014,1.1384,1.0852,1.0209,0.9726,0.9666,0.9666,0.9709,0.9709,0.9074,0.8592,0.8539,0.8535,0.8553,0.85,0.9085,0.9133,0.8464,0.9634,1.0033,0.9371,0.9996,1.0327,1.0327,1.0462,1.0529,1.0529,1.1078,1.2029,1.334,1.3748,1.4723,1.0258,1.0686,1.0893,0.9992,1.0476,1.1164,1.1095,1.1875,1.2556,1.2513,1.3144,1.3693,1.3693,1.3693,1.3693,1.3693,1.3693,1.3825,1.4194,1.4279,1.4418,1.4795,1.487,1.4898,1.4898,1.4898,1.4898,1.4898,1.4936,1.4946,1.4898,1.4898,1.4917,1.4964,1.4964,1.5059,1.5266,1.53,1.5413,1.5655,1.5816,1.592,1.5968,1.6138,1.6178,1.6178,1.6178,1.6178,1.6178,1.6178,1.6178,1.6178,1.6178,1.6242,1.6245,1.6245,1.6273,1.6339,1.65,1.6547,1.6575,1.6745,1.6689,1.6547,1.6547,1.667,1.6802,1.6802,1.6802,1.6812,1.6859,1.6868,1.6878,1.6925,1.631,1.5505,1.4551,1.4263,1.3937,1.3022,1.248,1.1891,1.1008,1.0597,1.0418,1.0312,1.0383,1.0459,1.0526,1.0577,1.0568,1.0579,1.0347,1.026,1.0494,1.1383,1.152,1.0565,1.2314,1.294,1.1935,1.2866,1.3393,1.3393,1.3007,1.2814,1.2814,1.3074,1.3667,1.4547,1.5155,1.5964,1.1234,1.1134,1.1017,1.0753,1.1516,1.2314,1.2117,1.2986,1.3768,1.3611,1.3624,1.3693,1.3693,1.3693,1.3693,1.3693,1.3693,1.3769,1.4005,1.4163,1.437,1.4606,1.4795,1.4898,1.4898,1.4898,1.4898,1.4898,1.5068,1.5087,1.4908,1.4898,1.4983,1.5162,1.5172,1.5309,1.556,1.556,1.5665,1.5863,1.5882,1.5996,1.615,1.6169,1.6178,1.6178,1.6178,1.6178,1.6178,1.6178,1.6178,1.6178,1.6178,1.6292,1.6453,1.6453,1.6575,1.6745,1.6764,1.6774,1.6774,1.6793,1.6793,1.6774,1.6774,1.6793,1.6802,1.6802,1.6802,1.6849,1.7029,1.7076,1.7123,1.7284,1.7274,1.7169,1.7093,1.6897,1.673,1.6609,1.5552,1.4638,1.4527,1.3564,1.2784,1.2844,1.2851,1.2954,1.313,1.3159,1.3186,1.3317,1.2338,1.2093,1.3083,1.3257,1.3244,1.3066,1.3282,1.3356,1.3245,1.3356,1.3393,1.3393,1.435,1.4822,1.4831,1.5873,1.6425,1.6545,1.6618,1.6786,1.2596,1.2751,1.2878,1.2294,1.2939,1.3807,1.3854,1.4449,1.4941,1.4868,1.4848,1.4848,1.4848,1.4848,1.4848,1.4848,1.452,1.433,1.4557,1.4327,1.4229,1.4559,1.5058,1.5445,1.5541,1.6052,1.6458,1.6635,1.6727,1.6737,1.6645,1.5811,1.5347,1.5422,1.5432,1.556,1.5769,1.5778,1.5882,1.6091,1.6091,1.6129,1.6178,1.6178,1.6178,1.6178,1.6178,1.6178,1.6178,1.6178,1.6178,1.6197,1.6311,1.6451,1.65,1.6632,1.6727,1.6821,1.6944,1.6982,1.701,1.7133,1.718,1.7152,1.702,1.7076,1.718,1.718,1.718,1.7199,1.7275,1.7294,1.7284,1.7369,1.7388,1.7388,1.7388,1.7256,1.6917,1.6205,1.5515,1.4831,1.4165,1.3609,1.3274,1.3312,1.3312,1.3372,1.3491,1.3506,1.3839,1.4736,1.3722,1.3161,1.3587,1.4305,1.4433,1.3649,1.4976,1.5467,1.4741,1.5319,1.5633,1.5633,1.608,1.6303,1.6303,1.6889,1.718,1.7171,1.7048,1.7029,1.3933,1.4079,1.4203,1.3411,1.3998,1.4801,1.4872,1.5283,1.5677,1.5612,1.5601,1.5601,1.5601,1.5601,1.5601,1.5601,1.5205,1.4959,1.5164,1.4821,1.4664,1.4937,1.5509,1.5979,1.6268,1.7051,1.7628,1.7876,1.7898,1.792,1.7961,1.7005,1.6392,1.6333,1.6333,1.6432,1.6639,1.6639,1.6728,1.684,1.684,1.684,1.684,1.684,1.684,1.684,1.684,1.688,1.6984,1.6984,1.7023,1.7092,1.724,1.7329,1.7408,1.7566,1.7628,1.7706,1.7854,1.7903,1.7933,1.8052,1.8101,1.8072,1.7952,1.7681,1.7388,1.7388,1.7388,1.7388,1.7388,1.7388,1.7388,1.7388,1.7388,1.7388,1.7388,1.7256,1.6843,1.6055,1.5747,1.5348,1.4543,1.4395,1.4448,1.4497,1.4505,1.4533,1.4627,1.4651,1.5042,1.6015,1.5335,1.4798,1.4798,1.5612,1.5765,1.4837,1.6424,1.7035,1.6186,1.6821,1.7199,1.7199,1.7199,1.7199,1.7199,1.7284,1.7293,1.7322,1.7114,1.7122,1.5074,1.4786,1.4446,1.3854,1.4485,1.5175,1.47,1.5283,1.584,1.5645,1.5601,1.5601,1.5601,1.5601,1.5601,1.5601,1.5601,1.5601,1.5601,1.5765,1.5885,1.5885,1.6069,1.6401,1.6926,1.7476,1.7887,1.808,1.8101,1.8164,1.839,1.8366,1.8258,1.8067,1.8067,1.8175,1.8366,1.8366,1.8377,1.8377,1.8377,1.8377,1.8377,1.8377,1.8377,1.8377,1.8377,1.8516,1.8778,1.8778,1.8918,1.9159,1.9159,1.9299,1.9467,1.9467,1.958,1.9757,1.9757,1.9757,1.9757,1.9757,1.9768,1.9768,1.9757,1.8671,1.7388,1.7388,1.7388,1.7388,1.7388,1.7388,1.7388,1.7388,1.7388,1.7388,1.7388,1.7256,1.7105,1.7067,1.6907,1.6765,1.6765,1.6765,1.6831,1.7029,1.7058,1.7143,1.7321,1.735,1.7388,1.7388,1.7388,1.735,1.735,1.7388,1.7388,1.735,1.7388,1.7388,1.7388,1.7388,1.7388,1.7388,1.7388,1.7388,1.7388,1.7209,1.7105,1.7105,1.6906,1.7243,1.5947,1.5659,1.5474,1.5422,1.5764,1.6106,1.6117,1.6559,1.6984,1.6914,1.6891,1.6891,1.6891,1.6891,1.6949,1.7154,1.6788,1.6556,1.6743,1.6466,1.6363,1.6698,1.7454,1.8223,1.8911,1.9304,1.9608,1.9865,1.9877,1.9912,1.9959,1.9959,1.9472,1.8339,1.8304,1.8336,1.8412,1.8412,1.8412,1.8412,1.8412,1.8412,1.8412,1.8412,1.8509,1.8659,1.8659,1.8835,1.9062,1.9062,1.9141,1.9217,1.9342,1.945,1.9525,1.9661,1.9731,1.9806,1.9806,1.9806,1.9806,1.9806,1.9806,1.9806,1.9806,1.9428,1.905,1.905,1.8633,1.8357,1.8898,1.8215,1.754,1.8101,1.7797,1.7388,1.7388,1.7331,1.7322,1.7322,1.7237,1.719,1.719,1.719,1.7218,1.7312,1.7322,1.7312,1.7378,1.7388,1.7388,1.7388,1.7388,1.7388,1.7388,1.7388,1.7388,1.7388,1.7388,1.7388,1.7388,1.7284,1.7209,1.7209,1.7209,1.7209,1.7209,1.7803,1.8248,1.8461,1.8207,1.8238,1.6445,1.6176,1.6014,1.5982,1.6304,1.6626,1.6683,1.7114,1.7508,1.7508,1.7508,1.7508,1.7508,1.7508,1.7593,1.7859,1.7547,1.7358,1.7657,1.768,1.7921,1.8616,1.9605,2.0426,2.0866,2.0789,2.0879,2.1252,2.081,2.0603,2.07,2.07,2.0272,1.9297,1.9251,1.9251,1.9251,1.9251,1.9251,1.9251,1.9251,1.9251,1.9262,1.9387,1.9511,1.968,1.977,1.9962,0.0,2.0224,2.0281,2.0371,2.0529,2.0549,2.056,2.0692,2.0748,2.0748,2.0748,2.0692,2.0613,2.0613,2.0613,2.0613,2.0613,2.0219,1.9806,1.9806,1.9455,1.9153,1.9682,1.905,1.8443,1.8926,1.8671,1.8291,1.8291,1.8291,1.8291,1.8291,1.8291,1.8271,1.8192,1.8135,1.8105,1.8016,1.8006,1.8006,1.8006,1.8085,1.8135,1.8135,1.8242,1.8291,1.8291,1.7769,1.7388,1.7388,1.7388,1.7388,1.7388,1.7558,1.767,1.767,1.797,1.812,1.812,1.8659,1.9016,1.9122,1.8982,1.9105,0.0,1.6428,1.6212,1.5829,1.6291,1.6811,1.6612,1.7038,0.0,1.7508,1.7508,1.7508,1.7508,1.7508,1.7593,1.7859,1.7967,1.8094,1.8398,1.9318,2.0324,2.1208,2.2083,2.2584,2.2446,2.1836,2.1644,2.2129,2.1006,2.0446,2.0688,2.07,2.07,2.07,2.07,2.07,2.07,2.07,2.0712,2.0736,2.0736,2.0736,2.0773,2.1015,2.1135,2.1172,2.1426,2.1692,2.1933,2.1933,2.2079,2.2296,2.2296,2.2296,2.2296,2.2296,2.2296,2.2296,2.2272,2.2115,2.1909,2.1909,2.1921,2.1933,2.1933,2.1015,1.9995,1.9995,1.9919,1.9919,1.9957,1.9881,1.9806,1.9881,1.9844,1.9806,1.9806,1.9806,1.9806,1.9806,1.9806,1.9731,1.9479,1.9425,1.9302,1.9067,1.9024,1.9002,1.9002,1.9227,1.9414,1.9414,1.9629,1.9806,1.9806,1.8443,1.7578,1.7578,1.7578,1.7578,1.7578,1.8291,1.8699,1.8699,1.9418,1.9844,1.9871,1.9671,1.9517,1.9373,1.9362,1.9873,1.7303,0.0,1.7161,1.7073,1.7203,1.7315,0.0,1.7391,1.7508,1.7508,1.7508,1.7508,1.7508,1.7508,1.7593,1.7859,1.8494,1.915,1.9681,2.0967,2.178,2.1555,2.231,2.2364,2.1115,2.1411,2.147,2.0829,2.0668,2.064,2.07,2.07,2.07,2.07,2.07,2.07,2.07,2.07,2.0809,2.1002,2.1002,2.1111,2.1329,2.1389,2.1522,2.1716,2.1788,2.1958,2.2212,2.2212,2.2248,2.2296,2.2296,2.2296,2.2296,2.2296,2.2296,2.2272,2.2066,2.1958,2.1909,2.1909,2.2042,2.2212,2.2212,2.1987,2.1686,2.1686,2.1236,2.0887,2.1536,2.0748,1.9957,2.0586,2.0248,1.9806,1.9806,1.9806,1.9806,1.9806,1.9806,1.9784,1.9731,1.9532,1.9393,1.9302,1.9131,1.9002,1.9002,1.9227,1.9414,1.9414,1.9629,1.9806,1.9806,1.9466,1.9239,1.9239,1.9239,1.9239,1.9239,1.9418,1.9531,1.9531,1.9682,2.0097,2.0737,2.0526,2.0711,2.1252,2.1051,2.1113,1.7508,1.7605,1.7689,1.7689,1.7689,1.7689,1.7689,1.7605,1.7508,1.7508,1.7508,1.7625,1.8064,1.8252,1.8606,1.9305,1.996,2.073,2.1627,2.2605,2.324,2.321,2.3758,2.3801,2.2912,2.2859,2.2739,2.2479,2.2146,2.203,2.216,2.2173,2.1932,2.1449,2.1415,2.122,2.07,2.0821,2.0954,2.1099,2.1232,2.1365,2.1486,2.1643,2.1776,2.1909,2.203,2.2163,2.2296,2.2296,2.2296,2.2296,2.2296,2.2224,2.2115,2.2115,2.2042,2.1921,2.1776,2.1728,2.1728,2.1728,2.1909,2.2115,2.2115,2.2199,2.2296,2.2296,2.1948,2.1723,2.2184,2.1623,2.1048,2.1499,2.1274,2.0936,2.0936,2.0936,2.0936,2.0936,2.0936,2.0902,2.0788,2.0652,2.049,2.0377,2.0241,2.015,2.015,2.0377,2.0535,2.0535,2.0788,2.0936,2.0936,2.0936,2.0635,1.9844,1.9806,1.9806,1.9806,2.0135,2.0549,2.0936,2.0936,2.1161,2.1611,2.147,2.1671,2.2079,2.1933,2.1873,1.7508,1.7702,1.7895,1.7859,1.7847,1.7847,1.7847,1.7677,1.7508,1.7508,1.7596,1.796,1.8816,1.9318,1.9969,2.1048,2.1615,2.2373,2.3592,2.4049,2.4453,2.4979,2.531,2.5438,2.5235,2.4527,2.4257,2.4671,2.3933,2.3602,2.389,2.3918,2.342,2.241,2.2375,2.1883,2.0833,2.1002,2.1135,2.122,2.1462,2.1595,2.1643,2.1861,2.197,2.1982,2.2199,2.2296,2.2296,2.2296,2.2272,2.2236,2.2236,2.2079,2.1849,2.1849,2.1728,2.1571,2.1571,2.1571,2.1571,2.1571,2.1752,2.197,2.197,2.2127,2.2296,2.2296,2.2296,2.2296,2.2296,2.2296,2.2296,2.2296,2.2296,2.2284,2.2248,2.2272,2.2284,2.2248,2.2272,2.2224,2.2006,2.1933,2.1837,2.1607,2.1547,2.151,2.151,2.174,2.1909,2.1909,2.2139,2.2296,2.2296,2.2296,2.1698,2.0259,2.0183,2.0183,2.0183,2.0849,2.1562,2.2296,2.2296,2.2296,2.2296,2.2296,2.2296,2.2296,2.2296,2.2296,1.7508,1.7702,1.7847,1.7629,1.7569,1.7569,1.7569,1.7544,1.7508,1.7508,1.8123,1.8813,1.9223,2.0012,2.0757,2.1214,2.2222,2.3323,2.431,2.4746,2.4871,2.4706,2.4976,2.4733,2.3596,2.3799,2.3831,2.3332,2.3369,2.3549,2.389,2.3918,2.3516,2.2662,2.2627,2.223,2.1389,2.1196,2.1329,2.1788,2.1825,2.1958,2.2175,2.2224,2.2236,2.2236,2.2284,2.2296,2.2296,2.2296,2.2163,2.197,2.197,2.18,2.1571,2.1571,2.1692,2.1849,2.1849,2.1849,2.1849,2.1849,2.203,2.2236,2.2236,2.2272,2.2296,2.2296,2.2296,2.2296,2.2296,2.2296,2.2296,2.2296,2.2296,2.2236,2.2018,2.2139,2.2236,2.2006,2.2139,2.2284,2.2248,2.2054,2.1897,2.1849,2.1655,2.151,2.151,2.174,2.1909,2.1909,2.2139,2.2296,2.2296,2.2296,2.2184,2.1922,2.1922,2.1922,2.1922,2.2035,2.2147,2.2296,2.2296,2.2296,2.2296,2.2296,2.2296,2.2296,2.2296,2.2296,1.7274,1.7496,1.7702,1.7714,1.7835,1.7962,1.8125,1.8052,1.7877,1.7762,1.8052,1.8728,1.9924,2.0666,2.1559,2.3096,2.3841,2.4377,2.4804,2.5008,2.504,2.4881,2.5008,2.4855,2.4224,2.4796,2.5068,2.4737,2.5186,2.5513,2.5663,2.5266,2.459,2.36,2.3117,2.2535,2.1728,2.1595,2.1655,2.1909,2.2054,2.2175,2.2296,2.2296,2.2296,2.2296,2.2296,2.2296,2.2284,2.2139,2.2018,2.1897,2.1752,2.1619,2.1534,2.168,2.1897,2.2139,2.2284,2.2332,2.2357,2.249,2.2623,2.2719,2.2719,2.2719,2.2719,2.2719,2.2514,2.2296,2.2296,2.2296,2.226,2.2115,2.2199,2.2224,2.1958,2.2115,2.226,2.2139,2.2212,2.2296,2.2296,2.2199,2.2115,2.2115,2.2018,2.1933,2.1933,2.2042,2.2115,2.2115,2.2224,2.2296,2.2296,2.2296,2.2296,2.2296,2.2296,2.2296,2.2296,2.2296,2.2296,2.2296,2.2296,2.2296,2.2296,2.2296,2.2296,2.2296,2.2296,2.2296,1.7165,1.7392,1.7669,1.7966,1.8088,1.8191,1.8517,1.8692,1.866,1.8209,1.8851,1.9807,2.0914,2.1721,2.2885,2.4977,2.5195,2.5103,2.5103,2.5103,2.5103,2.5103,2.5103,2.5103,2.5103,2.577,2.6248,2.6295,2.693,2.7359,2.7439,2.6861,2.6032,2.4959,2.4339,2.3501,2.2387,2.2399,2.2252,2.2006,2.2199,2.2296,2.2296,2.2296,2.2296,2.2296,2.2296,2.2296,2.2284,2.2079,2.1958,2.1897,2.1752,2.1704,2.1728,2.1994,2.2212,2.2429,2.2695,2.278,2.2816,2.3022,2.3082,2.3082,2.3082,2.3082,2.3082,2.3082,2.2792,2.2478,2.2478,2.2478,2.2429,2.2236,2.2332,2.2405,2.2151,2.2296,2.2465,2.2405,2.2441,2.2478,2.2478,2.2478,2.2478,2.2478,2.2478,2.2478,2.2478,2.2478,2.2478,2.2478,2.2429,2.2369,2.2308,2.2296,2.2296,2.2296,2.2296,2.2296,2.2296,2.2296,2.2296,2.2296,2.2296,2.2296,2.2296,2.2296,2.2296,2.2296,2.2296,2.2296,1.7382,1.7713,1.8034,1.8307,1.7958,1.7672,1.8203,1.9322,1.9942,1.8935,2.1619,2.37,2.2354,2.3596,2.507,2.5914,2.5502,2.5103,2.5103,2.5103,2.5103,2.5103,2.5103,2.5103,2.5103,2.577,2.6311,2.6645,2.7296,2.7786,2.8103,2.8066,2.7668,2.681,2.6748,2.5782,2.3868,2.3868,2.3326,2.2272,2.2284,2.2296,2.2296,2.2296,2.2296,2.2296,2.2296,2.2296,2.2296,2.2284,2.2127,2.1933,2.2151,2.2248,2.2272,2.2538,2.2647,2.2695,2.2961,2.3058,2.3058,2.307,2.3082,2.3082,2.3082,2.3082,2.3082,2.3082,2.3058,2.3022,2.3022,2.3022,2.306,2.3036,2.301,2.2949,2.2695,2.284,2.2949,2.2707,2.2864,2.3022,2.3022,2.3022,2.3022,2.3022,2.3022,2.3022,2.3022,2.3022,2.3022,2.3022,2.2804,2.2562,2.232,2.2296,2.2296,2.2296,2.2296,2.2296,2.2296,2.2296,2.2296,2.2296,2.2296,2.2296,2.2296,2.2296,2.2296,2.2296,2.2296,2.2296,1.779,1.8181,1.8559,1.863,1.852,1.8506,1.9038,1.9599,2.0086,2.0516,2.1767,2.3037,2.3837,2.5228,2.6358,2.6631,2.6449,2.6266,2.6266,2.6496,2.666,2.666,2.6923,2.7188,2.7438,2.789,2.8145,2.8063,2.8485,2.8587,2.8217,2.7726,2.7297,2.7006,2.6517,2.5536,2.4005,2.4005,2.3426,2.2296,2.2296,2.2296,2.2296,2.2296,2.2296,2.2296,2.2296,2.2296,2.2284,2.2127,2.2091,2.2175,2.2441,2.2647,2.2816,2.3056,2.3249,2.3406,2.3502,2.3538,2.3538,2.3538,2.3538,2.3538,2.3538,2.3538,2.3538,2.3538,2.3538,2.3466,2.3167,2.3082,2.3072,2.2877,2.2961,2.3048,2.2744,2.2901,2.3058,2.2949,2.301,2.3082,2.3082,2.3082,2.3082,2.3082,2.3082,2.3082,2.3082,2.3082,2.3082,2.3082,2.2997,2.2889,2.2792,2.278,2.2719,2.255,2.2393,2.2296,2.2296,2.2296,2.2296,2.2296,2.2296,2.2296,2.2296,2.2296,2.2296,2.2296,2.2296,2.2408,1.8224,1.863,1.9039,1.9099,1.915,1.9438,2.0411,2.0804,2.1146,2.1849,2.2452,2.3581,2.5907,2.6598,2.6919,2.725,2.7249,2.7196,2.7196,2.7552,2.7823,2.7823,2.8109,2.8415,2.8673,2.9208,2.9441,2.9245,2.9763,2.9856,2.9284,2.8592,2.8188,2.8084,2.7188,2.6024,2.4596,2.4301,2.3537,2.2296,2.2296,2.2296,2.2296,2.2296,2.2296,2.2296,2.2296,2.2345,2.2405,2.2224,2.2357,2.2657,2.2838,2.3068,2.336,2.3463,2.3655,2.38,2.38,2.38,2.38,2.38,2.38,2.38,2.38,2.38,2.38,2.38,2.38,2.3716,2.3393,2.3336,2.3288,2.3068,2.3203,2.3288,2.3106,2.3203,2.3336,2.3336,2.3336,2.3336,2.3336,2.3336,2.3336,2.3336,2.3336,2.3336,2.3336,2.3336,2.33,2.3176,2.3176,2.3179,2.3133,2.301,2.2889,2.2695,2.2441,2.2296,2.2296,2.2296,2.2296,2.2296,2.2296,2.2296,2.2296,2.2296,2.2371,2.2483,2.2483,2.2669,1.8741,1.9103,1.9376,1.972,1.9817,2.0305,2.2174,2.3171,2.3484,2.2775,2.4131,2.6172,2.8575,2.7611,2.6789,2.7847,2.7791,2.7604,2.7604,2.804,2.8326,2.8326,2.8343,2.8343,2.8343,2.9311,2.9948,2.9948,3.096,3.1595,3.1595,3.1182,3.0746,3.0428,2.9286,2.7763,2.5831,2.5001,2.3833,2.2296,2.2296,2.2296,2.2296,2.2296,2.2296,2.2296,2.2296,2.2453,2.2695,2.2695,2.2971,2.3414,2.3414,2.3571,2.38,2.38,2.38,2.38,2.38,2.38,2.38,2.3812,2.3812,2.3812,2.3812,2.3812,2.3812,2.3812,2.3812,2.38,2.38,2.38,2.38,2.38,2.38,2.38,2.38,2.38,2.38,2.38,2.38,2.38,2.38,2.38,2.38,2.38,2.38,2.38,2.38,2.38,2.3704,2.3439,2.3414,2.3306,2.3106,2.284,2.2695,2.2695,2.2441,2.2296,2.2296,2.2296,2.2296,2.2296,2.2296,2.2296,2.2296,2.2296,2.252,2.2893,2.2893,2.3079,1.9242,1.9579,1.9916,1.981,2.0794,2.1906,2.2489,2.2779,2.3429,2.531,2.6889,2.8247,2.9233,2.8986,2.8859,2.9458,2.9467,2.9416,2.9416,2.9789,3.0072,3.0072,3.0559,3.1009,3.1297,3.1859,3.2106,3.1893,3.2193,3.2158,3.163,3.1456,3.1334,3.1241,2.9583,2.8013,2.6583,2.4987,2.3537,2.2296,2.2296,2.2296,2.2296,2.2296,2.2405,2.2574,2.2574,2.2719,2.2985,2.314,2.327,2.3439,2.3619,2.374,2.38,2.38,2.38,2.38,2.38,2.38,2.3836,2.4017,2.4077,2.4113,2.4294,2.4222,2.4077,2.4077,2.3945,2.38,2.38,2.38,2.38,2.38,2.38,2.3752,2.3571,2.368,2.3752,2.3571,2.368,2.374,2.3559,2.368,2.374,2.3559,2.3535,2.3535,2.3535,2.3692,2.3704,2.3439,2.3414,2.3306,2.3106,2.3048,2.2889,2.2707,2.2623,2.249,2.2308,2.2296,2.2296,2.2296,2.2296,2.2446,2.2707,2.2707,2.2893,2.3265,2.3265,2.3451,1.9896,2.0147,2.051,2.0989,2.1872,2.2897,2.4084,2.4358,2.5046,2.7522,2.8529,2.9188,2.9709,2.9721,2.9739,3.013,3.0332,3.0442,3.0442,3.0772,3.1029,3.1029,3.1598,3.2093,3.2331,3.2881,3.3116,3.2921,3.3048,3.2928,3.2509,3.2333,3.2175,3.2052,3.042,2.9091,2.8068,2.5977,2.4485,2.3648,2.3142,2.2942,2.2904,2.2604,2.2538,2.2707,2.2913,2.3056,2.3225,2.3463,2.3571,2.3583,2.374,2.38,2.38,2.38,2.38,2.38,2.38,2.3872,2.3981,2.4138,2.4198,2.4222,2.4379,2.4246,2.4041,2.4041,2.3921,2.38,2.38,2.38,2.38,2.38,2.38,2.3764,2.3607,2.3692,2.3764,2.3595,2.3692,2.3752,2.3595,2.3704,2.3752,2.3595,2.3475,2.3414,2.3414,2.3451,2.3466,2.3309,2.3285,2.3225,2.3094,2.2985,2.2864,2.2695,2.2586,2.2465,2.2308,2.2446,2.252,2.252,2.2669,2.2905,2.3317,2.3317,2.3467,2.3841,2.3841,2.3963,2.0525,2.0686,2.1076,2.2649,2.3058,2.3779,2.6594,2.7272,2.7726,2.9277,2.9354,2.9324,3.0112,2.9978,2.9849,3.0241,3.0607,3.0846,3.0846,3.1189,3.141,3.141,3.1781,3.2056,3.2056,3.2774,3.3251,3.3251,3.358,3.3817,3.3817,3.3434,3.3122,3.2806,3.1566,3.0572,2.9897,2.7454,2.605,2.5684,2.4468,2.3909,2.3871,2.3176,2.2858,2.2868,2.3261,2.3451,2.3475,2.3704,2.38,2.38,2.38,2.38,2.38,2.38,2.38,2.38,2.38,2.3981,2.4198,2.4222,2.4234,2.4234,2.4258,2.4065,2.3836,2.3836,2.3824,2.38,2.38,2.38,2.38,2.38,2.38,2.38,2.3776,2.3788,2.38,2.3776,2.3788,2.38,2.3776,2.3788,2.38,2.3776,2.3583,2.3439,2.3414,2.3261,2.313,2.3082,2.3082,2.3058,2.301,2.2792,2.2697,2.2735,2.2504,2.2371,2.2408,2.2707,2.2893,2.2893,2.3253,2.3591,2.3908,2.3959,2.4199,2.455,2.4576,2.462,2.0264,2.0494,2.1022,2.2375,2.4608,2.6979,2.8671,2.9294,2.9518,2.9587,2.9764,3.0094,3.0571,3.0589,3.0662,3.1098,3.1194,3.1281,3.1281,3.1355,3.141,3.141,3.2019,3.2459,3.2459,3.3211,3.3688,3.3688,3.3762,3.3817,3.3817,3.3725,3.3656,3.3555,3.1808,3.0825,3.0662,2.7439,2.5794,2.5684,2.4468,2.3909,2.3909,2.3934,2.3879,2.3792,2.373,2.3716,2.3728,2.3776,2.38,2.38,2.38,2.38,2.38,2.38,2.38,2.38,2.38,2.3981,2.4222,2.4439,2.4499,2.4547,2.4764,2.4487,2.4113,2.4113,2.3969,2.38,2.38,2.38,2.38,2.38,2.38,2.3752,2.3535,2.3655,2.374,2.3535,2.3668,2.374,2.3535,2.3668,2.374,2.3523,2.3631,2.3643,2.3439,2.3547,2.3514,2.313,2.3082,2.2913,2.2502,2.2417,2.2531,2.283,2.2818,2.2893,2.3154,2.3005,2.2893,2.2893,2.348,2.3843,2.3987,2.4428,2.4759,2.4977,2.5204,2.5188,2.1149,2.1726,2.2651,2.4735,2.7089,2.9025,2.972,3.0185,3.0424,3.0235,3.0332,3.0607,3.0992,3.1098,3.1171,3.1373,3.1543,3.1616,3.1428,3.1575,3.1598,3.1428,3.2093,3.2588,3.2588,3.334,3.3817,3.3817,3.3817,3.3817,3.3817,3.3817,3.3817,3.3817,3.2823,3.193,3.1209,2.8665,2.7093,2.6498,2.5281,2.4814,2.5088,2.4662,2.4517,2.4558,2.447,2.4332,2.4132,2.4132,2.4,2.38,2.38,2.38,2.3824,2.3945,2.3909,2.3824,2.3945,2.4077,2.4222,2.4354,2.4403,2.4427,2.4571,2.433,2.4005,2.4005,2.3909,2.38,2.38,2.38,2.38,2.38,2.38,2.3764,2.3631,2.3704,2.3764,2.3631,2.3704,2.3764,2.3631,2.3716,2.3764,2.3619,2.3607,2.3571,2.3427,2.3611,2.3671,2.3416,2.3546,2.355,2.3265,2.324,2.3354,2.3543,2.3455,2.3467,2.3642,2.3477,2.3414,2.3414,2.4106,2.4472,2.4552,2.4949,2.5209,2.5291,2.5585,2.5571,2.2388,2.3515,2.4904,2.7529,2.9257,3.0296,3.0296,3.0607,3.0882,3.0882,3.0882,3.1024,3.1355,3.141,3.1428,3.1501,3.1726,3.1799,3.1524,3.1781,3.1873,3.1524,3.2203,3.2698,3.2698,3.3376,3.3817,3.3817,3.3817,3.3817,3.3817,3.3817,3.3817,3.3817,3.3817,3.3086,3.1611,3.0049,2.8692,2.7436,2.6199,2.5865,2.6373,2.5426,2.5098,2.5209,2.513,2.4891,2.4612,2.4612,2.4372,2.4,2.4,2.4077,2.4138,2.4308,2.4195,2.4064,2.4235,2.4332,2.4369,2.4369,2.4405,2.4401,2.436,2.4138,2.388,2.38,2.384,2.388,2.38,2.384,2.3932,2.3932,2.384,2.38,2.38,2.38,2.38,2.38,2.38,2.38,2.38,2.38,2.38,2.38,2.3619,2.3487,2.3487,2.3595,2.3708,2.3658,2.4006,2.4251,2.4201,2.4278,2.4316,2.4393,2.4214,2.4086,2.4162,2.4295,2.4315,2.4262,2.4796,2.5115,2.5115,2.5371,2.5545,2.5598,2.5877,2.5864,2.3239,2.506,2.6834,2.7949,2.9452,3.0717,3.0717,3.1043,3.1336,3.1336,3.1336,3.1355,3.1391,3.141,3.1506,3.1873,3.1653,3.1579,3.1873,3.1964,3.1983,3.1928,3.2643,3.3104,3.3104,3.3541,3.3817,3.3817,3.3817,3.3817,3.3817,3.3817,3.3817,3.3817,3.3817,3.3194,3.1969,3.0388,2.901,2.7734,2.6515,2.6105,2.6386,2.6228,2.5991,2.5673,2.5289,2.505,2.501,2.501,2.497,2.4931,2.4931,2.5122,2.5352,2.5057,2.4968,2.4905,2.4718,2.4767,2.4981,2.4981,2.5145,2.5266,2.4889,2.4622,2.4332,2.392,2.4092,2.4332,2.392,2.4092,2.4412,2.4412,2.4092,2.38,2.38,2.38,2.38,2.38,2.38,2.38,2.38,2.38,2.38,2.38,2.3776,2.3752,2.3752,2.3756,2.3687,2.3457,2.3864,2.4026,2.379,2.4085,2.4431,2.4815,2.4789,2.4916,2.526,2.5588,2.5588,2.5321,2.5184,2.5115,2.5115,2.5371,2.5651,2.5931,2.5971,2.5971,2.5138,2.7164,2.8704,2.9721,3.056,3.1153,3.1153,3.1281,3.141,3.141,3.141,3.141,3.141,3.141,3.1465,3.1616,3.1689,3.1799,3.1983,3.2203,3.2331,3.2331,3.2863,3.3196,3.3196,3.3544,3.3817,3.3817,3.3817,3.3817,3.3817,3.3817,3.3908,3.4128,3.3285,3.2236,3.1071,2.9454,2.8035,2.6784,2.6403,2.6305,2.6386,2.6386,2.6307,2.6109,2.5911,2.5713,2.5475,2.5475,2.5329,2.5103,2.5308,2.5244,2.5092,2.5255,2.5115,2.4888,2.4926,2.4869,2.4771,2.4771,2.4646,2.4505,2.4344,2.4218,2.404,2.384,2.3972,2.4052,2.384,2.3972,2.4132,2.4132,2.3972,2.38,2.38,2.4012,2.4252,2.4492,2.4532,2.4532,2.4532,2.4532,2.4532,2.4532,2.4532,2.4532,2.4532,2.4759,2.4868,2.4754,2.5124,2.5348,2.5231,2.5374,2.5531,2.5726,2.5619,2.5604,2.5758,2.5732,2.5651,2.5518,2.5558,2.5449,2.5115,2.5371,2.5491,2.5516,2.5837,2.5998,2.7069,2.8701,2.9758,3.1079,3.1336,3.1281,3.1391,3.141,3.141,3.141,3.141,3.1446,3.1524,3.1543,3.1612,3.1703,3.1946,3.2203,3.2294,3.257,3.2753,3.2753,3.312,3.3342,3.3342,3.3599,3.3817,3.3817,3.3817,3.3817,3.3817,3.3908,3.4092,3.4385,3.334,3.1999,3.041,2.8436,2.6983,2.6105,2.6279,2.6386,2.6386,2.6386,2.6386,2.6386,2.6386,2.6228,2.5951,2.603,2.5857,2.5577,2.5823,2.5681,2.5397,2.5654,2.5487,2.5139,2.5281,2.5134,2.4869,2.4869,2.4709,2.444,2.432,2.432,2.428,2.416,2.42,2.428,2.4172,2.42,2.432,2.432,2.42,2.4092,2.4,2.4252,2.4612,2.501,2.509,2.509,2.509,2.509,2.509,2.509,2.509,2.509,2.509,2.5408,2.5634,2.5634,2.599,2.6268,2.6268,2.6347,2.6386,2.6386,2.6225,2.6105,2.6105,2.5852,2.5732,2.5732,2.5959,2.585,2.5342,2.5451,2.5438,2.5342,2.5717,2.5877,2.8564,2.8982,2.9427,3.1006,3.1134,3.0919,3.1318,3.141,3.141,3.141,3.141,3.1538,3.1909,3.1983,3.2093,3.2478,3.2551,3.2698,3.3067,3.3141,3.3159,3.3159,3.3507,3.378,3.378,3.3798,3.3817,3.3817,3.3817,3.3817,3.3817,3.4165,3.4385,3.4403,3.4681,3.3505,3.0722,2.789,2.6425,2.6373,2.6386,2.6386,2.6386,2.6386,2.6386,2.6386,2.6386,2.6386,2.6373,2.664,2.672,2.672,2.6733,2.6893,2.7094,2.656,2.6347,2.6293,2.6027,2.5933,2.5908,2.5908,2.6081,2.6188,2.5792,2.5713,2.5594,2.517,2.5356,2.5594,2.517,2.5356,2.5713,2.5713,2.5356,2.4931,2.4532,2.4492,2.4612,2.501,2.509,2.509,2.509,2.509,2.509,2.509,2.509,2.509,2.509,2.513,2.513,2.513,2.5554,2.5832,2.5832,2.6188,2.6386,2.6386,2.6373,2.6373,2.6373,2.6346,2.6346,2.6346,2.636,2.6252,2.5944,2.5638,2.5651,2.5944,2.5651,2.5531,2.8307,2.8792,2.9365,3.0945,3.1275,3.1276,3.1648,3.1538,3.141,3.141,3.163,3.1836,3.1983,3.2001,3.2129,3.2533,3.2588,3.2735,3.3141,3.3196,3.3287,3.3544,3.3725,3.3817,3.3817,3.3817,3.3817,3.3817,3.4055,3.4202,3.4202,3.4587,3.4881,3.5174,3.432,3.2479,2.9554,2.746,2.6386,2.6386,2.6386,2.6386,2.6386,2.6386,2.6493,2.6667,2.6667,2.6667,2.6694,2.6987,2.7001,2.68,2.7028,2.6867,2.6466,2.6439,2.6266,2.6131,2.6038,2.5962,2.5872,2.5872,2.5714,2.5527,2.5408,2.5368,2.5329,2.513,2.5209,2.5329,2.513,2.5209,2.5368,2.5368,2.5209,2.513,2.5276,2.5316,2.5435,2.5885,2.5911,2.5911,2.5911,2.5911,2.5911,2.5911,2.5911,2.5911,2.5911,2.5911,2.5911,2.5911,2.607,2.6188,2.6188,2.6307,2.6386,2.6386,2.6386,2.6386,2.6386,2.6386,2.6386,2.6386,2.6386,2.6279,2.5998,2.5891,2.5758,2.5678,2.5797,2.5837,2.8442,2.895,2.9538,3.1071,3.1388,3.1429,3.1822,3.1717,3.1575,3.1593,3.1818,3.2093,3.2368,3.2423,3.2496,3.2771,3.2918,3.3101,3.3342,3.3379,3.3489,3.378,3.3817,3.3817,3.3817,3.3817,3.3872,3.4,3.4257,3.4458,3.4605,3.4973,3.5376,3.5797,3.369,3.1582,2.9569,2.7348,2.6199,2.6092,2.6199,2.6279,2.6292,2.6346,2.6493,2.6694,2.6881,2.6974,2.6987,2.7229,2.7148,2.6987,2.7081,2.676,2.6305,2.636,2.6305,2.6145,2.6145,2.6069,2.599,2.599,2.5792,2.5527,2.5527,2.5527,2.5527,2.5527,2.5527,2.5527,2.5527,2.5527,2.5527,2.5527,2.5527,2.5607,2.5911,2.5911,2.5911,2.6307,2.6386,2.6386,2.6386,2.6386,2.6386,2.6386,2.6386,2.6386,2.6386,2.6386,2.6386,2.6386,2.6386,2.6386,2.6386,2.6386,2.6386,2.6386,2.6386,2.6386,2.6386,2.6386,2.6386,2.6386,2.6386,2.6293,2.6145,2.6145,2.5984,2.5665,2.5904,2.5944,0.0,0.0,0.0,3.1382,3.1475,3.1318,3.1819,3.191,3.1925,3.1993,3.2019,3.2276,3.3049,3.3196,3.3214,3.3214,3.356,3.3817,3.3817,3.3817,3.3817,3.3817,3.3817,3.3817,3.3817,3.3817,3.3982,3.4367,3.4422,3.4623,3.4991,3.5376,3.5797,3.6182,3.2999,3.1147,3.0888,2.7658,2.585,2.5531,2.5864,2.6011,2.6011,2.6266,2.6413,2.6453,2.7055,2.7309,2.7322,2.7322,2.7322,2.7269,2.6947,2.6787,2.6774,2.6493,2.6386,2.6386,2.6386,2.6386,2.6386,2.6386,2.6386,2.6386,2.6386,2.6386,2.6386,2.6386,2.6386,2.6386,2.6386,2.6386,2.6386,2.6386,2.6386,2.6386,2.6386,2.6109,2.5911,2.6307,2.6386,2.6386,2.6386,2.6386,2.6386,2.6386,2.6386,2.6386,2.6386,2.6386,2.6386,2.6386,2.6386,2.6386,2.6386,2.6386,2.6386,2.6386,2.6386,2.6386,2.6386,2.6386,2.6386,2.6386,2.6386,2.6386,2.6386,2.6386,2.6279,2.6011,2.6011,2.585,2.8523,0.0,0.0,0.0,0.0,0.0,3.2391,3.2226,3.1922,3.2278,3.2584,3.2888,3.3154,3.3434,3.3617,3.3617,3.3743,3.3817,3.3817,3.3817,3.3817,3.3817,3.3817,3.3817,3.3817,3.4073,3.4275,3.4385,3.4954,3.5339,3.5412,3.5522,3.5669,3.5742,3.2379,3.0558,3.0463,2.7506,2.5957,2.5877,2.6172,2.6266,2.6279,2.6573,2.6827,2.7068,2.7242,2.7429,2.7589,2.7857,2.7563,2.6961,2.7094,2.6881,2.6507,2.6413,2.6386,2.6386,2.6386,2.6386,2.6386,2.6386,2.6386,2.6386,2.6386,2.6386,2.6386,2.6386,2.6386,2.6386,2.6386,2.6386,2.6386,2.6386,2.6386,2.6386,2.6386,2.6307,2.6268,2.6386,2.6386,2.6386,2.6386,2.6386,2.6386,2.6386,2.6386,2.6386,2.6386,2.6386,2.6386,2.6386,2.6386,2.6386,2.6386,2.6386,2.6386,2.6386,2.6386,2.6386,2.6386,2.6386,2.6386,2.6386,2.6386,2.6386,2.6386,2.6386,2.6346,2.6266,2.6266,2.6158,2.8867,2.9439,3.0103,3.1068,0.0,0.0,3.2479,3.2359,3.2187,3.271,3.2999,3.3209,3.3429,3.3617,3.3817,3.3817,3.3817,3.3817,3.3817,3.3817,3.3817,3.3817,3.3817,3.3872,3.4037,3.4275,3.455,3.488,3.5357,3.5577,3.5577,3.5577,3.5504,3.5339,3.206,3.032,3.032,2.7297,2.5772,2.5772,2.6105,2.6279,2.64,2.6694,2.6987,2.7309,2.7309,2.7295,2.7362,2.7697,2.7443,2.6827,2.6881,2.6694,2.6386,2.6386,2.6386,2.6386,2.6386,2.6386,2.6386,2.6386,2.6386,2.6386,2.6386,2.6386,2.6386,2.6386,2.6386,2.6386,2.6386,2.6386,2.6386,2.6386,2.6386,2.6386,2.6386,2.6386,2.6386,2.6386,2.6386,2.6386,2.6386,2.6386,2.6386,2.6386,2.6386,2.6386,2.6386,2.6386,2.6386,2.6386,2.6386,2.6386,2.6386,2.6386,2.6386,2.6386,2.6386,2.6386,2.6386,2.6386,2.6386,2.6386,2.6386,2.6386,2.6386,2.6386,2.6386,2.6386,2.6386,2.6346,2.968,3.0128,3.0576,3.1258,3.1455,0.0,3.2282,3.2403,3.2552,3.3095,3.3219,3.3348,3.3718,3.3792,3.3773,3.3739,3.3759,3.3796,3.3817,3.3817,3.3835,3.3872,3.3872,3.4037,3.444,3.4513,3.4844,3.5559,3.5632,3.5669,3.5577,3.5577,3.5266,3.4721,3.1766,3.0145,2.996,2.7027,2.5558,2.5558,2.5931,2.6225,2.6453,2.6774,2.7068,2.7349,2.7322,2.7108,2.6881,2.7081,2.7014,2.6747,2.6533,2.6413,2.6386,2.6386,2.6386,2.6386,2.6386,2.6386,2.6386,2.6386,2.6386,2.6386,2.6386,2.6386,2.6386,2.6386,2.6386,2.6386,2.6386,2.6386,2.6386,2.6386,2.6386,2.6386,2.6386,2.6386,2.6386,2.6386,2.6386,2.6386,2.6386,2.6386,2.6386,2.6386,2.6386,2.6386,2.6386,2.6386,2.6386,2.6386,2.6386,2.6386,2.6386,2.6386,2.6386,2.6386,2.6413,2.644,2.644,2.6466,2.6493,2.6493,2.6493,2.6466,2.644,2.64,2.6386,2.6386,2.6386,2.6386,2.9643,2.9981,3.0517,3.1,0.0,0.0,3.2482,3.2471,3.2463,3.3268,3.3437,3.3472,3.3609,3.365,3.355,3.3297,3.3508,3.3758,3.3796,3.3817,3.3927,3.4238,3.4293,3.4458,3.4826,3.5192,3.5412,3.5577,3.5907,3.5962,3.5632,3.5284,3.4361,3.2732,3.0822,2.9231,2.7992,2.6607,2.5904,2.5917,2.64,2.668,2.676,2.7281,2.7562,2.7602,2.7403,2.7269,2.7188,2.6734,2.6533,2.6493,2.6667,2.66,2.6386,2.6386,2.6386,2.6386,2.6386,2.6386,2.6386,2.6386,2.6386,2.6386,2.6386,2.6386,2.6386,2.6386,2.6386,2.6386,2.6386,2.6386,2.6386,2.6386,2.6386,2.6386,2.6386,2.6386,2.6386,2.6386,2.6386,2.6386,2.6386,2.6386,2.6386,2.6386,2.6386,2.6386,2.6386,2.6386,2.6386,2.6386,2.6386,2.6386,2.6386,2.6386,2.6386,2.6386,2.6613,2.6734,2.6734,2.6974,2.7135,2.7135,2.7135,2.6974,2.6734,2.6507,2.6386,2.6386,2.6386,2.6386,0.0,0.0,0.0,3.0897,0.0,0.0,0.0,3.203,3.2092,3.2753,3.2899,3.291,3.2944,3.2949,3.2908,3.2819,3.3144,3.3363,3.3209,3.356,3.3963,3.4348,3.4403,3.4642,3.5229,3.5467,3.5669,3.5889,3.6091,3.5944,3.5321,3.4539,3.3474,3.209,2.9917,2.8439,2.783,2.6595,2.6145,2.6386,2.668,2.6974,2.7268,2.7415,2.7562,2.7669,2.7241,2.7041,2.7014,2.6573,2.6386,2.64,2.6547,2.652,2.6386,2.6386,2.6386,2.6386,2.6386,2.6386,2.6386,2.6386,2.6386,2.6386,2.6386,2.6386,2.6386,2.6386,2.6386,2.6386,2.6386,2.6386,2.6386,2.6386,2.6386,2.6386,2.6386,2.6386,2.6386,2.6386,2.6386,2.6386,2.6386,2.6386,2.6386,2.6386,2.6386,2.6386,2.6386,2.6386,2.644,2.6587,2.66,2.6667,2.6814,2.6867,2.6867,2.6867,2.6961,2.7041,2.7041,2.7229,2.7309,2.7309,2.7309,2.7229,2.7041,2.6894,2.6747,2.66,2.66,2.66,0.0,0.0,0.0,0.0,0.0,3.1035,0.0,0.0,0.0,3.2162,3.2283,3.2283,3.2283,3.2283,3.227,3.2257,3.2646,3.285,3.2434,3.3065,3.3725,3.4128,3.4385,3.4788,3.5412,3.5394,3.5614,3.6164,3.5981,3.5504,3.4686,3.373,3.26,3.1217,2.9037,2.7844,2.776,2.6715,2.636,2.6787,2.6934,2.7215,2.7602,2.7428,2.7483,2.7589,2.7054,2.6787,2.676,2.6507,2.6386,2.6386,2.6386,2.6386,2.6386,2.6386,2.6386,2.6386,2.6386,2.6386,2.6386,2.6386,2.6386,2.6386,2.6386,2.6386,2.6386,2.6386,2.6386,2.6386,2.6386,2.6386,2.6386,2.6386,2.6386,2.6386,2.6386,2.6386,2.6386,2.6386,2.6386,2.6386,2.6386,2.6386,2.6386,2.6386,2.6386,2.6413,2.6466,2.6466,2.6587,2.6881,2.6907,2.7001,2.7282,2.7309,2.7309,2.7309,2.7362,2.7389,2.7389,2.7443,2.7469,2.7469,2.7469,2.7443,2.7389,2.7443,2.7255,2.6907,2.6907,2.6907,0.0,0.0,0.0,0.0,3.0898,0.0,0.0,0.0,3.1629,3.2116,0.0,3.2213,3.2213,0.0,0.0,3.1423,3.198,3.2265,3.1621,3.2221,3.29,3.3269,3.4276,3.4954,3.5046,3.4752,3.5009,3.6127,3.521,3.4252,3.345,3.326,3.17,2.8372,2.8192,2.7539,2.6256,2.6546,2.676,2.6827,2.7348,2.7495,2.7362,2.7549,2.7522,2.7336,2.6961,2.6787,2.676,2.6507,2.6386,2.6386,2.6386,2.6386,2.6386,2.6386,2.6386,2.6386,2.6386,2.6386,2.6386,2.6386,2.6386,2.6386,2.6386,2.6386,2.6386,2.6386,2.6386,2.6386,2.6386,2.6386,2.6386,2.6386,2.6386,2.6386,2.6386,2.6386,2.6386,2.6386,2.6386,2.6386,2.6386,2.6386,2.6386,2.6386,2.6386,2.648,2.6734,2.6734,2.6881,2.7229,2.7255,2.7269,2.7309,2.7309,2.7309,2.7309,2.7509,2.7642,2.7642,2.7951,2.8085,2.8085,2.8085,2.7951,2.7655,2.7951,2.7804,2.7255,2.7255,2.7255,0.0,0.0,0.0,0.0,0.0,0.0,3.1171,0.0,3.1211,0.0,0.0,0.0,0.0,0.0,0.0,0.0,3.1273,0.0,0.0,0.0,3.2221,3.3086,3.3635,3.4222,3.4918,3.4642,3.4899,3.6109,3.5082,3.4055,3.3243,3.2492,3.0858,2.8107,2.7463,2.6934,2.6453,2.6694,2.6987,2.7335,2.7415,2.7468,2.7509,2.7295,2.7121,2.6987,2.6694,2.6573,2.656,2.644,2.6386,2.6386,2.6386,2.6386,2.6386,2.6386,2.6386,2.6386,2.6386,2.6386,2.6386,2.6386,2.6386,2.6386,2.6386,2.6386,2.6386,2.6386,2.6386,2.6386,2.6386,2.6386,2.6386,2.6386,2.6386,2.6386,2.6386,2.6386,2.6386,2.6386,2.6386,2.6386,2.6386,2.6386,2.6453,2.6613,2.664,2.6747,2.7041,2.7081,2.7188,2.7482,2.7522,2.763,2.7804,2.7817,2.7817,2.7817,2.7924,2.8005,2.8005,2.8125,2.8179,2.8179,2.8179,2.8125,2.8005,2.8125,2.8058,2.7817,2.7643,2.7522,3.0791,3.1043,3.1466,3.1015,0.0,0.0,0.0,0.0,0.0,0.0,0.0,0.0,0.0,0.0,0.0,0.0,0.0,3.0839,0.0,3.0841,0.0,0.0,0.0,0.0,0.0,3.4018,3.4044,3.5117,3.4001,3.2877,3.2055,3.1134,2.973,2.7748,2.6856,2.6533,2.6814,2.6907,2.7201,2.7696,2.7482,2.7455,2.7562,2.7054,2.6774,2.6694,2.648,2.6386,2.6386,2.6386,2.6386,2.6386,2.6386,2.6386,2.6386,2.6386,2.6386,2.6386,2.6386,2.6386,2.6386,2.6386,2.6386,2.6386,2.6386,2.6386,2.6386,2.6386,2.6386,2.6386,2.6386,2.6386,2.6386,2.6386,2.6386,2.6386,2.6386,2.6386,2.6386,2.6386,2.6386,2.6386,2.6386,2.6453,2.6587,2.6787,2.6894,2.7054,2.7389,2.7429,2.7536,2.7831,2.7816,2.7951,2.8165,2.8179,2.8179,2.8179,2.8179,2.8179,2.8179,2.8179,2.8179,2.8179,2.8179,2.8179,2.8179,2.8179,2.8179,2.8179,2.7965,2.7816,3.1629,3.1474,3.1396,3.0996,3.0918,3.0918,0.0,0.0,3.0898,0.0,0.0,0.0,0.0,0.0,0.0,0.0,0.0,0.0,0.0,0.0,0.0,0.0,0.0,0.0,0.0,3.2441,3.1861,0.0,3.118,2.9906,2.9088,2.8997,2.8193,2.6491,2.6426,2.6533,2.6814,2.7108,2.7402,2.7696,2.7682,2.7549,2.7309,2.6961,2.6667,2.64,2.6386,2.6386,2.6386,2.6386,2.6386,2.6386,2.6386,2.6386,2.6386,2.6386,2.6386,2.6386,2.6386,2.6386,2.6386,2.6386,2.6386,2.6386,2.6386,2.6386,2.6386,2.6386,2.6386,2.6386,2.6386,2.6386,2.6386,2.6386,2.6386,2.6386,2.6386,2.6386,2.6386,2.6386,2.6386,2.6386,2.6386,2.6627,2.6774,2.6787,2.7068,2.7403,2.7642,2.7682,2.7802,2.8138,2.8165,2.8179,2.8179,2.8179,2.8179,2.8179,2.8179,2.8179,2.8179,2.8179,2.8179,2.8179,2.8179,2.8179,2.8179,2.8179,2.8179,2.8179,2.8179,2.8165,3.2411,3.2801,3.3024,3.202,3.1996,3.1991,3.1093,0.0,0.0,0.0,0.0,0.0,0.0,0.0,0.0,0.0,0.0,0.0,0.0,0.0,0.0,0.0,0.0,0.0,0.0,0.0,0.0,0.0,3.0808,0.0,2.8939,2.8895,2.8129,2.6465,2.6386,2.6627,2.7108,2.7255,2.7415,2.7696,2.7509,2.7255,2.6961,2.6667,2.648,2.6386,2.6386,2.6386,2.6386,2.6386,2.6386,2.6386,2.6386,2.6386,2.6386,2.6386,2.6386,2.6386,2.6386,2.6386,2.6386,2.6386,2.6386,2.6386,2.6386,2.6386,2.6386,2.6386,2.6386,2.6386,2.6386,2.6386,2.6386,2.6386,2.6386,2.6386,2.6386,2.6386,2.6386,2.6386,2.6386,2.6386,2.6386,2.6627,2.6894,2.7081,2.7242,2.7483,2.7965,2.8031,2.8072,2.8179,2.8179,2.8179,2.8179,2.8179,2.8179,2.8179,2.8179,2.8179,2.8179,2.8179,2.8179,2.8179,2.8179,2.8179,2.8179,2.8179,2.8179,2.8179,2.8179,2.8179,3.3124,3.3482,3.3681,3.2524,3.2464,3.2427,3.1565,3.1237,3.1209,0.0,0.0,0.0,0.0,0.0,0.0,0.0,0.0,0.0,0.0,2.9709,0.0,0.0,0.0,0.0,0.0,0.0,0.0,0.0,0.0,0.0,0.0,2.8011,2.7502,2.6426,2.6493,2.6774,2.7309,2.7403,2.7509,2.7696,2.7443,2.7108,2.6774,2.652,2.6386,2.6386,2.6386,2.6386,2.6386,2.6386,2.6386,2.6386,2.6386,2.6386,2.6386,2.6386,2.6386,2.6386,2.6386,2.6386,2.6386,2.6386,2.6386,2.6386,2.6386,2.6386,2.6413,2.652,2.6466,2.6413,2.652,2.6466,2.6386,2.6386,2.6386,2.6386,2.6386,2.6386,2.6386,2.6386,2.6386,2.6386,2.6386,2.6547,2.6774,2.7068,2.7281,2.7603,2.7978,2.8125,2.8179,2.8179,2.8179,2.8179,2.8179,2.8179,2.8179,2.8179,2.8179,2.8179,2.8179,2.8179,2.8179,2.8179,2.8179,2.8179,2.8179,2.8179,2.8179,2.8179,2.8179,2.8179]},{"header":{"parameterUnit":"m.s-1","parameterCategory":1,"la1":30.6,"la2":29.2853,"lo1":-89.7004,"lo2":-87.6739,"dx":0.0162,"dy":0.0183,"nx":112,"ny":82,"refTime":"2022-11-04T12:00:00:Z","depth":0,"parameterNumber":3,"parameterNumberName":"V-component_of_WINDS"},"data":[0.0,0.0,0.0,0.0,0.0,0.0,0.0,0.0,0.0,0.0,0.0,0.0,0.0,0.0,0.0,0.0,0.0,0.0,0.0,0.0,0.0,0.0,0.0,0.0,0.0,0.0,0.0,0.0,0.0,0.0,0.0,0.0,0.0,0.0,0.0,0.0,0.0,0.0,0.0,0.0,0.0,0.0,0.0,0.0,0.0,0.0,0.0,0.0,0.0,0.0,0.0,0.0,0.0,0.0,0.0,0.0,0.0,0.0,0.0,0.0,0.0,0.0,0.0,0.0,0.0,0.0,0.0,0.0,0.0,0.0,0.0,0.0,0.0,0.0,0.0,0.0,0.0,0.0,0.0,0.0,0.0,0.0,0.0,0.0,0.0,0.0,0.0,0.0,0.0,0.0,4.1215,4.1455,4.1905,4.1932,4.1222,4.1784,4.1334,3.9389,0.0,0.0,0.0,0.0,0.0,0.0,0.0,0.0,0.0,0.0,0.0,0.0,0.0,0.0,0.0,0.0,0.0,0.0,0.0,0.0,0.0,0.0,0.0,0.0,0.0,0.0,0.0,0.0,0.0,0.0,0.0,0.0,0.0,0.0,0.0,0.0,0.0,0.0,0.0,0.0,0.0,0.0,0.0,0.0,0.0,0.0,0.0,0.0,0.0,0.0,0.0,0.0,0.0,0.0,0.0,0.0,0.0,0.0,0.0,0.0,0.0,0.0,0.0,0.0,0.0,0.0,0.0,0.0,0.0,0.0,0.0,0.0,0.0,0.0,0.0,0.0,0.0,0.0,0.0,0.0,0.0,0.0,0.0,0.0,0.0,0.0,0.0,0.0,0.0,0.0,0.0,0.0,0.0,0.0,0.0,0.0,0.0,0.0,0.0,0.0,0.0,0.0,0.0,0.0,4.2569,4.3443,4.3033,4.2595,4.2297,4.3589,4.324,4.0538,0.0,0.0,0.0,0.0,0.0,0.0,0.0,0.0,0.0,0.0,0.0,0.0,0.0,0.0,0.0,0.0,0.0,0.0,0.0,0.0,0.0,0.0,0.0,0.0,0.0,0.0,0.0,0.0,0.0,0.0,0.0,0.0,0.0,0.0,0.0,0.0,0.0,0.0,0.0,0.0,0.0,0.0,0.0,0.0,0.0,0.0,0.0,0.0,0.0,0.0,0.0,0.0,0.0,0.0,0.0,0.0,0.0,0.0,0.0,0.0,0.0,0.0,0.0,0.0,0.0,0.0,0.0,0.0,0.0,0.0,0.0,0.0,0.0,0.0,0.0,0.0,0.0,0.0,0.0,0.0,0.0,0.0,0.0,0.0,0.0,0.0,0.0,0.0,0.0,0.0,0.0,0.0,0.0,0.0,0.0,0.0,0.0,0.0,0.0,0.0,0.0,0.0,0.0,4.2478,4.3326,4.4724,4.4518,4.4044,4.3453,4.4809,4.427,4.101,4.1633,0.0,0.0,0.0,0.0,0.0,0.0,0.0,0.0,0.0,0.0,0.0,0.0,0.0,0.0,0.0,0.0,0.0,0.0,0.0,0.0,0.0,0.0,0.0,0.0,0.0,0.0,0.0,0.0,0.0,0.0,0.0,0.0,0.0,0.0,0.0,0.0,0.0,0.0,0.0,0.0,0.0,0.0,0.0,0.0,0.0,0.0,0.0,0.0,0.0,0.0,0.0,0.0,0.0,0.0,0.0,0.0,0.0,0.0,0.0,0.0,0.0,0.0,0.0,0.0,0.0,0.0,0.0,0.0,0.0,0.0,0.0,0.0,0.0,0.0,0.0,0.0,0.0,0.0,0.0,0.0,0.0,0.0,0.0,0.0,0.0,0.0,0.0,0.0,0.0,0.0,0.0,0.0,0.0,0.0,0.0,0.0,0.0,0.0,0.0,0.0,0.0,0.0,4.3684,4.447,4.5808,4.5702,4.5398,4.4892,4.5799,4.5136,4.2193,4.2881,0.0,0.0,0.0,0.0,0.0,0.0,0.0,0.0,0.0,0.0,0.0,0.0,0.0,0.0,0.0,0.0,0.0,0.0,0.0,0.0,0.0,0.0,0.0,0.0,0.0,0.0,0.0,0.0,0.0,0.0,0.0,0.0,0.0,0.0,0.0,0.0,0.0,0.0,0.0,0.0,0.0,0.0,0.0,0.0,0.0,0.0,0.0,0.0,0.0,0.0,0.0,0.0,0.0,0.0,0.0,0.0,0.0,0.0,0.0,0.0,0.0,0.0,0.0,0.0,0.0,0.0,0.0,0.0,0.0,0.0,0.0,0.0,0.0,0.0,0.0,0.0,0.0,0.0,0.0,0.0,0.0,0.0,0.0,0.0,0.0,0.0,0.0,0.0,0.0,0.0,0.0,0.0,0.0,0.0,0.0,0.0,0.0,0.0,0.0,0.0,0.0,0.0,4.5754,4.6868,4.6984,4.6288,4.6077,4.6735,4.6715,4.6176,4.4995,4.4747,0.0,0.0,0.0,0.0,0.0,0.0,0.0,0.0,0.0,0.0,0.0,0.0,0.0,0.0,0.0,0.0,0.0,0.0,0.0,0.0,0.0,0.0,0.0,0.0,0.0,0.0,0.0,0.0,0.0,0.0,0.0,0.0,0.0,0.0,0.0,0.0,0.0,0.0,0.0,0.0,0.0,0.0,0.0,0.0,0.0,0.0,0.0,0.0,0.0,0.0,0.0,0.0,0.0,0.0,0.0,0.0,0.0,0.0,0.0,0.0,0.0,0.0,0.0,0.0,0.0,0.0,0.0,0.0,0.0,0.0,0.0,0.0,0.0,0.0,0.0,0.0,0.0,0.0,0.0,0.0,0.0,0.0,0.0,0.0,0.0,0.0,0.0,0.0,0.0,0.0,0.0,0.0,0.0,0.0,0.0,0.0,0.0,0.0,0.0,0.0,0.0,0.0,4.5364,4.6445,4.6467,4.6186,4.6064,4.6308,4.6707,4.6046,4.3943,0.0,0.0,0.0,0.0,0.0,0.0,0.0,0.0,0.0,0.0,0.0,0.0,0.0,0.0,0.0,0.0,0.0,0.0,0.0,0.0,0.0,0.0,0.0,0.0,0.0,0.0,0.0,0.0,0.0,0.0,0.0,0.0,0.0,0.0,0.0,0.0,0.0,0.0,0.0,0.0,0.0,0.0,0.0,0.0,0.0,0.0,0.0,0.0,0.0,0.0,0.0,0.0,0.0,0.0,0.0,0.0,0.0,0.0,0.0,0.0,0.0,0.0,0.0,0.0,0.0,0.0,0.0,0.0,0.0,0.0,0.0,0.0,0.0,0.0,0.0,0.0,0.0,0.0,0.0,0.0,0.0,0.0,0.0,0.0,0.0,0.0,0.0,0.0,0.0,0.0,0.0,0.0,0.0,0.0,0.0,0.0,0.0,0.0,0.0,0.0,0.0,0.0,4.3919,4.5655,4.6763,4.6548,4.627,4.6162,4.6361,4.6605,4.5953,4.4051,0.0,0.0,0.0,0.0,0.0,0.0,0.0,0.0,0.0,0.0,0.0,0.0,0.0,0.0,0.0,0.0,0.0,0.0,0.0,0.0,0.0,0.0,0.0,0.0,0.0,0.0,0.0,0.0,0.0,0.0,0.0,0.0,0.0,0.0,0.0,0.0,0.0,0.0,0.0,0.0,0.0,0.0,0.0,0.0,0.0,0.0,0.0,0.0,0.0,0.0,0.0,0.0,0.0,0.0,0.0,0.0,0.0,0.0,0.0,0.0,0.0,0.0,0.0,0.0,0.0,0.0,0.0,0.0,0.0,0.0,0.0,0.0,0.0,0.0,0.0,0.0,0.0,0.0,0.0,0.0,0.0,0.0,0.0,0.0,0.0,0.0,0.0,0.0,0.0,0.0,0.0,0.0,0.0,0.0,0.0,0.0,0.0,0.0,0.0,0.0,0.0,0.0,4.4872,4.7086,4.8355,4.7466,4.6611,4.6452,4.7295,4.6557,4.5954,0.0,0.0,0.0,0.0,0.0,0.0,0.0,0.0,0.0,0.0,0.0,0.0,0.0,0.0,0.0,0.0,0.0,0.0,0.0,0.0,0.0,0.0,0.0,0.0,0.0,0.0,0.0,0.0,0.0,0.0,0.0,0.0,0.0,0.0,0.0,0.0,0.0,0.0,0.0,0.0,0.0,0.0,0.0,0.0,0.0,0.0,0.0,0.0,0.0,0.0,0.0,0.0,0.0,0.0,0.0,0.0,0.0,0.0,0.0,0.0,0.0,0.0,0.0,0.0,0.0,0.0,0.0,0.0,0.0,0.0,0.0,0.0,0.0,0.0,0.0,0.0,0.0,0.0,0.0,0.0,0.0,0.0,0.0,0.0,0.0,0.0,0.0,0.0,0.0,0.0,0.0,0.0,0.0,0.0,0.0,0.0,0.0,0.0,0.0,0.0,0.0,0.0,0.0,4.4217,4.6836,4.8281,4.6794,4.6404,4.6328,4.6549,4.6302,4.5599,4.4277,0.0,0.0,0.0,0.0,0.0,0.0,0.0,0.0,0.0,0.0,0.0,0.0,0.0,0.0,0.0,0.0,0.0,0.0,0.0,0.0,0.0,0.0,0.0,0.0,0.0,0.0,0.0,0.0,0.0,0.0,0.0,0.0,0.0,0.0,0.0,0.0,0.0,0.0,0.0,0.0,0.0,0.0,0.0,0.0,0.0,0.0,0.0,0.0,0.0,0.0,0.0,0.0,0.0,0.0,0.0,0.0,0.0,0.0,0.0,0.0,0.0,0.0,0.0,0.0,0.0,0.0,0.0,0.0,0.0,0.0,0.0,0.0,0.0,0.0,0.0,0.0,0.0,0.0,0.0,0.0,0.0,0.0,0.0,0.0,0.0,0.0,0.0,0.0,0.0,0.0,0.0,0.0,0.0,0.0,0.0,0.0,0.0,0.0,0.0,0.0,0.0,0.0,4.3898,4.6435,4.7838,4.6459,4.6305,4.628,4.625,4.6249,4.5614,4.4195,0.0,0.0,0.0,0.0,0.0,0.0,0.0,0.0,0.0,0.0,0.0,0.0,0.0,0.0,0.0,0.0,0.0,0.0,0.0,0.0,0.0,0.0,0.0,0.0,0.0,0.0,0.0,0.0,0.0,0.0,0.0,0.0,0.0,0.0,0.0,0.0,0.0,0.0,0.0,0.0,0.0,0.0,0.0,0.0,0.0,0.0,0.0,0.0,0.0,0.0,0.0,0.0,0.0,0.0,0.0,0.0,0.0,0.0,0.0,0.0,0.0,0.0,0.0,0.0,0.0,0.0,0.0,0.0,0.0,0.0,0.0,0.0,0.0,0.0,0.0,0.0,0.0,0.0,0.0,0.0,0.0,0.0,0.0,0.0,0.0,0.0,0.0,0.0,0.0,0.0,0.0,0.0,0.0,0.0,0.0,0.0,0.0,0.0,0.0,0.0,0.0,0.0,4.381,4.5998,4.7286,4.638,4.6301,4.6307,4.6281,4.6282,4.5935,4.5077,0.0,0.0,0.0,0.0,0.0,0.0,0.0,0.0,0.0,0.0,0.0,0.0,0.0,0.0,0.0,0.0,0.0,0.0,0.0,0.0,0.0,0.0,0.0,0.0,0.0,0.0,0.0,0.0,0.0,0.0,0.0,0.0,0.0,0.0,0.0,0.0,0.0,0.0,0.0,0.0,0.0,0.0,0.0,0.0,0.0,0.0,0.0,0.0,0.0,0.0,0.0,0.0,0.0,0.0,0.0,0.0,0.0,0.0,0.0,0.0,4.2957,4.2363,0.0,0.0,0.0,0.0,0.0,0.0,0.0,0.0,0.0,0.0,0.0,0.0,0.0,0.0,0.0,0.0,0.0,0.0,0.0,0.0,0.0,0.0,0.0,0.0,0.0,0.0,0.0,0.0,0.0,0.0,0.0,0.0,0.0,0.0,0.0,0.0,0.0,0.0,0.0,0.0,4.3736,4.5947,4.7286,4.638,4.6301,4.6305,4.6314,4.6319,4.5934,4.5078,4.484,0.0,0.0,0.0,0.0,0.0,0.0,0.0,0.0,0.0,0.0,0.0,0.0,0.0,0.0,0.0,0.0,0.0,0.0,0.0,0.0,0.0,0.0,0.0,0.0,0.0,0.0,0.0,0.0,0.0,0.0,0.0,0.0,0.0,0.0,0.0,0.0,0.0,0.0,0.0,0.0,0.0,0.0,0.0,0.0,0.0,0.0,0.0,0.0,0.0,0.0,0.0,0.0,0.0,0.0,0.0,0.0,0.0,0.0,0.0,4.3553,4.3294,0.0,0.0,0.0,0.0,0.0,0.0,0.0,0.0,0.0,0.0,0.0,0.0,0.0,0.0,0.0,0.0,0.0,0.0,0.0,0.0,0.0,0.0,0.0,0.0,0.0,0.0,0.0,0.0,0.0,0.0,0.0,0.0,0.0,0.0,0.0,0.0,0.0,0.0,0.0,0.0,4.3668,4.5583,4.6813,4.634,4.6304,4.631,4.6316,4.6283,4.6092,4.5664,4.5232,0.0,0.0,0.0,0.0,0.0,0.0,0.0,0.0,0.0,0.0,0.0,0.0,0.0,0.0,0.0,0.0,0.0,0.0,0.0,0.0,0.0,0.0,0.0,0.0,0.0,0.0,0.0,0.0,0.0,0.0,0.0,0.0,0.0,0.0,0.0,0.0,0.0,0.0,0.0,0.0,0.0,0.0,0.0,0.0,0.0,0.0,0.0,0.0,0.0,0.0,0.0,0.0,0.0,4.3712,4.3773,4.377,4.3823,4.4253,4.4923,4.4238,4.4419,4.5032,4.4216,0.0,0.0,0.0,0.0,0.0,0.0,0.0,0.0,0.0,0.0,0.0,0.0,0.0,0.0,0.0,0.0,0.0,0.0,0.0,0.0,0.0,0.0,4.3958,4.3255,4.3645,4.3958,4.3255,0.0,0.0,0.0,0.0,0.0,0.0,0.0,0.0,0.0,0.0,0.0,4.3817,4.5259,4.6294,4.6254,4.6256,4.6261,4.6267,4.6279,4.6285,4.6288,4.5625,4.5153,0.0,0.0,0.0,0.0,0.0,0.0,0.0,0.0,0.0,0.0,0.0,0.0,0.0,0.0,0.0,0.0,0.0,0.0,0.0,0.0,0.0,0.0,0.0,0.0,0.0,0.0,0.0,0.0,0.0,0.0,0.0,0.0,4.2192,4.2185,0.0,0.0,0.0,0.0,0.0,0.0,0.0,0.0,0.0,0.0,0.0,0.0,0.0,4.3346,4.3582,4.4222,4.453,4.4542,4.5306,4.5613,4.555,4.5699,4.5827,4.5923,4.5862,0.0,4.593,4.5843,0.0,0.0,0.0,0.0,0.0,0.0,0.0,0.0,0.0,0.0,0.0,0.0,0.0,0.0,0.0,0.0,0.0,0.0,0.0,0.0,0.0,0.0,4.5949,4.5793,4.5871,4.5949,4.5793,4.4002,4.2641,4.354,4.3626,4.3513,0.0,0.0,0.0,0.0,0.0,0.0,4.4747,4.5606,4.6188,4.6137,4.6137,4.6101,4.6046,4.6137,4.6216,4.6217,4.6116,4.574,4.5033,4.4959,0.0,0.0,0.0,0.0,0.0,0.0,0.0,0.0,0.0,0.0,0.0,0.0,0.0,0.0,0.0,0.0,0.0,0.0,0.0,0.0,0.0,0.0,0.0,0.0,0.0,0.0,0.0,0.0,0.0,4.2918,4.3063,4.3565,4.283,4.2312,0.0,0.0,0.0,0.0,0.0,0.0,0.0,0.0,0.0,4.481,4.4852,4.486,4.4877,4.5723,4.6177,4.6165,4.7019,4.7397,4.7349,4.7459,4.7528,4.7497,4.7572,4.7606,4.7484,4.6539,4.6134,4.6045,0.0,0.0,0.0,0.0,4.4949,4.4937,4.5078,4.4792,4.4426,4.4426,0.0,0.0,0.0,0.0,0.0,0.0,0.0,4.4387,4.4855,4.5284,4.5675,4.6184,4.6301,4.6301,4.6301,4.5405,4.4706,4.51,4.4757,4.4412,4.4373,4.3933,0.0,0.0,0.0,4.4918,4.4908,4.5644,4.6185,4.6178,4.6132,4.6091,4.6044,4.6102,4.6134,4.6134,4.6153,4.5982,4.5613,4.604,4.5891,0.0,0.0,0.0,0.0,0.0,0.0,0.0,0.0,0.0,0.0,0.0,0.0,0.0,0.0,0.0,0.0,0.0,0.0,0.0,0.0,0.0,0.0,0.0,0.0,0.0,0.0,0.0,0.0,4.3961,4.4222,4.4683,4.4336,4.3981,0.0,0.0,0.0,0.0,0.0,0.0,4.6272,4.5732,4.5747,4.6627,4.6668,4.6677,4.666,4.7295,4.7633,4.7633,4.8233,4.8535,4.8535,4.8598,4.8607,4.8613,4.8635,4.8671,4.8595,4.7303,4.6881,4.7065,4.6788,4.694,4.7297,4.6911,4.6542,4.6264,4.6719,4.6474,4.5987,4.5987,4.5674,4.5167,4.4309,0.0,0.0,0.0,0.0,4.4505,4.5168,4.5323,4.5519,4.6144,4.6301,4.6301,4.6301,4.6301,4.6302,4.6309,4.5769,4.5309,4.5271,4.4714,0.0,4.4231,4.4795,4.5236,4.5228,4.5798,4.6168,4.6148,4.6052,4.6005,4.6039,4.6238,4.638,4.638,4.6594,4.6737,4.6769,4.7354,4.7417,4.6866,0.0,0.0,0.0,0.0,0.0,0.0,0.0,0.0,0.0,0.0,0.0,0.0,0.0,0.0,0.0,0.0,0.0,0.0,0.0,0.0,0.0,0.0,0.0,0.0,0.0,0.0,0.0,0.0,0.0,4.487,4.5414,0.0,0.0,0.0,0.0,4.5917,4.5929,4.6314,4.72,4.7203,4.7564,4.8441,4.8483,4.8483,4.8483,4.8522,4.8519,4.8561,4.8597,4.8597,4.8597,4.8597,4.8599,4.8599,4.8605,4.8608,4.8585,4.859,4.9031,4.9637,4.8853,4.954,5.0762,4.9147,4.9069,4.9627,4.8938,4.8644,4.8603,4.8603,4.7549,4.6066,4.5206,4.4933,0.0,0.0,4.5519,4.6184,4.6223,4.6223,4.6262,4.6301,4.6301,4.6301,4.6301,4.6301,4.6301,4.6301,4.6269,4.6237,4.6244,0.0,4.6083,4.6132,4.6161,4.6144,4.6143,4.6103,4.6066,4.5947,4.5848,4.581,4.5814,4.6622,4.7129,4.7129,4.7971,4.8505,4.8556,4.8551,4.8534,4.8557,4.7055,0.0,0.0,0.0,0.0,0.0,0.0,0.0,0.0,0.0,0.0,0.0,0.0,0.0,0.0,0.0,0.0,0.0,0.0,0.0,0.0,0.0,0.0,0.0,0.0,0.0,0.0,0.0,0.0,4.7206,4.7514,0.0,4.7279,4.8011,4.851,4.851,4.8502,4.8887,4.975,4.9287,4.9138,4.9418,4.9457,4.9185,4.8599,4.9146,4.9457,4.9457,4.9998,5.0542,5.1047,5.1047,5.1361,5.1866,5.1866,5.1911,5.1944,5.1961,5.0844,4.9054,4.8807,4.9083,4.9584,4.9589,4.9802,5.0116,5.0376,5.0477,5.0477,5.0477,5.0087,4.9501,4.9228,4.911,4.911,4.911,4.9345,4.9462,4.8875,4.8758,4.8485,4.7392,4.7549,4.7783,4.7236,4.7549,4.79,4.79,4.7049,4.6279,4.625,4.625,4.6247,4.6182,4.618,4.6176,4.6153,4.6093,4.6216,4.675,4.6726,4.6908,4.7448,4.7777,4.7976,4.8034,4.8361,4.8568,4.8616,4.9101,4.917,4.8709,4.9161,4.8317,0.0,0.0,0.0,0.0,0.0,0.0,0.0,0.0,0.0,0.0,0.0,0.0,0.0,0.0,0.0,0.0,0.0,0.0,0.0,0.0,0.0,0.0,0.0,0.0,0.0,4.769,4.8312,4.8569,4.9104,4.9346,4.9057,4.9818,5.0359,5.034,5.0323,5.0697,5.1552,5.105,5.0894,5.1169,5.1169,5.0894,5.0312,5.0894,5.1169,5.1208,5.1788,5.2313,5.2858,5.2855,5.3194,5.3772,5.3735,5.3779,5.3821,5.3821,5.2469,5.0397,5.0452,5.0433,5.0522,5.1168,5.1367,5.1484,5.2051,5.2273,5.2234,5.1921,5.1648,5.1336,5.1062,5.075,5.0516,5.0516,5.0516,5.0399,4.9812,4.9656,4.9383,4.8251,4.8408,4.8642,4.8134,4.8408,4.8798,4.8798,4.7906,4.7135,4.7069,4.7107,4.6914,4.6254,4.6689,4.684,4.6188,4.6556,4.7087,4.767,4.7672,4.784,4.8396,4.815,4.8273,4.8892,4.8663,4.8923,4.9834,4.984,4.974,4.9562,5.0086,4.91,4.6575,0.0,0.0,0.0,0.0,0.0,0.0,0.0,0.0,0.0,0.0,0.0,0.0,0.0,0.0,0.0,0.0,0.0,0.0,0.0,0.0,0.0,0.0,0.0,4.8757,4.9393,4.9608,4.8769,5.0198,5.092,5.0084,5.0778,5.127,5.1286,5.1278,5.1633,5.241,5.2448,5.2837,5.3653,5.3692,5.3692,5.3692,5.3698,5.3698,5.3701,5.3704,5.3768,5.3859,5.376,5.3829,5.3954,5.3896,5.3907,5.3998,5.3998,5.3999,5.3961,5.3921,5.3881,5.3885,5.3944,5.3945,5.3944,5.4002,5.3989,5.3872,5.3015,5.2156,5.1335,5.0475,4.9617,4.8954,4.8954,4.8954,4.8954,4.8915,4.8915,4.8915,4.8837,4.8876,4.8876,4.8837,4.8876,4.8876,4.8876,4.8876,4.8879,4.8809,4.8811,4.8234,4.6522,4.7728,0.0,4.6417,4.7594,4.8564,4.8454,4.8474,4.8509,4.8548,4.7779,4.8082,4.9821,4.913,4.9805,5.2321,5.0817,5.0291,5.1172,4.9562,4.8332,4.7557,0.0,0.0,0.0,0.0,0.0,0.0,0.0,0.0,0.0,0.0,0.0,0.0,0.0,0.0,0.0,0.0,0.0,0.0,0.0,0.0,0.0,4.8553,4.9679,4.9654,4.9845,5.0128,5.0516,5.1559,5.2111,5.1892,5.2658,5.3163,5.3176,5.3127,5.3174,5.3408,5.3366,5.3458,5.3692,5.3692,5.3692,5.3692,5.3742,5.3779,5.3781,5.3809,5.4156,5.4755,5.4739,5.51,5.5708,5.5694,5.5716,5.5779,5.5779,5.582,5.5735,5.4414,5.3905,5.3984,5.4679,5.4904,5.4824,5.4229,5.3985,5.3979,5.3706,5.3472,5.3238,5.3002,5.2774,5.2585,5.2585,5.2585,5.2429,5.1805,5.1649,5.1298,5.0047,5.0242,5.0516,4.989,5.0242,5.0672,5.0672,5.0672,5.0283,4.9036,4.8807,4.8624,4.8085,4.8434,4.8541,4.8068,4.8364,4.8353,4.7706,4.8166,4.8761,4.9398,4.9811,5.0752,5.2537,5.2385,5.2601,5.3375,5.2366,5.1581,5.1291,4.957,4.8608,0.0,0.0,0.0,0.0,0.0,0.0,0.0,0.0,0.0,0.0,0.0,0.0,0.0,0.0,0.0,0.0,0.0,0.0,0.0,0.0,0.0,0.0,4.9917,5.0663,5.1036,5.1082,5.1276,5.1746,5.2562,5.3115,5.3125,5.3584,5.3855,5.3905,5.384,5.3977,5.4328,5.4307,5.4449,5.4837,5.4837,5.4833,5.4823,5.4879,5.4895,5.4881,5.4922,5.5216,5.5693,5.5679,5.6156,5.6991,5.6984,5.7225,5.7571,5.7571,5.7601,5.7466,0.0,0.0,0.0,0.0,5.6139,5.5786,5.5234,5.5033,5.4987,5.463,5.451,5.4432,5.4082,5.3696,5.3351,5.3006,5.2925,5.2806,5.2304,5.2146,5.1908,5.0898,5.1016,5.137,5.1218,5.1609,5.2038,5.2429,5.2507,0.0,5.1141,5.0364,4.9635,4.8867,4.9374,4.9682,4.9309,4.9864,5.0231,5.0077,5.0465,5.0973,5.1465,5.13,0.0,0.0,0.0,5.2864,5.3234,5.281,0.0,0.0,0.0,4.9489,4.9844,4.9844,0.0,0.0,4.9451,4.9566,0.0,0.0,0.0,0.0,0.0,0.0,0.0,0.0,0.0,0.0,0.0,0.0,0.0,0.0,0.0,0.0,5.1568,5.1871,5.2637,5.2844,5.2812,5.2536,5.3356,5.3983,5.4023,5.4062,5.414,5.4179,5.414,5.4449,5.5191,5.5268,0.0,0.0,0.0,5.6395,5.6388,5.6398,5.6435,5.6539,5.655,5.6638,5.6796,5.6712,5.7148,5.7932,5.7962,5.8389,5.9099,5.9099,5.9099,5.8944,5.7463,5.6877,5.6953,5.758,5.7344,5.6716,5.655,0.0,0.0,5.5472,5.5194,5.5038,5.4143,5.3363,5.2585,5.1898,5.1698,5.169,5.1664,5.1697,5.169,5.1666,5.1668,5.1906,5.2658,5.2855,5.305,5.383,5.3986,5.3986,5.3986,5.2699,5.1187,4.9605,5.0702,5.1406,5.0576,5.178,5.2987,5.3574,5.3687,0.0,5.3762,5.2432,5.2314,5.4073,5.2748,5.2159,5.2775,5.2868,5.2492,5.1601,5.082,5.0775,5.1531,5.1453,5.1414,5.1377,5.0546,5.019,0.0,0.0,0.0,0.0,0.0,0.0,0.0,0.0,0.0,0.0,0.0,0.0,0.0,0.0,0.0,5.2221,5.2966,5.3444,5.3611,5.4242,5.4159,5.2766,5.398,5.4917,5.4954,5.5581,5.5972,5.6009,5.5937,5.5976,5.6132,5.6168,5.6241,5.6398,5.6397,5.6396,5.6395,5.6406,5.6755,5.7459,5.7515,0.0,5.8619,5.859,5.8662,5.8837,5.8849,5.8924,5.9108,5.9108,5.9108,5.9072,5.8744,5.8623,5.8564,5.7989,5.7713,5.7467,5.676,5.6516,5.6349,5.5488,5.5213,5.5059,5.4162,5.378,0.0,5.3444,5.3403,5.34,5.3405,5.3403,5.34,5.3405,5.3405,5.3445,5.3643,5.3682,5.3721,5.3877,5.3916,5.3916,5.3916,5.3693,5.3395,5.306,5.329,5.3447,5.3265,5.3475,5.3203,5.1992,5.2452,5.2866,5.2866,5.3176,5.4112,5.5826,5.5656,5.5228,5.4613,5.4726,5.4359,5.3495,5.2635,5.2281,5.2469,5.1726,5.1414,5.1414,5.1193,5.1156,0.0,0.0,0.0,0.0,0.0,0.0,0.0,0.0,0.0,0.0,0.0,4.9715,5.0561,0.0,5.1737,5.3036,5.3245,5.3539,5.4435,5.4942,5.4886,5.4002,5.5062,5.5845,5.5845,5.6235,5.651,5.651,5.6483,5.6451,5.6451,5.6461,5.6621,5.7051,5.7051,5.7247,5.7681,5.7695,5.7958,5.84,5.8401,5.8659,5.9098,5.9098,5.9332,5.976,5.976,5.9996,6.0347,6.0347,6.0107,5.971,5.9739,5.923,5.8434,5.8443,5.7894,5.7106,5.6666,5.6501,5.6375,5.5469,5.5506,5.5701,5.4802,5.4535,5.4467,5.4009,5.3889,5.3882,5.3892,5.3887,5.3884,5.3892,5.3896,5.4014,5.4452,5.4533,5.4689,5.5116,5.5194,5.5194,5.5194,5.5233,5.4967,5.4085,5.3964,5.4117,5.4556,5.4577,5.4392,5.3997,5.4325,5.4567,5.4568,5.4999,5.5586,5.6406,5.6477,5.6281,5.582,5.5445,5.483,5.3972,5.3074,5.245,5.2061,5.1591,5.1396,5.1396,5.1403,5.1409,0.0,0.0,0.0,0.0,0.0,0.0,0.0,4.9062,4.9295,5.0141,5.0331,5.0598,5.1391,5.1541,5.2074,5.3625,5.3461,5.3656,5.5214,5.5604,5.576,5.5916,5.6271,5.6507,5.6507,5.6507,5.6546,5.6702,5.6741,5.6819,5.6972,5.6972,5.7284,5.7947,5.7947,5.8306,5.8985,5.9007,5.9094,5.9322,5.9266,5.9385,5.9595,5.9595,5.9983,6.0646,6.0646,6.0997,6.1584,6.1584,6.1107,6.0313,6.0371,5.9322,5.7877,5.878,5.8193,5.6978,5.7005,5.6997,5.6835,5.5961,5.6152,5.6583,5.5723,5.5448,5.5297,5.4613,5.441,5.4402,5.442,5.441,5.4441,5.4615,5.4658,5.4895,5.5769,5.5812,5.5888,5.659,5.6746,5.6746,5.6746,5.6734,5.6184,5.4645,5.4411,5.4645,5.5352,5.5432,5.5703,5.6405,5.6483,5.6488,5.6502,5.6553,5.6559,5.648,5.6509,5.6509,5.648,5.5834,5.512,5.4417,5.3714,5.2973,5.2155,5.2153,5.2036,5.1882,5.1895,5.1711,4.8525,4.7879,4.7419,4.8317,4.8594,4.8897,0.0,4.996,5.0184,5.0998,5.1183,5.1415,5.2304,5.246,5.2768,5.3736,5.4474,5.5253,5.6232,5.6972,5.7713,5.8492,5.7362,5.6507,5.6507,5.6507,5.6819,5.7518,5.7557,5.7908,5.8687,5.8726,5.8765,5.8843,5.8843,5.8882,5.9003,5.8999,5.9391,6.0174,6.0172,6.0562,6.1305,6.1305,6.1383,6.1461,6.1461,6.1539,6.1616,6.1616,6.1108,6.0287,6.0291,5.9239,5.7838,5.8677,5.8905,5.8732,5.873,5.8728,5.8572,5.7713,5.7479,5.7401,5.6583,5.6349,5.6312,5.6236,5.6195,5.6195,5.6197,5.6195,5.639,5.7091,5.7288,5.7522,5.8382,5.7953,5.7446,5.7563,5.7563,5.7563,5.7563,5.7561,5.7262,5.6361,5.6195,5.623,5.6326,5.6366,5.6405,5.6483,5.6483,5.6483,5.6485,5.6527,5.6472,5.6432,5.6477,5.6472,5.6393,5.6358,5.6327,5.621,5.6093,5.5625,5.4768,5.4765,5.4374,5.3634,5.3636,5.282,4.866,4.8902,4.9101,4.9452,4.9957,5.0416,5.0701,5.081,5.0876,5.1214,5.1708,5.2175,5.2526,5.2993,5.3656,5.4513,5.4942,5.5682,5.7011,5.7479,5.8024,5.8882,5.8375,5.7947,5.7947,5.7947,5.8102,5.8414,5.8453,5.8609,5.8999,5.8999,5.9232,5.9739,5.9778,6.0012,6.0516,6.0516,6.0711,6.1062,6.1062,6.1257,6.1607,6.1607,6.1607,6.1607,6.1607,6.1607,6.1607,6.1607,6.1101,6.0285,6.0285,5.9232,5.7754,5.8113,5.7955,5.7557,5.7557,5.7557,5.7479,5.7128,5.7011,5.6933,5.6585,5.6507,5.6507,5.6507,5.6507,5.6507,5.6507,5.6507,5.6585,5.6933,5.7011,5.7089,5.7479,5.7245,5.7011,5.7011,5.7011,5.7167,5.7635,5.7713,5.7758,5.7931,5.7108,5.6482,5.649,5.6492,5.6492,5.6492,5.65,5.6501,5.6492,5.651,5.6686,5.7173,5.7228,5.7458,5.7874,5.7957,5.7738,5.7192,5.7192,5.6804,5.5946,5.5436,5.5005,5.4656,5.4121,5.3536,4.8984,4.9609,5.0154,5.0379,5.0917,5.1374,5.1309,5.1496,5.1642,5.1678,5.2331,5.2954,5.2954,5.3461,5.4123,5.4747,5.5059,5.5799,5.7479,5.7908,5.8453,5.9583,5.9739,5.9739,5.9739,5.9271,5.9116,5.9349,5.9349,5.9466,5.97,5.9739,6.0012,6.0633,6.0672,6.0945,6.1607,6.1607,6.1607,6.1607,6.1607,6.1607,6.1607,6.1607,6.1607,6.1607,6.1607,6.1607,6.1607,6.1607,6.1101,6.0285,6.0285,5.9388,5.8063,5.8063,5.7401,5.6546,5.6741,5.6702,5.6507,5.6507,5.6507,5.6507,5.6507,5.6507,5.6546,5.678,5.6816,5.6894,5.7128,5.7206,5.7245,5.7479,5.7557,5.7596,5.7869,5.7713,5.7557,5.7557,5.7752,5.8102,5.8687,5.8999,5.9349,5.9973,5.8843,5.7635,5.6933,5.705,5.7284,5.7518,5.757,5.7533,5.7559,5.7311,5.7476,5.8089,5.8128,5.8398,5.8983,5.9007,5.8687,5.8063,5.8297,5.8024,5.7206,5.6814,5.6461,5.6228,5.535,5.4958,5.0034,5.0097,5.0307,5.1088,5.1288,5.1285,5.1283,5.1945,5.2567,5.2565,5.3266,5.3851,5.3851,5.389,5.3929,5.3929,5.4669,5.5799,5.7479,5.8414,5.9583,6.1334,6.1529,6.1529,6.1529,5.9973,5.9349,6.0207,6.0246,6.0633,6.149,6.1529,6.1529,6.1568,6.1568,6.1568,6.1607,6.1607,6.1607,6.1607,6.1607,6.1607,6.1607,6.1607,6.1607,6.1607,6.1607,6.1607,6.1607,6.1607,6.1101,6.0285,6.0285,5.9739,5.896,5.896,5.7908,5.6624,5.7401,5.7167,5.6507,5.6507,5.6507,5.6507,5.6507,5.6507,5.6663,5.744,5.7674,5.7869,5.8687,5.8921,5.9155,5.9973,6.0168,6.0438,6.1257,6.0789,6.0168,6.0168,6.0867,6.1451,6.149,6.2192,6.2737,6.2776,6.2036,6.0516,5.7985,5.8414,5.9232,6.009,6.0168,6.0168,6.0168,5.9427,5.8923,5.896,5.896,5.896,5.8999,5.8999,5.8999,5.896,5.9778,5.9778,5.8921,5.9739,5.97,5.8843,5.7985,5.7596,4.9174,4.9635,5.0293,5.1085,5.1725,5.2175,5.2175,5.2838,5.3461,5.3461,5.4139,5.4711,5.4741,5.5151,5.5531,5.5602,5.5881,5.6597,5.815,5.8587,5.9315,6.0926,6.1044,6.0984,6.0984,6.0831,6.0801,6.0954,6.0948,6.1023,6.119,6.1186,6.1186,6.1186,6.1158,6.1158,6.1186,6.1158,6.1146,6.1146,6.1146,6.1146,6.1146,6.1174,6.1116,6.1027,6.1124,6.1116,6.1027,6.1095,6.0893,6.0558,6.0665,6.0153,5.9391,6.0045,5.9141,5.7715,5.8351,5.8375,5.8141,5.8141,5.8141,5.8063,5.7479,5.7237,5.7234,5.7617,5.7627,5.7779,5.8749,5.9427,5.9934,6.0246,6.075,6.1062,6.0789,6.0516,6.0129,5.9544,5.9661,6.0051,6.0633,6.0984,6.1179,6.1179,6.1412,6.1295,6.0399,6.0555,6.0828,6.114,6.0633,6.0285,6.0285,5.9505,5.9232,5.9817,5.9856,6.0129,6.0711,6.0711,6.0711,6.0711,6.1023,6.1023,6.0711,6.0438,6.0168,5.9856,5.9544,5.9427,4.8925,4.975,5.0655,5.1472,5.2356,5.2981,5.2981,5.3682,5.431,5.4329,5.4954,5.5516,5.557,5.59,5.626,5.6388,5.6378,5.6911,5.845,5.8644,5.9145,6.0654,6.0753,6.0689,6.0689,6.1061,6.1211,6.1108,6.1099,6.1044,6.0916,6.0906,6.0906,6.0906,6.0838,6.0838,6.0906,6.0838,6.0817,6.0817,6.0817,6.0817,6.0822,6.0852,6.0833,6.0694,6.0838,6.0833,6.0694,6.0807,6.0951,6.1152,6.1265,6.1095,6.091,6.1487,6.0969,5.9948,5.9767,5.9512,5.9359,5.9705,5.983,5.9713,5.9168,5.8919,5.895,5.9343,5.9386,5.9536,6.0514,6.1156,6.1584,6.1584,6.2013,6.2168,6.1315,6.112,6.0887,6.003,6.0072,6.0461,6.1045,6.1412,6.1624,6.1644,6.2387,6.2503,6.1295,6.1412,6.1724,6.2036,6.1568,6.1218,6.1218,6.0438,6.0285,6.1179,6.1218,6.1607,6.2465,6.2503,6.2503,6.2503,6.2503,6.2503,6.2503,6.1919,6.1646,6.1646,6.1373,6.1218,4.9443,5.053,5.1423,5.2242,5.3139,5.376,5.376,5.4424,5.5064,5.5127,5.5713,5.623,5.6289,5.6125,5.6056,5.623,5.6214,5.6721,5.8331,5.8599,5.9142,6.0491,6.0652,6.0646,6.0646,6.0646,6.0646,6.0646,6.0662,6.0668,6.0657,6.0657,6.0657,6.0657,6.0652,6.0652,6.0657,6.0652,6.0652,6.0657,6.0652,6.0652,6.0652,6.0657,6.069,6.0723,6.0729,6.0767,6.08,6.08,6.1296,6.2018,6.2023,6.248,6.3162,6.3162,6.3162,6.2954,6.1626,6.0647,6.0141,6.1078,6.1383,6.1383,6.1344,6.1341,6.1492,6.2315,6.2548,6.2777,6.3643,6.3918,6.3918,6.3965,6.3965,6.3774,6.2931,6.2737,6.2507,6.1695,6.2165,6.2747,6.2786,6.3502,6.4106,6.42,6.4909,6.4211,6.0984,6.1334,6.2192,6.301,6.3049,6.3049,6.3049,6.2231,6.2075,6.2893,6.2971,6.3283,6.4062,6.4099,6.4099,6.4099,6.4099,6.4099,6.4099,6.4099,6.4096,6.4052,6.3351,6.2998,5.0578,5.1858,5.31,5.3294,5.4032,5.4657,5.4657,5.532,5.5909,5.5925,5.6029,5.6128,5.6078,5.5989,5.5913,5.5861,5.6329,5.7014,5.7962,5.8548,5.9223,6.0099,6.0127,6.009,6.009,6.009,6.009,6.009,6.036,6.0399,6.0269,6.0255,6.0255,6.0255,6.0206,6.0199,6.0255,6.0206,6.0206,6.0255,6.0199,6.0177,6.0177,6.0234,6.0535,6.1012,6.116,6.1482,6.198,6.201,6.2147,6.2285,6.2353,6.2452,6.2589,6.2658,6.2643,6.2658,6.3086,6.2854,6.239,6.2625,6.2717,6.2596,6.2007,6.1703,6.1691,6.2037,6.2051,6.2165,6.3145,6.3848,6.4386,6.4583,6.5114,6.5377,6.4699,6.4524,6.429,6.3436,6.3937,6.4749,6.5406,6.5153,6.5132,6.5772,6.5503,6.4964,6.4206,6.4878,6.5462,6.5696,6.5151,6.4761,6.4761,6.3945,6.3556,6.3789,6.3789,6.3906,6.4101,6.4099,6.4099,6.4099,6.4099,6.4099,6.4099,6.4099,6.4018,6.3877,6.4347,6.4477,5.2442,5.3405,5.4171,5.4171,5.4833,5.5454,5.5454,5.5727,5.6048,5.6048,5.5939,5.5827,5.5845,5.571,5.5621,5.5633,5.5961,5.6587,5.7698,5.8215,5.8838,5.9846,5.9918,5.9893,5.9893,5.9893,5.9893,5.9893,6.0068,6.0143,6.0037,6.0029,6.0029,6.0029,5.999,5.9982,6.0029,5.9982,5.9982,6.0029,6.0323,6.0489,6.0497,6.0909,6.1302,6.1675,6.1804,6.2053,6.2378,6.2437,6.2657,6.2909,6.2968,6.3188,6.3486,6.3537,6.3529,6.3579,6.4187,6.4215,6.3995,6.4187,6.4249,6.4166,6.3731,6.3483,6.3442,6.354,6.3483,6.3526,6.4097,6.464,6.5023,6.5169,6.56,6.5917,6.5577,6.557,6.5498,6.4989,6.5299,6.5812,6.6316,6.601,6.5754,6.5903,6.614,6.6216,6.5917,6.5965,6.5887,6.5501,6.5034,6.4723,6.4723,6.4295,6.4178,6.4567,6.4567,6.4762,6.5151,6.5151,6.5151,6.5151,6.518,6.5194,6.5194,6.5194,6.5096,6.4924,6.535,6.5435,5.4542,5.4967,5.4967,5.4967,5.5453,5.5981,5.5981,5.5871,5.5787,5.5842,5.567,5.5508,5.5555,5.535,5.5282,5.5455,5.547,5.5957,5.7518,5.7862,5.8394,5.9744,5.9893,5.9893,5.9893,5.9893,5.9893,5.9893,5.9893,5.9893,5.9893,5.9893,5.9893,5.9893,5.9893,5.9893,5.9893,5.9893,5.9931,6.0083,6.0765,6.1144,6.1296,6.2046,6.2454,6.2568,6.2568,6.2606,6.2719,6.2719,6.3136,6.3781,6.3781,6.4235,6.4888,6.4888,6.4888,6.4888,6.4888,6.4888,6.4967,6.539,6.553,6.553,6.553,6.553,6.553,6.553,6.553,6.5523,6.5638,6.5676,6.5683,6.5827,6.6017,6.6153,6.6185,6.6316,6.646,6.6581,6.6636,6.6722,6.6884,6.6839,6.657,6.5945,6.6962,6.7583,6.6888,6.6171,6.5409,6.4675,6.4597,6.452,6.4403,6.4403,6.4675,6.5339,6.5378,6.5728,6.647,6.6508,6.6508,6.6508,6.6521,6.6549,6.6549,6.6496,6.6388,6.6174,6.608,6.598,5.5698,5.5776,5.5776,5.5776,5.5807,5.5832,5.5832,5.5703,5.5575,5.556,5.552,5.5443,5.5307,5.523,5.515,5.5026,5.5615,5.639,5.7332,5.8091,5.8873,5.9788,5.9893,5.9893,5.9893,5.9893,5.9893,5.9893,5.9893,5.9893,5.9893,5.9893,5.9893,5.9893,5.9893,5.9893,5.9893,5.9893,6.0235,6.0879,6.1031,6.1477,6.2189,6.234,6.2757,6.3402,6.3402,6.3781,6.4463,6.4463,6.4538,6.4652,6.4652,6.4766,6.4888,6.4888,6.4888,6.4888,6.4888,6.4888,6.4897,6.5001,6.5036,6.5036,6.5036,6.5036,6.5036,6.5036,6.5036,6.5179,6.5825,6.6015,6.6227,6.712,6.7353,6.7439,6.7671,6.7742,6.7962,6.8629,6.8931,6.9321,7.0078,6.9711,6.9317,6.9177,6.8867,6.8553,6.8403,6.8351,6.8288,6.8136,6.8136,6.7822,6.7083,6.7045,6.6812,6.631,6.6275,6.6353,6.6508,6.6508,6.6508,6.6508,6.6303,6.6174,6.6174,6.6012,6.5831,6.5628,6.5602,6.5855,5.7743,5.7143,5.6403,5.6493,5.609,5.5654,5.5654,5.5479,5.5333,5.5333,5.5249,5.5174,5.5071,5.505,5.5014,5.4935,5.5261,5.5943,5.7232,5.7771,5.8491,5.9742,5.9893,5.9893,5.9893,5.9893,5.9893,5.9893,5.9893,5.9893,5.9893,5.9893,5.9893,5.9893,5.9893,6.0083,6.0538,6.0538,6.0955,6.178,6.2197,6.2614,6.3023,6.3477,6.3894,6.4273,6.4273,6.4501,6.4888,6.4888,6.4888,6.4888,6.4888,6.4888,6.4888,6.4888,6.4888,6.4964,6.5381,6.5524,6.5609,6.6063,6.5874,6.5524,6.5524,6.5836,6.6215,6.6215,6.6215,6.6291,6.667,6.6783,6.6895,6.74,6.7965,6.8436,6.8686,6.8745,6.8935,6.94,6.9239,6.9187,6.9747,6.9607,6.9203,6.8777,6.8777,6.881,6.881,6.9212,6.9352,6.8926,6.8887,6.8728,6.8301,6.8147,6.7943,6.7715,6.748,6.7382,6.7477,6.7387,6.7338,6.7338,6.7238,6.7188,6.7188,6.7099,6.6935,6.6686,6.6643,6.6755,5.9117,5.8008,5.6697,5.6665,5.618,5.5649,5.5463,5.5422,5.5351,5.5161,5.5014,5.492,5.492,5.492,5.492,5.492,5.492,5.5451,5.6929,5.727,5.796,5.9476,5.978,5.9893,5.9893,5.9893,5.9893,5.9893,6.0045,6.0083,5.9893,5.9893,5.9969,6.0159,6.0159,6.0538,6.1372,6.1363,6.1818,6.2644,6.3288,6.3705,6.3894,6.4576,6.4888,6.4888,6.4888,6.4888,6.4888,6.4888,6.4888,6.4888,6.4888,6.4993,6.5154,6.5154,6.5267,6.5533,6.6177,6.6367,6.648,6.7162,6.6935,6.6367,6.6367,6.6859,6.739,6.739,6.739,6.7428,6.7617,6.7655,6.7693,6.7883,6.8595,6.9222,6.9389,6.9329,6.9276,6.9414,6.8799,6.8309,6.8535,6.86,6.843,6.7735,6.8198,6.87,6.8888,6.9473,6.9672,6.9235,6.9231,6.9165,6.8932,6.8712,6.861,6.8645,6.8313,6.8157,6.834,6.8171,6.811,6.811,6.8105,6.8102,6.8102,6.8052,6.7936,6.7713,6.7659,6.7633,5.8302,5.7446,5.6514,5.5809,5.5976,5.6126,5.5369,5.5693,5.5868,5.5102,5.4897,5.492,5.492,5.492,5.492,5.492,5.492,5.5223,5.6171,5.6937,5.7771,5.8718,5.9476,5.9893,5.9893,5.9893,5.9893,5.9893,6.0576,6.0652,5.9931,5.9893,6.0235,6.0955,6.0993,6.1401,6.2265,6.2265,6.2682,6.3477,6.3553,6.4008,6.4775,6.485,6.4888,6.4888,6.4888,6.4888,6.4888,6.4888,6.4888,6.4888,6.4888,6.5343,6.5988,6.5988,6.648,6.7162,6.7238,6.7276,6.7276,6.7352,6.7352,6.7276,6.7276,6.7352,6.739,6.739,6.739,6.7579,6.83,6.8489,6.8679,6.9484,6.9768,6.9834,6.9853,6.9217,6.8695,6.8684,6.821,6.7773,6.7797,6.7996,6.8147,6.8056,6.8095,6.8433,6.9155,6.9309,6.9661,7.0352,7.0649,7.0375,6.9323,6.921,6.8935,6.8213,6.8131,6.8117,6.8139,6.8117,6.811,6.811,6.7875,6.7733,6.7771,6.7575,6.7443,6.7454,6.7435,6.7796,5.9262,5.8269,5.7201,5.7529,5.6466,5.5375,5.5564,5.5372,5.5039,5.4654,5.4579,5.4579,5.4579,5.4579,5.4579,5.4579,5.4667,5.504,5.5909,5.6412,5.7202,5.8529,5.8886,5.919,5.969,6.0039,6.0496,6.1015,6.1354,6.1392,6.1053,6.1274,6.1553,6.1856,6.1894,6.2265,6.3098,6.3136,6.3553,6.4387,6.4387,6.4538,6.4888,6.4888,6.4888,6.4888,6.4888,6.4888,6.4888,6.4888,6.4888,6.4964,6.5419,6.5827,6.6177,6.6708,6.7087,6.7466,6.7958,6.811,6.8224,6.8716,6.8906,6.8792,6.8262,6.8489,6.8906,6.8906,6.8906,6.8982,6.9285,6.9361,6.9484,6.9825,6.9901,6.9901,6.9901,6.9209,6.8649,6.8821,6.8219,6.7771,6.7913,6.8027,6.8093,6.8086,6.8086,6.8392,6.9205,6.9282,6.9574,7.0268,7.0593,7.058,7.0102,6.9919,6.9773,6.9612,6.9339,6.9231,6.9349,6.8743,6.8392,6.8392,6.8288,6.8235,6.8235,6.8696,6.8906,6.8868,6.8375,6.83,5.8882,5.8365,5.7772,5.78,5.6535,5.536,5.5503,5.5107,5.4672,5.4446,5.4409,5.4409,5.4409,5.4409,5.4409,5.4409,5.448,5.4751,5.5383,5.5799,5.6447,5.7627,5.788,5.836,5.9415,6.0332,6.1224,6.2087,6.2162,6.2237,6.251,6.2777,6.2818,6.2591,6.2591,6.2969,6.3763,6.3763,6.4103,6.4679,6.4679,6.4679,6.4679,6.4679,6.4679,6.4679,6.4679,6.4831,6.5086,6.5086,6.5237,6.5502,6.6069,6.6409,6.6711,6.7316,6.7704,6.8006,6.8573,6.8762,6.8875,6.949,6.9679,6.9566,6.8951,6.9303,6.9901,6.9901,6.9901,6.9901,6.9901,6.9901,6.9901,6.9901,6.9901,6.9901,6.9901,6.9209,6.8668,6.8856,6.8206,6.7656,6.7873,6.7905,6.7973,6.8203,6.8241,6.8555,6.9373,6.9488,6.9644,7.0068,7.026,7.0375,7.0375,7.0239,7.0205,7.0367,7.0093,6.9948,7.0109,6.9397,6.8982,6.8982,6.8982,6.8982,6.8982,6.9323,6.9522,6.9475,6.8641,6.8196,5.6379,5.7303,5.8074,5.5564,5.6009,5.6635,5.4983,5.5107,5.5356,5.4559,5.4409,5.4409,5.4409,5.4409,5.4409,5.4409,5.4409,5.4409,5.4409,5.5093,5.5628,5.5628,5.6388,5.7552,5.9149,6.082,6.2124,6.2923,6.2998,6.3345,6.4134,6.4182,6.3806,6.3008,6.3008,6.3383,6.4182,6.4182,6.4219,6.4219,6.4219,6.4219,6.4219,6.4219,6.4219,6.4219,6.4219,6.4707,6.5486,6.5486,6.5974,6.6677,6.6677,6.7165,6.7889,6.7889,6.8425,6.9187,6.9187,6.9187,6.9187,6.9187,6.9225,6.9225,6.9187,6.9529,6.9901,6.9901,6.9901,6.9901,6.9901,6.9901,6.9901,6.9901,6.9901,6.9901,6.9901,6.9209,6.8603,6.8612,6.7968,6.7399,6.7399,6.7399,6.7664,6.846,6.8574,6.8915,6.9797,6.991,6.9901,6.9901,6.9901,6.991,6.991,6.9901,6.9901,6.991,6.9901,6.9901,6.9901,6.9901,6.9901,6.9901,6.9901,6.9901,6.9901,6.902,6.8603,6.8603,6.7807,6.7278,5.6544,5.6584,5.6514,5.6325,5.5662,5.5035,5.5073,5.4697,5.428,5.4056,5.3981,5.3981,5.3981,5.3981,5.4168,5.4718,5.4913,5.5228,5.5743,5.6151,5.6832,5.7995,5.9281,6.0192,6.0553,6.1576,6.2545,6.3365,6.3402,6.3514,6.3786,6.3786,6.3814,6.3824,6.3834,6.3946,6.4209,6.4209,6.4209,6.4209,6.4209,6.4209,6.4209,6.4209,6.4547,6.5073,6.5073,6.5551,6.6339,6.6339,6.6479,6.6742,6.7315,6.7691,6.7953,6.8565,6.8951,6.9214,6.9214,6.9214,6.9214,6.9214,6.9214,6.9214,6.9214,6.9321,6.9426,6.9426,6.9539,6.9572,6.9467,6.9649,6.9863,6.9679,6.9758,6.9901,6.9901,6.9673,6.9475,6.9475,6.9294,6.9105,6.9105,6.9105,6.9219,6.9437,6.9475,6.9598,6.9863,6.9901,6.9901,6.9901,6.9901,6.9901,6.9901,6.9901,6.9901,6.9901,6.9901,6.9901,6.9901,6.9323,6.902,6.902,6.902,6.902,6.902,6.9151,6.855,6.7279,6.6498,6.6044,5.5628,5.5951,5.6078,5.5966,5.5262,5.4595,5.4781,5.428,5.3784,5.3784,5.3784,5.3784,5.3784,5.3784,5.4044,5.4862,5.5126,5.5473,5.632,5.6395,5.6729,5.7614,5.9345,6.0389,6.028,6.1132,6.2174,6.3285,6.3226,6.3293,6.359,6.359,6.3687,6.399,6.3963,6.3963,6.3963,6.3963,6.3963,6.3963,6.3963,6.3963,6.4,6.4289,6.47,6.5261,6.556,6.6196,0.0,6.6933,6.712,6.7419,6.7943,6.8141,6.8178,6.875,6.8937,6.8937,6.8937,6.875,6.8489,6.8489,6.8489,6.8489,6.8489,6.8809,6.9214,6.9214,6.9273,6.9357,6.9209,6.9426,6.959,6.9419,6.9529,6.963,6.963,6.963,6.963,6.963,6.963,6.9554,6.9252,6.9186,6.9073,6.8733,6.8695,6.8695,6.8695,6.8997,6.9186,6.9186,6.9441,6.963,6.963,6.9805,6.9901,6.9901,6.9901,6.9901,6.9901,6.9294,6.8943,6.8943,6.8866,6.8826,6.8826,6.8885,6.8138,6.6687,6.6199,6.6083,0.0,5.5348,5.6306,5.475,5.4777,5.4987,5.4231,5.3935,0.0,5.3784,5.3784,5.3784,5.3784,5.3784,5.4044,5.4862,5.4991,5.5278,5.6206,5.6103,5.5746,5.5249,5.734,5.8737,5.8665,5.9893,6.1332,6.2818,6.2667,6.281,6.3553,6.359,6.359,6.359,6.359,6.359,6.359,6.359,6.3628,6.3702,6.3702,6.3702,6.3813,6.4556,6.4928,6.5039,6.5819,6.6636,6.7379,6.7379,6.7825,6.8493,6.8493,6.8493,6.8493,6.8493,6.8493,6.8493,6.8419,6.7936,6.7305,6.7305,6.7342,6.7379,6.7379,6.8203,6.916,6.916,6.9181,6.9181,6.9171,6.9192,6.9214,6.9192,6.9203,6.9214,6.9214,6.9214,6.9214,6.9214,6.9214,6.8951,6.8211,6.8023,6.7733,6.6906,6.6756,6.6681,6.6681,6.747,6.7985,6.7985,6.8736,6.9214,6.9214,6.959,6.9853,6.9853,6.9853,6.9853,6.9853,6.963,6.9481,6.9481,6.9283,6.9203,6.9155,6.8318,6.7509,6.6737,6.6699,6.6957,5.3851,0.0,5.4429,5.4047,5.4047,5.4093,0.0,5.3823,5.3784,5.3784,5.3784,5.3784,5.3784,5.3784,5.4044,5.4862,5.4775,5.5128,5.6556,5.7508,5.7581,5.6245,5.8215,5.9323,5.841,6.0254,6.1807,6.2479,6.3026,6.3405,6.359,6.359,6.359,6.359,6.359,6.359,6.359,6.359,6.3925,6.4519,6.4519,6.4853,6.5522,6.5708,6.6116,6.6711,6.6933,6.7453,6.8233,6.8233,6.8345,6.8493,6.8493,6.8493,6.8493,6.8493,6.8493,6.8419,6.7788,6.7453,6.7305,6.7305,6.7713,6.8233,6.8233,6.8429,6.8648,6.8648,6.8789,6.8855,6.8695,6.8937,6.9171,6.8945,6.9045,6.9214,6.9214,6.9214,6.9214,6.9214,6.9214,6.9139,6.8951,6.8398,6.791,6.7733,6.7132,6.6681,6.6681,6.747,6.7985,6.7985,6.8736,6.9214,6.9214,6.931,6.9374,6.9374,6.9374,6.9374,6.9374,6.9283,6.9251,6.9251,6.9209,6.9089,6.89,6.8066,6.7479,6.7147,6.6514,6.633,5.3784,5.4082,5.4342,5.4342,5.4342,5.4342,5.4342,5.4082,5.3784,5.3784,5.3784,5.3746,5.36,5.3866,5.4324,5.4991,5.5214,5.5722,5.6803,5.7849,5.7976,5.6555,5.7893,5.8634,5.7981,5.9259,6.0517,6.1447,6.2107,6.2645,6.3014,6.3051,6.3135,6.3301,6.3312,6.3419,6.359,6.3962,6.4371,6.4816,6.5225,6.5633,6.6128,6.6488,6.6896,6.7305,6.7676,6.8085,6.8493,6.8493,6.8493,6.8493,6.8493,6.8271,6.7936,6.7936,6.7713,6.7342,6.6896,6.6748,6.6748,6.6748,6.7305,6.7936,6.7936,6.8196,6.8493,6.8493,6.8565,6.8636,6.853,6.8709,6.8846,6.8707,6.8777,6.8881,6.8881,6.8881,6.8881,6.8881,6.8881,6.8769,6.8395,6.7946,6.7546,6.7173,6.6724,6.6425,6.6425,6.7173,6.7696,6.7696,6.8395,6.8881,6.8881,6.8881,6.8971,6.9203,6.9214,6.9214,6.9214,6.9078,6.8956,6.8881,6.8881,6.8812,6.8672,6.8225,6.7956,6.7825,6.7379,6.7193,5.3784,5.4379,5.4973,5.4862,5.4825,5.4825,5.4825,5.4304,5.3784,5.3784,5.3756,5.3676,5.3506,5.3992,5.4587,5.5101,5.5762,5.6346,5.6693,5.7349,5.7433,5.6352,5.6932,5.7388,5.735,5.7783,5.8743,6.0305,6.0854,6.1485,6.2337,6.241,6.264,6.3174,6.3186,6.3441,6.3999,6.4519,6.4928,6.5188,6.5931,6.6339,6.6488,6.7156,6.7491,6.7528,6.8196,6.8493,6.8493,6.8493,6.8419,6.8308,6.8308,6.7825,6.7119,6.7119,6.6748,6.6265,6.6265,6.6265,6.6265,6.6265,6.6822,6.7491,6.7491,6.7973,6.8493,6.8493,6.8493,6.8493,6.8493,6.8493,6.8493,6.8493,6.8493,6.8456,6.8345,6.8419,6.8456,6.8345,6.8419,6.8271,6.7602,6.7379,6.7082,6.6376,6.6191,6.6079,6.6079,6.6785,6.7305,6.7305,6.8011,6.8493,6.8493,6.8493,6.8685,6.9083,6.9105,6.9105,6.9105,6.8866,6.8646,6.8493,6.8493,6.8493,6.8493,6.8493,6.8493,6.8493,6.8493,6.8493,5.3784,5.4379,5.4825,5.4156,5.397,5.397,5.397,5.3896,5.3784,5.3784,5.358,5.359,5.4191,5.4155,5.425,5.4995,5.5523,5.579,5.5495,5.6156,5.6357,5.5491,5.6097,5.6461,5.6099,5.7368,5.8707,5.9998,6.0779,6.1547,6.2337,6.241,6.2896,6.3996,6.4009,6.4561,6.5708,6.5113,6.5522,6.6933,6.7045,6.7453,6.8122,6.8271,6.8308,6.8308,6.8456,6.8493,6.8493,6.8493,6.8085,6.7491,6.7491,6.6971,6.6265,6.6265,6.6636,6.7119,6.7119,6.7119,6.7119,6.7119,6.7676,6.8308,6.8308,6.8419,6.8493,6.8493,6.8493,6.8493,6.8493,6.8493,6.8493,6.8493,6.8493,6.8308,6.7639,6.8011,6.8308,6.7602,6.8011,6.8456,6.8345,6.7751,6.7268,6.7119,6.6525,6.6079,6.6079,6.6785,6.7305,6.7305,6.8011,6.8493,6.8493,6.8493,6.853,6.8614,6.8614,6.8614,6.8614,6.8578,6.8542,6.8493,6.8493,6.8493,6.8493,6.8493,6.8493,6.8493,6.8493,6.8493,5.3162,5.3747,5.4379,5.4416,5.4787,5.528,5.5679,5.5456,5.502,5.4564,5.4346,5.4199,5.4188,5.4369,5.4819,5.5673,5.5995,5.6062,5.5875,5.6169,5.624,5.5883,5.6169,5.6322,5.6129,5.7541,5.8699,5.9263,6.043,6.131,6.167,6.234,6.3029,6.3865,6.4498,6.5447,6.6748,6.6339,6.6525,6.7305,6.7751,6.8122,6.8493,6.8493,6.8493,6.8493,6.8493,6.8493,6.8456,6.8011,6.7639,6.7268,6.6822,6.6413,6.6153,6.6599,6.7268,6.8011,6.8456,6.8605,6.8679,6.9088,6.9496,6.9794,6.9794,6.9794,6.9794,6.9794,6.9162,6.8493,6.8493,6.8493,6.8382,6.7936,6.8196,6.8271,6.7453,6.7936,6.8382,6.8011,6.8233,6.8493,6.8493,6.8196,6.7936,6.7936,6.7639,6.7379,6.7379,6.7713,6.7936,6.7936,6.8271,6.8493,6.8493,6.8493,6.8493,6.8493,6.8493,6.8493,6.8493,6.8493,6.8493,6.8493,6.8493,6.8493,6.8493,6.8493,6.8493,6.8493,6.8493,6.8493,5.2828,5.3329,5.3978,5.4785,5.5362,5.5986,5.6989,5.6479,5.5667,5.5322,5.4942,5.4604,5.4483,5.4965,5.5591,5.6182,5.6342,5.6383,5.6383,5.6383,5.6383,5.6383,5.6383,5.6383,5.6383,5.7796,5.8781,5.8973,6.0487,6.145,6.1628,6.2521,6.3335,6.3975,6.4882,6.602,6.7395,6.7432,6.748,6.7602,6.8196,6.8493,6.8493,6.8493,6.8493,6.8493,6.8493,6.8493,6.8456,6.7825,6.7453,6.7268,6.6822,6.6673,6.6748,6.7565,6.8233,6.8902,6.9719,6.9979,7.0091,7.0722,7.0908,7.0908,7.0908,7.0908,7.0908,7.0908,7.0016,6.9051,6.9051,6.9051,6.8902,6.8308,6.8605,6.8828,6.8048,6.8493,6.9013,6.8828,6.8939,6.9051,6.9051,6.9051,6.9051,6.9051,6.9051,6.9051,6.9051,6.9051,6.9051,6.9051,6.8902,6.8716,6.8531,6.8493,6.8493,6.8493,6.8493,6.8493,6.8493,6.8493,6.8493,6.8493,6.8493,6.8493,6.8493,6.8493,6.8493,6.8493,6.8493,6.8493,5.3497,5.3717,5.3899,5.4714,5.4459,5.4388,5.6023,5.5233,5.4514,5.578,5.4795,5.4184,5.5765,5.6184,5.6226,5.5972,5.6203,5.6383,5.6383,5.6383,5.6383,5.6383,5.6383,5.6383,5.6383,5.7796,5.9009,5.9758,6.1307,6.25,6.3214,6.3316,6.3917,6.5127,6.5279,6.6086,6.7755,6.7755,6.7984,6.8419,6.8456,6.8493,6.8493,6.8493,6.8493,6.8493,6.8493,6.8493,6.8493,6.8456,6.7973,6.7379,6.8048,6.8345,6.8419,6.9236,6.9571,6.9719,7.0536,7.0834,7.0834,7.0871,7.0908,7.0908,7.0908,7.0908,7.0908,7.0908,7.0834,7.0722,7.0722,7.0722,7.071,7.0635,7.0685,7.0499,6.9719,7.0165,7.0499,6.9756,7.0239,7.0722,7.0722,7.0722,7.0722,7.0722,7.0722,7.0722,7.0722,7.0722,7.0722,7.0722,7.0054,6.9311,6.8568,6.8493,6.8493,6.8493,6.8493,6.8493,6.8493,6.8493,6.8493,6.8493,6.8493,6.8493,6.8493,6.8493,6.8493,6.8493,6.8493,6.8493,5.2786,5.3561,5.4381,5.4687,5.4559,5.4812,5.6487,5.6419,5.604,5.6176,5.5703,5.5274,5.5317,5.5599,5.5807,5.5677,5.5764,5.585,5.585,5.626,5.6528,5.6528,5.6923,5.7402,5.7932,5.8885,5.9931,6.096,6.2056,6.2911,6.3377,6.4147,6.4798,6.53,6.6047,6.6851,6.7789,6.7789,6.8033,6.8493,6.8493,6.8493,6.8493,6.8493,6.8493,6.8493,6.8493,6.8493,6.8456,6.7973,6.7862,6.8122,6.8939,6.9571,7.0091,7.0958,7.1552,7.2035,7.2332,7.2444,7.2444,7.2444,7.2444,7.2444,7.2444,7.2444,7.2444,7.2444,7.2444,7.2221,7.1168,7.0908,7.0747,7.0276,7.0536,7.0672,6.9868,7.0351,7.0834,7.0499,7.0685,7.0908,7.0908,7.0908,7.0908,7.0908,7.0908,7.0908,7.0908,7.0908,7.0908,7.0908,7.0648,7.0314,7.0016,6.9979,6.9794,6.9274,6.8791,6.8493,6.8493,6.8493,6.8493,6.8493,6.8493,6.8493,6.8493,6.8493,6.8493,6.8493,6.8493,6.8457,5.2927,5.382,5.4711,5.498,5.4838,5.4986,5.6463,5.6486,5.6275,5.6551,5.6188,5.5554,5.4854,5.4913,5.5191,5.5334,5.5638,5.5838,5.5838,5.649,5.6967,5.6967,5.7393,5.7938,5.8464,5.9638,6.0698,6.1485,6.2752,6.3573,6.3795,6.4407,6.4926,6.5269,6.5943,6.6705,6.7577,6.7684,6.7994,6.8493,6.8493,6.8493,6.8493,6.8493,6.8493,6.8493,6.8493,6.8642,6.8828,6.8271,6.8679,6.9732,7.0289,7.0995,7.1762,7.2345,7.2939,7.3385,7.3385,7.3385,7.3385,7.3385,7.3385,7.3385,7.3385,7.3385,7.3385,7.3385,7.3385,7.3125,7.1998,7.1688,7.1539,7.0995,7.1279,7.1539,7.0982,7.1279,7.1688,7.1688,7.1688,7.1688,7.1688,7.1688,7.1688,7.1688,7.1688,7.1688,7.1688,7.1688,7.1576,7.1329,7.1329,7.1205,7.0932,7.0685,7.0314,6.9719,6.8939,6.8493,6.8493,6.8493,6.8493,6.8493,6.8493,6.8493,6.8493,6.8493,6.8469,6.8432,6.8432,6.8371,5.4236,5.4606,5.4717,5.559,5.5099,5.4671,5.5668,5.4921,5.4661,5.6816,5.5913,5.4641,5.4529,5.441,5.4472,5.4948,5.5894,5.6596,5.6596,5.7252,5.7677,5.7677,5.7712,5.7712,5.7712,5.9848,6.1233,6.1233,6.339,6.4689,6.4689,6.4021,6.4101,6.516,6.4824,6.5406,6.7073,6.7428,6.7891,6.8493,6.8493,6.8493,6.8493,6.8493,6.8493,6.8493,6.8493,6.8976,6.9719,6.9719,7.0698,7.2196,7.2196,7.2679,7.3385,7.3385,7.3385,7.3385,7.3385,7.3385,7.3385,7.3423,7.3423,7.3423,7.3423,7.3423,7.3423,7.3423,7.3423,7.3385,7.3385,7.3385,7.3385,7.3385,7.3385,7.3385,7.3385,7.3385,7.3385,7.3385,7.3385,7.3385,7.3385,7.3385,7.3385,7.3385,7.3385,7.3385,7.3385,7.3385,7.3088,7.2271,7.2196,7.1862,7.0982,7.0165,6.9719,6.9719,6.8939,6.8493,6.8493,6.8493,6.8493,6.8493,6.8493,6.8493,6.8493,6.8493,6.842,6.8296,6.8296,6.8234,5.3687,5.4438,5.5188,5.4894,5.5156,5.5522,5.5837,5.5592,5.5448,5.5861,5.5206,5.4699,5.5198,5.524,5.5438,5.6139,5.6531,5.6734,5.6734,5.7376,5.7845,5.7845,5.8781,5.9647,6.0202,6.1363,6.2422,6.3189,6.3869,6.4411,6.4672,6.4495,6.4512,6.486,6.529,6.5894,6.6736,6.7392,6.7994,6.8493,6.8493,6.8493,6.8493,6.8493,6.8828,6.9348,6.9348,6.9794,7.0611,7.1218,7.175,7.2271,7.2828,7.32,7.3385,7.3385,7.3385,7.3385,7.3385,7.3385,7.3497,7.4054,7.424,7.4351,7.4909,7.4686,7.424,7.424,7.3831,7.3385,7.3385,7.3385,7.3385,7.3385,7.3385,7.3237,7.2679,7.3014,7.3237,7.2679,7.3014,7.32,7.2642,7.3014,7.32,7.2642,7.2568,7.2568,7.2568,7.3051,7.3088,7.2271,7.2196,7.1862,7.0982,7.0672,7.0314,6.9756,6.9496,6.9088,6.8531,6.8493,6.8493,6.8493,6.8493,6.8445,6.8358,6.8358,6.8296,6.817,6.817,6.8107,5.4572,5.5354,5.597,5.5583,5.5703,5.5881,5.5721,5.5687,5.5681,5.5504,5.4949,5.4823,5.5874,5.5823,5.5858,5.6667,5.7047,5.7253,5.7253,5.7874,5.8357,5.8357,5.9426,6.0358,6.0806,6.1841,6.2777,6.3409,6.3739,6.402,6.4234,6.3973,6.4009,6.4463,6.4775,6.534,6.6125,6.7016,6.7617,6.7956,6.8542,6.8815,6.8828,6.8927,6.9236,6.9756,7.0388,7.0958,7.1478,7.2345,7.2679,7.2717,7.32,7.3385,7.3385,7.3385,7.3385,7.3385,7.3385,7.3608,7.3943,7.4426,7.4612,7.4686,7.5169,7.476,7.4128,7.4128,7.3757,7.3385,7.3385,7.3385,7.3385,7.3385,7.3385,7.3274,7.2791,7.3051,7.3274,7.2754,7.3051,7.3237,7.2754,7.3088,7.3237,7.2754,7.2382,7.2196,7.2196,7.2308,7.2221,7.1738,7.1663,7.1478,7.0945,7.0611,7.0239,6.9719,6.9385,6.9013,6.8531,6.8445,6.842,6.842,6.8371,6.8457,6.8689,6.8689,6.8638,6.8509,6.8509,6.826,5.6297,5.6737,5.6843,5.695,5.6449,5.5851,5.5522,5.5454,5.5534,5.5572,5.5134,5.515,5.6633,5.6306,5.6065,5.6874,5.7564,5.8012,5.8012,5.8582,5.8995,5.8995,5.9771,6.0289,6.0289,6.1721,6.2618,6.2618,6.3239,6.36,6.36,6.2963,6.3039,6.4039,6.3745,6.4185,6.5319,6.6383,6.6988,6.7129,6.862,6.9313,6.9326,6.9643,6.983,6.9991,7.1589,7.2308,7.2382,7.3088,7.3385,7.3385,7.3385,7.3385,7.3385,7.3385,7.3385,7.3385,7.3385,7.3943,7.4612,7.4686,7.4723,7.4723,7.4797,7.4203,7.3497,7.3497,7.346,7.3385,7.3385,7.3385,7.3385,7.3385,7.3385,7.3385,7.3311,7.3348,7.3385,7.3311,7.3348,7.3385,7.3311,7.3348,7.3385,7.3311,7.2717,7.2271,7.2196,7.1589,7.1056,7.0908,7.0908,7.0834,7.0685,7.0016,6.9595,6.9583,6.8878,6.8469,6.8457,6.8358,6.8296,6.8296,6.8257,6.8513,6.9189,6.9336,6.9294,6.9088,6.9161,6.869,5.5768,5.6308,5.6697,5.6261,5.626,5.6247,5.5668,5.6049,5.6328,5.5718,5.5977,5.6598,5.7495,5.7529,5.7667,5.8409,5.8668,5.8754,5.8754,5.8892,5.8995,5.8995,6.022,6.1047,6.1047,6.2461,6.3358,6.3358,6.3496,6.36,6.36,6.3427,6.3464,6.3694,6.4235,6.4626,6.492,6.6346,6.7087,6.7129,6.862,6.9313,6.9313,7.0006,7.0726,7.1497,7.2628,7.3125,7.3162,7.3311,7.3385,7.3385,7.3385,7.3385,7.3385,7.3385,7.3385,7.3385,7.3385,7.3943,7.4686,7.5355,7.554,7.5689,7.6358,7.5503,7.4351,7.4351,7.3906,7.3385,7.3385,7.3385,7.3385,7.3385,7.3385,7.3237,7.2568,7.2939,7.32,7.2568,7.2977,7.32,7.2568,7.2977,7.32,7.2531,7.2865,7.2902,7.2271,7.2605,7.2369,7.1056,7.0908,7.0388,6.9125,6.8865,6.8704,6.8606,6.8445,6.8296,6.8208,6.8259,6.8296,6.8296,6.8799,6.8757,6.821,6.9463,6.9677,6.8976,6.96,6.944,5.5731,5.6598,5.7412,5.6886,5.6714,5.6583,5.6266,5.6771,5.7219,5.6789,5.7047,5.7564,5.8288,5.8409,5.8547,5.8926,5.9323,5.9461,5.903,5.9306,5.9426,5.903,6.0358,6.1289,6.1289,6.2703,6.36,6.36,6.36,6.36,6.36,6.36,6.36,6.36,6.3986,6.4393,6.4702,6.5826,6.6742,6.7484,6.899,7.0072,7.0845,7.0994,7.1582,7.2476,7.3,7.3252,7.3318,7.3318,7.332,7.3385,7.3385,7.3385,7.346,7.3831,7.372,7.346,7.3831,7.424,7.4686,7.5095,7.5243,7.5318,7.5763,7.502,7.4017,7.4017,7.372,7.3385,7.3385,7.3385,7.3385,7.3385,7.3385,7.3274,7.2865,7.3088,7.3274,7.2865,7.3088,7.3274,7.2865,7.3125,7.3274,7.2828,7.2791,7.2679,7.2233,7.2132,7.1784,7.0881,7.0755,7.0383,6.9531,6.9457,6.9419,6.9355,6.8972,6.8762,6.8661,6.8304,6.812,6.812,6.8789,6.8867,6.8382,6.9609,6.9972,6.9486,7.0293,7.0257,5.5498,5.6683,5.7792,5.7716,5.7342,5.6978,5.6978,5.7564,5.8081,5.8081,5.8081,5.8271,5.8892,5.8995,5.903,5.9168,5.9668,5.9806,5.9288,5.9771,5.9944,5.9288,6.0565,6.1496,6.1496,6.2772,6.36,6.36,6.36,6.36,6.36,6.36,6.36,6.36,6.36,6.3983,6.4811,6.5464,6.6581,6.812,6.9608,7.1064,7.2459,7.2051,7.2249,7.2955,7.2982,7.3064,7.3158,7.3158,7.3239,7.332,7.332,7.3418,7.3604,7.4124,7.3914,7.3381,7.3901,7.4198,7.4309,7.4309,7.4421,7.4545,7.4559,7.4015,7.3359,7.3385,7.3372,7.3359,7.3385,7.3372,7.3383,7.3383,7.3372,7.3385,7.3385,7.3385,7.3385,7.3385,7.3385,7.3385,7.3385,7.3385,7.3385,7.3385,7.2828,7.2419,7.2419,7.1685,7.1113,7.0965,7.0848,7.0682,7.0534,7.0507,7.0494,7.0468,6.9827,6.9458,6.9432,6.8847,6.8425,6.8278,6.8709,6.8885,6.8885,6.9706,7.0183,7.033,7.0977,7.094,5.4171,5.4989,5.61,5.7383,5.7725,5.7771,5.7771,5.8306,5.8857,5.8857,5.8857,5.8892,5.8961,5.8995,5.9254,5.9944,5.953,5.9392,5.9944,6.0116,6.0151,6.0047,6.1392,6.2342,6.2342,6.3082,6.36,6.36,6.36,6.36,6.36,6.36,6.36,6.36,6.36,6.4279,6.5636,6.6297,6.7422,6.8968,7.0449,7.16,7.2496,7.2429,7.2514,7.2751,7.2927,7.3009,7.3023,7.3023,7.3037,7.305,7.305,7.348,7.4021,7.342,7.3161,7.2976,7.2297,7.257,7.3198,7.3198,7.3679,7.4298,7.4384,7.3855,7.3252,7.3346,7.3331,7.3252,7.3346,7.3331,7.3225,7.3225,7.3331,7.3385,7.3385,7.3385,7.3385,7.3385,7.3385,7.3385,7.3385,7.3385,7.3385,7.3385,7.3311,7.3237,7.3237,7.3112,7.2765,7.2059,7.1843,7.1418,7.0715,7.0573,7.0454,7.032,7.0246,7.0118,6.9995,7.0541,7.0541,6.9807,6.9192,6.8885,6.8885,6.9706,7.0477,7.1123,7.1233,7.1233,5.5081,5.5463,5.5958,5.7939,5.8472,5.8513,5.8513,5.8754,5.8995,5.8995,5.8995,5.8995,5.8995,5.8995,5.9099,5.9461,5.9599,5.9806,6.0151,6.0565,6.0806,6.0806,6.1806,6.2514,6.2514,6.317,6.36,6.36,6.36,6.36,6.36,6.36,6.3772,6.4186,6.4627,6.5549,6.7014,6.774,6.8847,7.0347,7.1449,7.2151,7.2496,7.2496,7.2524,7.2596,7.2667,7.2737,7.2821,7.2821,7.2913,7.3033,7.3499,7.3314,7.2871,7.3476,7.307,7.228,7.2391,7.2741,7.3105,7.3105,7.3394,7.3771,7.3824,7.3578,7.3307,7.3372,7.337,7.3344,7.3372,7.337,7.3318,7.3318,7.337,7.3385,7.3385,7.3357,7.3278,7.3199,7.3185,7.3185,7.3185,7.3185,7.3185,7.3185,7.3185,7.3185,7.3185,7.3068,7.2865,7.2533,7.2323,7.2079,7.1747,7.1655,7.16,7.153,7.1112,7.0826,7.077,7.0697,7.0477,7.011,7.022,6.9802,6.8885,6.9706,7.0036,6.9986,7.0866,7.1307,5.5422,5.5652,5.5892,5.8375,5.8857,5.8754,5.8961,5.8995,5.8995,5.8995,5.8995,5.9064,5.9288,5.9323,5.9375,5.9547,6.0082,6.0565,6.0737,6.1254,6.1599,6.1599,6.2289,6.279,6.279,6.3273,6.36,6.36,6.36,6.36,6.36,6.3772,6.4117,6.4669,6.5433,6.662,6.8302,6.94,7.0522,7.16,7.2202,7.2496,7.2496,7.2496,7.2496,7.2496,7.2496,7.2553,7.2653,7.2873,7.3018,7.324,7.3816,7.3411,7.26,7.3462,7.2982,7.1987,7.2392,7.2609,7.2741,7.2741,7.292,7.3175,7.3215,7.3215,7.3228,7.3268,7.3254,7.3228,7.3305,7.3254,7.3215,7.3215,7.3254,7.3331,7.332,7.3278,7.3158,7.3023,7.2996,7.2996,7.2996,7.2996,7.2996,7.2996,7.2996,7.2996,7.2996,7.2886,7.2765,7.2765,7.2638,7.2539,7.2539,7.251,7.2496,7.2496,7.1931,7.16,7.16,7.1027,7.0697,7.0697,7.1321,7.0903,6.9509,6.9926,6.9889,6.9509,7.0536,7.0977,5.4005,5.4579,5.5272,5.8237,5.8478,5.815,5.8823,5.8995,5.8995,5.8995,5.8995,5.9237,6.0013,6.0151,6.0358,6.1082,6.122,6.1496,6.2273,6.2411,6.2445,6.2445,6.3101,6.3531,6.3531,6.3565,6.36,6.36,6.36,6.36,6.36,6.4255,6.4669,6.4703,6.5484,6.6925,6.9103,7.126,7.2357,7.2459,7.2496,7.2496,7.2496,7.2496,7.2496,7.2496,7.2496,7.2496,7.2583,7.3318,7.3663,7.3663,7.3699,7.414,7.4566,7.3097,7.251,7.2363,7.1629,7.1372,7.1423,7.1423,7.19,7.2567,7.2709,7.2737,7.2779,7.2968,7.2863,7.2779,7.2968,7.2863,7.2737,7.2737,7.2863,7.305,7.3185,7.3199,7.3158,7.3023,7.2996,7.2996,7.2996,7.2996,7.2996,7.2996,7.2996,7.2996,7.2996,7.2982,7.2982,7.2982,7.2793,7.2695,7.2695,7.2567,7.2496,7.2496,7.2459,7.2459,7.2459,7.2386,7.2386,7.2386,7.2422,7.2004,7.116,7.044,7.0477,7.116,7.0477,7.0146,5.3168,5.4149,5.5083,5.7516,5.8359,5.8668,5.8823,5.8927,5.8995,5.8995,5.9409,5.9875,6.0151,6.0185,6.0427,6.1185,6.1289,6.1565,6.2411,6.2514,6.2687,6.317,6.3427,6.36,6.36,6.36,6.36,6.36,6.4048,6.4324,6.4324,6.5048,6.5688,6.6152,6.6906,6.8382,7.0586,7.1887,7.2496,7.2496,7.2496,7.2496,7.2496,7.2496,7.2789,7.3266,7.3266,7.3266,7.334,7.4147,7.4184,7.3758,7.4258,7.3692,7.2591,7.2518,7.2165,7.1674,7.1417,7.1694,7.2183,7.2183,7.2488,7.2844,7.2886,7.2899,7.2913,7.2982,7.2955,7.2913,7.2982,7.2955,7.2899,7.2899,7.2955,7.2982,7.289,7.2876,7.2835,7.2718,7.2667,7.2667,7.2667,7.2667,7.2667,7.2667,7.2667,7.2667,7.2667,7.2667,7.2667,7.2667,7.261,7.2567,7.2567,7.2524,7.2496,7.2496,7.2496,7.2496,7.2496,7.2496,7.2496,7.2496,7.2496,7.2078,7.1307,7.1013,7.077,7.055,7.0756,7.0866,5.3141,5.402,5.4902,5.7004,5.781,5.8187,5.8685,5.8875,5.8996,5.934,5.984,6.0358,6.0875,6.0978,6.1116,6.1634,6.191,6.2255,6.279,6.2859,6.3066,6.3531,6.36,6.36,6.36,6.36,6.3703,6.3945,6.4427,6.4807,6.5083,6.5861,6.662,6.7325,6.8316,6.9402,7.0622,7.1595,7.1982,7.1688,7.1982,7.2078,7.2114,7.2386,7.2789,7.334,7.3854,7.4111,7.4147,7.4683,7.4588,7.4147,7.4404,7.3523,7.2151,7.2422,7.2151,7.1711,7.1711,7.2112,7.2638,7.2638,7.2709,7.2844,7.2844,7.2844,7.2844,7.2844,7.2844,7.2844,7.2844,7.2844,7.2844,7.2844,7.2844,7.2816,7.2667,7.2667,7.2667,7.2524,7.2496,7.2496,7.2496,7.2496,7.2496,7.2496,7.2496,7.2496,7.2496,7.2496,7.2496,7.2496,7.2496,7.2496,7.2496,7.2496,7.2496,7.2496,7.2496,7.2496,7.2496,7.2496,7.2496,7.2496,7.2496,7.2239,7.1711,7.1711,7.127,7.0513,7.105,7.116,0.0,0.0,0.0,5.6833,5.6782,5.6645,5.8375,5.8771,5.9029,6.0012,6.022,6.0703,6.2238,6.2514,6.2549,6.2549,6.3117,6.36,6.36,6.36,6.36,6.36,6.36,6.36,6.36,6.36,6.391,6.4634,6.4738,6.5117,6.5895,6.662,6.7325,6.8049,6.9475,6.9855,6.9072,7.0553,7.0903,7.0146,7.094,7.1344,7.1344,7.2165,7.2569,7.2679,7.4206,7.4903,7.494,7.494,7.494,7.4793,7.4037,7.3722,7.356,7.2789,7.2496,7.2496,7.2496,7.2496,7.2496,7.2496,7.2496,7.2496,7.2496,7.2496,7.2496,7.2496,7.2496,7.2496,7.2496,7.2496,7.2496,7.2496,7.2496,7.2496,7.2496,7.2596,7.2667,7.2524,7.2496,7.2496,7.2496,7.2496,7.2496,7.2496,7.2496,7.2496,7.2496,7.2496,7.2496,7.2496,7.2496,7.2496,7.2496,7.2496,7.2496,7.2496,7.2496,7.2496,7.2496,7.2496,7.2496,7.2496,7.2496,7.2496,7.2496,7.2496,7.2078,7.1344,7.1344,7.0903,5.3363,0.0,0.0,0.0,0.0,0.0,5.806,5.8063,5.8186,5.9682,6.0405,6.1128,6.2271,6.2963,6.3308,6.3308,6.3462,6.36,6.36,6.36,6.36,6.36,6.36,6.36,6.36,6.4083,6.4462,6.4669,6.5738,6.6462,6.6689,6.6896,6.7083,6.731,6.817,6.8535,6.8321,7.0277,7.1197,7.0977,7.1784,7.2165,7.2202,7.301,7.3707,7.4243,7.472,7.5234,7.5799,7.6408,7.5601,7.4074,7.4441,7.3854,7.2826,7.2569,7.2496,7.2496,7.2496,7.2496,7.2496,7.2496,7.2496,7.2496,7.2496,7.2496,7.2496,7.2496,7.2496,7.2496,7.2496,7.2496,7.2496,7.2496,7.2496,7.2496,7.2496,7.2524,7.2539,7.2496,7.2496,7.2496,7.2496,7.2496,7.2496,7.2496,7.2496,7.2496,7.2496,7.2496,7.2496,7.2496,7.2496,7.2496,7.2496,7.2496,7.2496,7.2496,7.2496,7.2496,7.2496,7.2496,7.2496,7.2496,7.2496,7.2496,7.2496,7.2496,7.2386,7.2165,7.2165,7.1747,5.3444,5.38,5.4237,5.5264,0.0,0.0,5.7921,5.8078,5.8441,6.0559,6.1335,6.1887,6.2788,6.3308,6.36,6.36,6.36,6.36,6.36,6.36,6.36,6.36,6.36,6.3703,6.4014,6.4462,6.4979,6.56,6.6497,6.6999,6.6999,6.6999,6.6861,6.6551,6.7499,6.8,6.8,6.9856,7.0807,7.0807,7.16,7.2202,7.2532,7.334,7.4147,7.4903,7.4903,7.4992,7.5175,7.5968,7.527,7.3707,7.3854,7.334,7.2496,7.2496,7.2496,7.2496,7.2496,7.2496,7.2496,7.2496,7.2496,7.2496,7.2496,7.2496,7.2496,7.2496,7.2496,7.2496,7.2496,7.2496,7.2496,7.2496,7.2496,7.2496,7.2496,7.2496,7.2496,7.2496,7.2496,7.2496,7.2496,7.2496,7.2496,7.2496,7.2496,7.2496,7.2496,7.2496,7.2496,7.2496,7.2496,7.2496,7.2496,7.2496,7.2496,7.2496,7.2496,7.2496,7.2496,7.2496,7.2496,7.2496,7.2496,7.2496,7.2496,7.2496,7.2496,7.2496,7.2496,7.2261,5.3891,5.3866,5.3837,5.4483,5.455,0.0,5.7718,5.8232,5.8953,6.1593,6.2148,6.2389,6.3165,6.3303,6.3269,6.3287,6.3409,6.3478,6.36,6.36,6.3634,6.3703,6.3703,6.4014,6.4772,6.491,6.5531,6.6876,6.7103,6.7083,6.6999,6.6911,6.6589,6.5906,6.7163,6.7906,6.7988,6.95,7.022,7.022,7.1123,7.1931,7.2679,7.356,7.4368,7.5014,7.494,7.4478,7.3854,7.4404,7.4221,7.3487,7.2899,7.2569,7.2496,7.2496,7.2496,7.2496,7.2496,7.2496,7.2496,7.2496,7.2496,7.2496,7.2496,7.2496,7.2496,7.2496,7.2496,7.2496,7.2496,7.2496,7.2496,7.2496,7.2496,7.2496,7.2496,7.2496,7.2496,7.2496,7.2496,7.2496,7.2496,7.2496,7.2496,7.2496,7.2496,7.2496,7.2496,7.2496,7.2496,7.2496,7.2496,7.2496,7.2496,7.2496,7.2496,7.2496,7.2569,7.2642,7.2642,7.2716,7.2789,7.2789,7.2789,7.2716,7.2642,7.2532,7.2496,7.2496,7.2496,7.2496,5.4312,5.3948,5.387,5.4584,0.0,0.0,5.6617,5.6669,5.6943,5.9405,5.9937,6.023,6.1181,6.1336,6.1391,6.1485,6.2037,6.2745,6.3478,6.36,6.3807,6.4393,6.4496,6.4807,6.5585,6.6186,6.6689,6.6999,6.7532,6.7635,6.7014,6.6447,6.6006,6.5739,6.657,6.7327,6.7893,6.9996,7.105,7.1087,7.2532,7.3303,7.3523,7.4955,7.5726,7.5836,7.516,7.4793,7.4573,7.345,7.2899,7.2789,7.3266,7.3083,7.2496,7.2496,7.2496,7.2496,7.2496,7.2496,7.2496,7.2496,7.2496,7.2496,7.2496,7.2496,7.2496,7.2496,7.2496,7.2496,7.2496,7.2496,7.2496,7.2496,7.2496,7.2496,7.2496,7.2496,7.2496,7.2496,7.2496,7.2496,7.2496,7.2496,7.2496,7.2496,7.2496,7.2496,7.2496,7.2496,7.2496,7.2496,7.2496,7.2496,7.2496,7.2496,7.2496,7.2496,7.312,7.345,7.345,7.4111,7.4426,7.4426,7.4426,7.4111,7.345,7.2826,7.2496,7.2496,7.2496,7.2496,0.0,0.0,0.0,5.4059,0.0,0.0,0.0,5.6111,5.6435,5.8484,5.8895,5.9068,5.9585,5.9671,5.9828,6.0366,6.1123,6.1849,6.2374,6.3117,6.3876,6.46,6.4703,6.5152,6.6344,6.6792,6.7172,6.7497,6.7876,6.7601,6.6516,6.6793,6.6591,6.5794,6.7195,6.8342,6.9098,7.0544,7.1711,7.2496,7.3303,7.4111,7.4918,7.5322,7.5726,7.6019,7.4845,7.4294,7.4221,7.301,7.2496,7.2532,7.2936,7.2863,7.2496,7.2496,7.2496,7.2496,7.2496,7.2496,7.2496,7.2496,7.2496,7.2496,7.2496,7.2496,7.2496,7.2496,7.2496,7.2496,7.2496,7.2496,7.2496,7.2496,7.2496,7.2496,7.2496,7.2496,7.2496,7.2496,7.2496,7.2496,7.2496,7.2496,7.2496,7.2496,7.2496,7.2496,7.2496,7.2496,7.2642,7.3046,7.3083,7.3266,7.367,7.3692,7.3692,7.3692,7.4074,7.4294,7.4294,7.4683,7.4903,7.4903,7.4903,7.4683,7.4294,7.3891,7.3487,7.3083,7.3083,7.3083,0.0,0.0,0.0,0.0,0.0,5.389,0.0,0.0,0.0,5.7651,5.7941,5.7941,5.7941,5.7941,5.8217,5.9026,5.9971,6.066,6.084,6.2186,6.3427,6.4186,6.4669,6.5428,6.6689,6.6654,6.698,6.8014,6.7669,6.7126,6.6365,6.7468,6.7587,6.6472,6.8303,6.9682,7.0472,7.1333,7.2422,7.3722,7.4001,7.4771,7.5836,7.5359,7.538,7.5799,7.4331,7.3722,7.3648,7.2826,7.2496,7.2496,7.2496,7.2496,7.2496,7.2496,7.2496,7.2496,7.2496,7.2496,7.2496,7.2496,7.2496,7.2496,7.2496,7.2496,7.2496,7.2496,7.2496,7.2496,7.2496,7.2496,7.2496,7.2496,7.2496,7.2496,7.2496,7.2496,7.2496,7.2496,7.2496,7.2496,7.2496,7.2496,7.2496,7.2496,7.2496,7.2569,7.2716,7.2716,7.3046,7.3854,7.3927,7.4184,7.483,7.4903,7.4903,7.4903,7.505,7.5124,7.5124,7.527,7.5344,7.5344,7.5344,7.527,7.5124,7.527,7.4882,7.3927,7.3927,7.3927,0.0,0.0,0.0,0.0,5.3518,0.0,0.0,0.0,5.499,5.5837,0.0,5.6006,5.6006,0.0,0.0,5.6543,5.7842,5.8888,5.9237,6.0599,6.1875,6.2652,6.455,6.5826,6.5999,6.5359,6.5842,6.7945,6.6221,6.5886,6.7738,6.8005,6.8273,6.8708,6.9668,7.0474,7.117,7.2687,7.3523,7.3707,7.5139,7.5542,7.505,7.5689,7.5616,7.4977,7.4074,7.3722,7.3648,7.2826,7.2496,7.2496,7.2496,7.2496,7.2496,7.2496,7.2496,7.2496,7.2496,7.2496,7.2496,7.2496,7.2496,7.2496,7.2496,7.2496,7.2496,7.2496,7.2496,7.2496,7.2496,7.2496,7.2496,7.2496,7.2496,7.2496,7.2496,7.2496,7.2496,7.2496,7.2496,7.2496,7.2496,7.2496,7.2496,7.2496,7.2496,7.2753,7.345,7.3575,7.3854,7.4683,7.4757,7.4793,7.4903,7.4903,7.4903,7.4903,7.5579,7.5946,7.5946,7.6665,7.7032,7.7032,7.7032,7.6665,7.5983,7.6665,7.6261,7.4757,7.4757,7.4757,0.0,0.0,0.0,0.0,0.0,0.0,5.4127,0.0,5.4059,0.0,0.0,0.0,0.0,0.0,0.0,0.0,5.6491,0.0,0.0,0.0,6.0599,6.2307,6.3342,6.4446,6.5757,6.5152,6.5635,6.7911,6.5979,6.5681,6.797,6.8894,6.9513,6.9787,7.0965,7.1919,7.2679,7.334,7.4147,7.5102,7.5322,7.5469,7.5579,7.4992,7.4515,7.4147,7.334,7.301,7.2973,7.2642,7.2496,7.2496,7.2496,7.2496,7.2496,7.2496,7.2496,7.2496,7.2496,7.2496,7.2496,7.2496,7.2496,7.2496,7.2496,7.2496,7.2496,7.2496,7.2496,7.2496,7.2496,7.2496,7.2496,7.2496,7.2496,7.2496,7.2496,7.2496,7.2496,7.2496,7.2496,7.2496,7.2496,7.2496,7.2679,7.312,7.3193,7.3487,7.4294,7.4404,7.4698,7.5506,7.5616,7.5784,7.6261,7.6298,7.6298,7.6298,7.6592,7.6812,7.6812,7.7142,7.7289,7.7289,7.7289,7.7142,7.6812,7.7142,7.6959,7.6298,7.5821,7.5616,5.3534,5.4245,5.5263,5.3856,0.0,0.0,0.0,0.0,0.0,0.0,0.0,0.0,0.0,0.0,0.0,0.0,0.0,5.6285,0.0,5.7926,0.0,0.0,0.0,0.0,0.0,6.3979,6.4452,6.755,6.5489,6.5492,6.884,7.0032,7.0682,7.0896,7.1948,7.2899,7.367,7.3927,7.4735,7.6093,7.5506,7.5432,7.5726,7.4331,7.356,7.334,7.2753,7.2496,7.2496,7.2496,7.2496,7.2496,7.2496,7.2496,7.2496,7.2496,7.2496,7.2496,7.2496,7.2496,7.2496,7.2496,7.2496,7.2496,7.2496,7.2496,7.2496,7.2496,7.2496,7.2496,7.2496,7.2496,7.2496,7.2496,7.2496,7.2496,7.2496,7.2496,7.2496,7.2496,7.2496,7.2496,7.2496,7.2679,7.3046,7.3597,7.3891,7.4331,7.5124,7.5234,7.5527,7.6335,7.6423,7.6665,7.7252,7.7289,7.7289,7.7289,7.7289,7.7289,7.7289,7.7289,7.7289,7.7289,7.7289,7.7289,7.7289,7.7289,7.7289,7.7289,7.6702,7.6423,5.499,5.4583,5.4448,5.3687,5.3551,5.3551,0.0,0.0,5.3518,0.0,0.0,0.0,0.0,0.0,0.0,0.0,0.0,0.0,0.0,0.0,0.0,0.0,0.0,0.0,0.0,6.1013,6.145,0.0,6.4195,6.5057,7.099,7.1323,7.1686,7.2416,7.2481,7.2899,7.367,7.4478,7.5285,7.6093,7.6056,7.5689,7.4903,7.4074,7.3266,7.2532,7.2496,7.2496,7.2496,7.2496,7.2496,7.2496,7.2496,7.2496,7.2496,7.2496,7.2496,7.2496,7.2496,7.2496,7.2496,7.2496,7.2496,7.2496,7.2496,7.2496,7.2496,7.2496,7.2496,7.2496,7.2496,7.2496,7.2496,7.2496,7.2496,7.2496,7.2496,7.2496,7.2496,7.2496,7.2496,7.2496,7.2496,7.3156,7.3685,7.3722,7.4368,7.516,7.5946,7.6056,7.6387,7.7179,7.7252,7.7289,7.7289,7.7289,7.7289,7.7289,7.7289,7.7289,7.7289,7.7289,7.7289,7.7289,7.7289,7.7289,7.7289,7.7289,7.7289,7.7289,7.7289,7.7252,5.6208,5.7245,5.7927,5.5531,5.577,5.6043,5.3991,0.0,0.0,0.0,0.0,0.0,0.0,0.0,0.0,0.0,0.0,0.0,0.0,0.0,0.0,0.0,0.0,0.0,0.0,0.0,0.0,0.0,6.5974,0.0,7.1178,7.1406,7.1754,7.2467,7.2496,7.3156,7.4478,7.4757,7.5322,7.6093,7.5579,7.4882,7.4074,7.3266,7.2753,7.2496,7.2496,7.2496,7.2496,7.2496,7.2496,7.2496,7.2496,7.2496,7.2496,7.2496,7.2496,7.2496,7.2496,7.2496,7.2496,7.2496,7.2496,7.2496,7.2496,7.2496,7.2496,7.2496,7.2496,7.2496,7.2496,7.2496,7.2496,7.2496,7.2496,7.2496,7.2496,7.2496,7.2496,7.2496,7.2496,7.2496,7.2496,7.3156,7.3891,7.4404,7.472,7.538,7.6702,7.6885,7.6995,7.7289,7.7289,7.7289,7.7289,7.7289,7.7289,7.7289,7.7289,7.7289,7.7289,7.7289,7.7289,7.7289,7.7289,7.7289,7.7289,7.7289,7.7289,7.7289,7.7289,7.7289,5.7735,5.888,5.9531,5.7268,5.7526,5.7682,5.5297,5.4584,5.4466,0.0,0.0,0.0,0.0,0.0,0.0,0.0,0.0,0.0,0.0,5.5874,0.0,0.0,0.0,0.0,0.0,0.0,0.0,0.0,0.0,0.0,0.0,7.1799,7.1996,7.2481,7.2789,7.356,7.4903,7.516,7.5579,7.6093,7.527,7.4478,7.3685,7.2863,7.2496,7.2496,7.2496,7.2496,7.2496,7.2496,7.2496,7.2496,7.2496,7.2496,7.2496,7.2496,7.2496,7.2496,7.2496,7.2496,7.2496,7.2496,7.2496,7.2496,7.2496,7.2496,7.2569,7.2863,7.2716,7.2569,7.2863,7.2716,7.2496,7.2496,7.2496,7.2496,7.2496,7.2496,7.2496,7.2496,7.2496,7.2496,7.2496,7.2936,7.356,7.4368,7.4955,7.5711,7.6738,7.7142,7.7289,7.7289,7.7289,7.7289,7.7289,7.7289,7.7289,7.7289,7.7289,7.7289,7.7289,7.7289,7.7289,7.7289,7.7289,7.7289,7.7289,7.7289,7.7289,7.7289,7.7289,7.7289]}]]